[[{"header":{"parameterUnit":"m.s-1","parameterCategory":1,"la1":30.6,"la2":29.2853,"lo1":-89.7004,"lo2":-87.6739,"dy":0.0162,"dx":0.0183,"nx":112,"ny":82,"refTime":"2023-07-12T06:00:00:Z","depth":0,"parameterNumber":2,"parameterNumberName":"U-component_of_WINDS"},"data":[0.0,0.0,0.0,0.0,0.0,0.0,0.0,0.0,0.0,0.0,0.0,0.0,0.0,0.0,0.0,0.0,0.0,0.0,0.0,0.0,0.0,0.0,0.0,0.0,0.0,0.0,0.0,0.0,0.0,0.0,0.0,0.0,0.0,0.0,0.0,0.0,0.0,0.0,0.0,0.0,0.0,0.0,0.0,0.0,0.0,0.0,0.0,0.0,0.0,0.0,0.0,0.0,0.0,0.0,0.0,0.0,0.0,0.0,0.0,0.0,0.0,0.0,0.0,0.0,0.0,0.0,0.0,0.0,0.0,0.0,0.0,0.0,0.0,0.0,0.0,0.0,0.0,0.0,0.0,0.0,0.0,0.0,0.0,0.0,0.0,0.0,0.0,0.0,0.0,0.0,0.0,-3.0325,-3.402,-3.5794,-3.4745,-3.3754,-3.1928,-2.8936,0.0,0.0,0.0,0.0,0.0,0.0,0.0,0.0,0.0,0.0,0.0,0.0,0.0,0.0,0.0,0.0,0.0,0.0,0.0,0.0,0.0,0.0,0.0,0.0,0.0,0.0,0.0,0.0,0.0,0.0,0.0,0.0,0.0,0.0,0.0,0.0,0.0,0.0,0.0,0.0,0.0,0.0,0.0,0.0,0.0,0.0,0.0,0.0,0.0,0.0,0.0,0.0,0.0,0.0,0.0,0.0,0.0,0.0,0.0,0.0,0.0,0.0,0.0,0.0,0.0,0.0,0.0,0.0,0.0,0.0,0.0,0.0,0.0,0.0,0.0,0.0,0.0,0.0,0.0,0.0,0.0,0.0,0.0,0.0,0.0,0.0,0.0,0.0,0.0,0.0,0.0,0.0,0.0,0.0,0.0,0.0,0.0,0.0,0.0,0.0,0.0,0.0,0.0,0.0,-2.715,-3.0934,-3.3907,-3.5557,-3.537,-3.3155,-3.115,-2.9535,0.0,0.0,0.0,0.0,0.0,0.0,0.0,0.0,0.0,0.0,0.0,0.0,0.0,0.0,0.0,0.0,0.0,0.0,0.0,0.0,0.0,0.0,0.0,0.0,0.0,0.0,0.0,0.0,0.0,0.0,0.0,0.0,0.0,0.0,0.0,0.0,0.0,0.0,0.0,0.0,0.0,0.0,0.0,0.0,0.0,0.0,0.0,0.0,0.0,0.0,0.0,0.0,0.0,0.0,0.0,0.0,0.0,0.0,0.0,0.0,0.0,0.0,0.0,0.0,0.0,0.0,0.0,0.0,0.0,0.0,0.0,0.0,0.0,0.0,0.0,0.0,0.0,0.0,0.0,0.0,0.0,0.0,0.0,0.0,0.0,0.0,0.0,0.0,0.0,0.0,0.0,0.0,0.0,0.0,0.0,0.0,0.0,0.0,0.0,0.0,0.0,0.0,0.0,-2.7171,-2.9146,-3.2736,-3.4562,-3.5519,-3.5519,-3.3035,-3.0943,-2.9681,-2.7675,0.0,0.0,0.0,0.0,0.0,0.0,0.0,0.0,0.0,0.0,0.0,0.0,0.0,0.0,0.0,0.0,0.0,0.0,0.0,0.0,0.0,0.0,0.0,0.0,0.0,0.0,0.0,0.0,0.0,0.0,0.0,0.0,0.0,0.0,0.0,0.0,0.0,0.0,0.0,0.0,0.0,0.0,0.0,0.0,0.0,0.0,0.0,0.0,0.0,0.0,0.0,0.0,0.0,0.0,0.0,0.0,0.0,0.0,0.0,0.0,0.0,0.0,0.0,0.0,0.0,0.0,0.0,0.0,0.0,0.0,0.0,0.0,0.0,0.0,0.0,0.0,0.0,0.0,0.0,0.0,0.0,0.0,0.0,0.0,0.0,0.0,0.0,0.0,0.0,0.0,0.0,0.0,0.0,0.0,0.0,0.0,0.0,0.0,0.0,0.0,0.0,0.0,-2.9295,-3.1029,-3.4174,-3.51,-3.5429,-3.528,-3.2946,-3.0883,-2.9445,-2.6991,0.0,0.0,0.0,0.0,0.0,0.0,0.0,0.0,0.0,0.0,0.0,0.0,0.0,0.0,0.0,0.0,0.0,0.0,0.0,0.0,0.0,0.0,0.0,0.0,0.0,0.0,0.0,0.0,0.0,0.0,0.0,0.0,0.0,0.0,0.0,0.0,0.0,0.0,0.0,0.0,0.0,0.0,0.0,0.0,0.0,0.0,0.0,0.0,0.0,0.0,0.0,0.0,0.0,0.0,0.0,0.0,0.0,0.0,0.0,0.0,0.0,0.0,0.0,0.0,0.0,0.0,0.0,0.0,0.0,0.0,0.0,0.0,0.0,0.0,0.0,0.0,0.0,0.0,0.0,0.0,0.0,0.0,0.0,0.0,0.0,0.0,0.0,0.0,0.0,0.0,0.0,0.0,0.0,0.0,0.0,0.0,0.0,0.0,0.0,0.0,0.0,0.0,-2.9602,-3.148,-3.4204,-3.51,-3.525,-3.4623,-3.2706,-3.0673,-2.8786,-2.6752,0.0,0.0,0.0,0.0,0.0,0.0,0.0,0.0,0.0,0.0,0.0,0.0,0.0,0.0,0.0,0.0,0.0,0.0,0.0,0.0,0.0,0.0,0.0,0.0,0.0,0.0,0.0,0.0,0.0,0.0,0.0,0.0,0.0,0.0,0.0,0.0,0.0,0.0,0.0,0.0,0.0,0.0,0.0,0.0,0.0,0.0,0.0,0.0,0.0,0.0,0.0,0.0,0.0,0.0,0.0,0.0,0.0,0.0,0.0,0.0,0.0,0.0,0.0,0.0,0.0,0.0,0.0,0.0,0.0,0.0,0.0,0.0,0.0,0.0,0.0,0.0,0.0,0.0,0.0,0.0,0.0,0.0,0.0,0.0,0.0,0.0,0.0,0.0,0.0,0.0,0.0,0.0,0.0,0.0,0.0,0.0,0.0,0.0,0.0,0.0,0.0,0.0,-3.014,-3.1689,0.0,-3.534,-3.522,-3.4563,-3.2258,-3.0223,-2.8697,0.0,0.0,0.0,0.0,0.0,0.0,0.0,0.0,0.0,0.0,0.0,0.0,0.0,0.0,0.0,0.0,0.0,0.0,0.0,0.0,0.0,0.0,0.0,0.0,0.0,0.0,0.0,0.0,0.0,0.0,0.0,0.0,0.0,0.0,0.0,0.0,0.0,0.0,0.0,0.0,0.0,0.0,0.0,0.0,0.0,0.0,0.0,0.0,0.0,0.0,0.0,0.0,0.0,0.0,0.0,0.0,0.0,0.0,0.0,0.0,0.0,0.0,0.0,0.0,0.0,0.0,0.0,0.0,0.0,0.0,0.0,0.0,0.0,0.0,0.0,0.0,0.0,0.0,0.0,0.0,0.0,0.0,0.0,0.0,0.0,0.0,0.0,0.0,0.0,0.0,0.0,0.0,0.0,0.0,0.0,0.0,0.0,0.0,0.0,0.0,0.0,0.0,-2.9826,-3.0589,-3.2018,0.0,-3.531,-3.4891,-3.4233,-3.1719,-2.9654,-2.8338,0.0,0.0,0.0,0.0,0.0,0.0,0.0,0.0,0.0,0.0,0.0,0.0,0.0,0.0,0.0,0.0,0.0,0.0,0.0,0.0,0.0,0.0,0.0,0.0,0.0,0.0,0.0,0.0,0.0,0.0,0.0,0.0,0.0,0.0,0.0,0.0,0.0,0.0,0.0,0.0,0.0,0.0,0.0,0.0,0.0,0.0,0.0,0.0,0.0,0.0,0.0,0.0,0.0,0.0,0.0,0.0,0.0,0.0,0.0,0.0,0.0,0.0,0.0,0.0,0.0,0.0,0.0,0.0,0.0,0.0,0.0,0.0,0.0,0.0,0.0,0.0,0.0,0.0,0.0,0.0,0.0,0.0,0.0,0.0,0.0,0.0,0.0,0.0,0.0,0.0,0.0,0.0,0.0,0.0,0.0,0.0,0.0,0.0,0.0,0.0,0.0,0.0,-2.9862,-3.0979,-3.2527,-3.522,-3.4891,-3.4234,-3.3544,-3.1091,-2.9022,0.0,0.0,0.0,0.0,0.0,0.0,0.0,0.0,0.0,0.0,0.0,0.0,0.0,0.0,0.0,0.0,0.0,0.0,0.0,0.0,0.0,0.0,0.0,0.0,0.0,0.0,0.0,0.0,0.0,0.0,0.0,0.0,0.0,0.0,0.0,0.0,0.0,0.0,0.0,0.0,0.0,0.0,0.0,0.0,0.0,0.0,0.0,0.0,0.0,0.0,0.0,0.0,0.0,0.0,0.0,0.0,0.0,0.0,0.0,0.0,0.0,0.0,0.0,0.0,0.0,0.0,0.0,0.0,0.0,0.0,0.0,0.0,0.0,0.0,0.0,0.0,0.0,0.0,0.0,0.0,0.0,0.0,0.0,0.0,0.0,0.0,0.0,0.0,0.0,0.0,0.0,0.0,0.0,0.0,0.0,0.0,0.0,0.0,0.0,0.0,0.0,0.0,0.0,-3.0364,-3.1217,-3.2527,-3.522,-3.4891,-3.4234,-3.3544,-3.0672,-2.8517,-2.7645,0.0,0.0,0.0,0.0,0.0,0.0,0.0,0.0,0.0,0.0,0.0,0.0,0.0,0.0,0.0,0.0,0.0,0.0,0.0,0.0,0.0,0.0,0.0,0.0,0.0,0.0,0.0,0.0,0.0,0.0,0.0,0.0,0.0,0.0,0.0,0.0,0.0,0.0,0.0,0.0,0.0,0.0,0.0,0.0,0.0,0.0,0.0,0.0,0.0,0.0,0.0,0.0,0.0,0.0,0.0,0.0,0.0,0.0,0.0,0.0,0.0,0.0,0.0,0.0,0.0,0.0,0.0,0.0,0.0,0.0,0.0,0.0,0.0,0.0,0.0,0.0,0.0,0.0,0.0,0.0,0.0,0.0,0.0,0.0,0.0,0.0,0.0,0.0,0.0,0.0,0.0,0.0,0.0,0.0,0.0,0.0,0.0,0.0,0.0,0.0,0.0,0.0,-3.0659,-3.1278,-3.2467,-3.522,-3.4651,-3.3933,-3.3514,-3.0223,-2.8034,-2.7615,0.0,0.0,0.0,0.0,0.0,0.0,0.0,0.0,0.0,0.0,0.0,0.0,0.0,0.0,0.0,0.0,0.0,0.0,0.0,0.0,0.0,0.0,0.0,0.0,0.0,0.0,0.0,0.0,0.0,0.0,0.0,0.0,0.0,0.0,0.0,0.0,0.0,0.0,0.0,0.0,0.0,0.0,0.0,0.0,0.0,0.0,0.0,0.0,0.0,0.0,0.0,0.0,0.0,0.0,0.0,0.0,0.0,0.0,0.0,0.0,0.0,0.0,0.0,0.0,0.0,0.0,0.0,0.0,0.0,0.0,0.0,0.0,0.0,0.0,0.0,0.0,0.0,0.0,0.0,0.0,0.0,0.0,0.0,0.0,0.0,0.0,0.0,0.0,0.0,0.0,0.0,0.0,0.0,0.0,0.0,0.0,0.0,0.0,0.0,0.0,0.0,0.0,-3.0719,-3.1219,-3.2348,-3.5188,-3.4292,-3.3484,-3.3484,-2.9951,-2.7675,-2.7585,0.0,0.0,0.0,0.0,0.0,0.0,0.0,0.0,0.0,0.0,0.0,0.0,0.0,0.0,0.0,0.0,0.0,0.0,0.0,0.0,0.0,0.0,0.0,0.0,0.0,0.0,0.0,0.0,0.0,0.0,0.0,0.0,0.0,0.0,0.0,0.0,0.0,0.0,0.0,0.0,0.0,0.0,0.0,0.0,0.0,0.0,0.0,0.0,0.0,0.0,0.0,0.0,0.0,0.0,0.0,0.0,0.0,0.0,0.0,0.0,-3.1518,0.0,0.0,0.0,0.0,0.0,0.0,0.0,0.0,0.0,0.0,0.0,0.0,0.0,0.0,0.0,0.0,0.0,0.0,0.0,0.0,0.0,0.0,0.0,0.0,0.0,0.0,0.0,0.0,0.0,0.0,0.0,0.0,0.0,0.0,0.0,0.0,0.0,0.0,0.0,0.0,0.0,-3.0485,-3.1131,-3.2318,-3.4964,-3.4198,-3.3484,-3.3484,-3.0342,-2.8158,-2.7615,0.0,0.0,0.0,0.0,0.0,0.0,0.0,0.0,0.0,0.0,0.0,0.0,0.0,0.0,0.0,0.0,0.0,0.0,0.0,0.0,0.0,0.0,0.0,0.0,0.0,0.0,0.0,0.0,0.0,0.0,0.0,0.0,0.0,0.0,0.0,0.0,0.0,0.0,0.0,0.0,0.0,0.0,0.0,0.0,0.0,0.0,0.0,0.0,0.0,0.0,0.0,0.0,0.0,0.0,0.0,0.0,0.0,0.0,0.0,0.0,0.0,-3.2258,0.0,0.0,0.0,0.0,0.0,0.0,0.0,0.0,0.0,0.0,0.0,0.0,0.0,0.0,0.0,0.0,0.0,0.0,0.0,0.0,0.0,0.0,0.0,0.0,0.0,0.0,0.0,0.0,0.0,0.0,0.0,0.0,0.0,0.0,0.0,0.0,0.0,0.0,0.0,0.0,-3.0894,-3.1425,-3.243,-3.4797,-3.4339,-3.3689,-3.3391,-3.0733,-2.8786,-2.8098,-2.6841,0.0,0.0,0.0,0.0,0.0,0.0,0.0,0.0,0.0,0.0,0.0,0.0,0.0,0.0,0.0,0.0,0.0,0.0,0.0,0.0,0.0,0.0,0.0,0.0,0.0,0.0,0.0,0.0,0.0,0.0,0.0,0.0,0.0,0.0,0.0,0.0,0.0,0.0,0.0,0.0,0.0,0.0,0.0,0.0,0.0,0.0,0.0,0.0,0.0,0.0,0.0,0.0,0.0,0.0,-3.6265,-3.6809,-3.7321,-3.7315,-3.6874,-3.5159,-3.38,-3.2835,0.0,0.0,0.0,0.0,0.0,0.0,0.0,0.0,0.0,0.0,0.0,0.0,0.0,0.0,0.0,0.0,0.0,0.0,0.0,0.0,0.0,0.0,0.0,0.0,0.0,-3.1102,-3.1073,0.0,0.0,0.0,0.0,0.0,0.0,0.0,0.0,0.0,0.0,0.0,0.0,-3.1419,-3.1889,-3.2713,-3.4659,-3.4475,-3.3921,-3.3237,-3.1214,-2.9535,-2.8667,-2.7051,-2.6213,0.0,0.0,0.0,0.0,0.0,0.0,0.0,0.0,0.0,0.0,0.0,0.0,0.0,0.0,0.0,0.0,0.0,0.0,0.0,0.0,0.0,0.0,0.0,0.0,0.0,0.0,0.0,0.0,0.0,0.0,0.0,0.0,-3.2418,-3.3087,0.0,0.0,0.0,0.0,0.0,0.0,0.0,0.0,0.0,0.0,0.0,0.0,0.0,0.0,-3.6814,-3.7296,-3.7645,-3.7783,-3.8926,-3.9237,-3.8841,-3.9441,-3.9673,-3.9567,-3.9324,0.0,-3.4109,-3.3634,0.0,0.0,0.0,0.0,0.0,0.0,0.0,0.0,0.0,0.0,0.0,0.0,0.0,0.0,0.0,0.0,0.0,0.0,0.0,0.0,0.0,0.0,-3.1626,-3.2581,-3.254,-3.2285,0.0,-3.0654,-2.9348,-2.8825,0.0,0.0,0.0,0.0,0.0,0.0,0.0,0.0,-3.1322,-3.2205,-3.3208,-3.4585,-3.441,-3.3921,-3.3237,-3.199,-3.0494,-2.8727,-2.8338,-2.747,-2.5794,-2.6752,0.0,0.0,0.0,0.0,0.0,0.0,0.0,0.0,0.0,0.0,0.0,0.0,0.0,0.0,0.0,0.0,0.0,0.0,0.0,0.0,0.0,0.0,0.0,0.0,0.0,0.0,0.0,0.0,0.0,-3.3069,-3.3377,-3.2935,-3.3342,-3.3272,0.0,0.0,0.0,0.0,0.0,0.0,0.0,0.0,0.0,-3.6312,-3.7045,-3.7726,-3.8376,-3.9334,-4.0176,-4.0902,-4.1453,-4.1947,-4.2382,-4.2324,-4.2295,-4.2295,-4.2295,-4.0931,-3.858,-3.6489,-3.5038,-3.4022,0.0,0.0,0.0,0.0,-3.2745,-3.31,-3.3551,-3.3502,0.0,0.0,0.0,0.0,0.0,0.0,0.0,0.0,0.0,0.0,0.0,0.0,0.0,-3.4233,-3.4276,-3.4022,-3.3674,-3.2629,-3.1496,0.0,-2.9755,-2.929,-2.9232,0.0,0.0,0.0,0.0,0.0,-3.1903,-3.2722,-3.3543,-3.4413,-3.4571,-3.4177,-3.3171,-3.2467,-3.139,-2.9774,-2.8637,-2.7799,-2.732,-2.7111,-2.6907,0.0,0.0,0.0,0.0,0.0,0.0,0.0,0.0,0.0,0.0,0.0,0.0,0.0,0.0,0.0,0.0,0.0,0.0,0.0,0.0,0.0,0.0,0.0,0.0,0.0,0.0,0.0,0.0,-3.4188,-3.449,-3.3085,-3.4055,-3.4243,0.0,0.0,0.0,0.0,0.0,0.0,-3.5619,-3.6838,-3.7912,-3.8725,-3.9857,-4.067,-4.1134,-4.2092,-4.3108,-4.4211,-4.4037,-4.4472,-4.5372,-4.4763,-4.4472,-4.4472,-4.4472,-4.3747,-4.2353,-3.9276,-3.736,-3.6264,-3.4985,-3.4254,-3.3964,-3.3964,-3.4283,-3.4758,-3.5037,-3.4931,-3.4666,-3.4843,0.0,-3.2691,-3.2346,0.0,0.0,0.0,0.0,-3.3151,-3.3823,-3.4312,-3.4806,-3.5479,-3.5654,-3.5479,-3.4806,-3.4283,-3.3561,0.0,-3.1264,-3.0713,-3.0393,0.0,0.0,0.0,0.0,-3.1702,-3.2629,-3.3325,-3.3877,-3.437,-3.4668,-3.4306,-3.3044,-3.2762,-3.202,-3.0556,-2.9146,-2.8513,-2.8846,-2.7889,-2.7449,-2.7705,0.0,0.0,0.0,0.0,0.0,0.0,0.0,0.0,0.0,0.0,0.0,0.0,0.0,0.0,0.0,0.0,0.0,0.0,0.0,0.0,0.0,0.0,0.0,0.0,0.0,0.0,0.0,0.0,0.0,-3.4029,-3.6014,0.0,0.0,0.0,0.0,-3.6125,-3.7862,-3.8966,-3.8957,-4.0176,-4.1424,-4.2673,-4.3398,-4.4618,-4.6372,-4.6459,-4.6882,-4.7521,-4.694,-4.6633,-4.6662,-4.6069,-4.5779,-4.5779,-4.5779,-4.5082,-4.3689,-4.1047,-3.9567,-3.887,-3.7622,-3.7447,-3.7912,-3.7912,-3.7941,-3.797,-3.8007,-3.7194,-3.6293,-3.6932,-3.5857,-3.4288,-3.4254,-3.3848,0.0,0.0,-3.4283,-3.4457,-3.5131,-3.5334,-3.5508,-3.6112,-3.6257,-3.6083,-3.5479,-3.5334,-3.4753,0.0,-3.1901,-3.164,-3.2249,0.0,-3.1613,-3.2249,-3.2919,-3.3387,-3.3445,-3.3964,-3.437,-3.4399,-3.4597,-3.4171,-3.2823,-3.2991,-3.2347,-3.0416,-3.0349,-3.0103,-2.9592,-2.9502,-2.9146,-2.8547,-2.8416,0.0,0.0,0.0,0.0,0.0,0.0,0.0,0.0,0.0,0.0,0.0,0.0,0.0,0.0,0.0,0.0,0.0,0.0,0.0,0.0,0.0,0.0,0.0,0.0,0.0,0.0,0.0,0.0,-3.5995,-3.7877,0.0,0.0,-3.7762,-3.8506,-3.8725,-4.0176,-4.1424,-4.2237,-4.3892,-4.5169,-4.604,-4.7114,-4.7811,-4.7996,-4.8449,-4.8566,-4.8391,-4.8159,-4.7996,-4.7967,-4.6969,-4.6505,-4.6475,-4.6069,-4.5634,-4.5111,-4.3747,-4.1831,-3.9683,-3.8841,-3.8405,-3.8202,-3.8202,-3.8463,-3.8841,-3.8841,-3.8551,-3.7999,-3.6983,-3.6199,-3.5473,-3.4661,-3.4545,-3.4782,-3.4985,-3.5328,-3.5793,-3.6431,-3.6606,-3.678,-3.7389,-3.7244,-3.6896,-3.6664,-3.6257,-3.5764,-3.5096,-3.379,-3.2716,-3.2542,-3.2278,-3.222,-3.2452,-3.3064,-3.3503,-3.3503,-3.4022,-3.4399,-3.4399,-3.4597,-3.4171,-3.2823,-3.2926,-3.2432,-3.0895,-3.0535,-3.0293,-3.0054,-2.964,-2.9282,-2.9074,-2.899,-2.853,0.0,0.0,0.0,0.0,0.0,0.0,0.0,0.0,0.0,0.0,0.0,0.0,0.0,0.0,0.0,0.0,0.0,0.0,0.0,0.0,0.0,0.0,0.0,0.0,0.0,0.0,-3.9199,-3.8763,-4.0724,-4.1551,-4.0303,-4.0931,-4.1802,-4.2615,-4.3718,-4.4792,-4.5866,-4.7317,-4.8333,-4.874,-4.9785,-5.0162,-4.9698,-5.0133,-5.0017,-4.9378,-4.9146,-4.8943,-4.8682,-4.7358,-4.6778,-4.6749,-4.6156,-4.575,-4.5518,-4.5053,-4.3515,-4.1337,-4.0728,-4.0089,-3.9509,-3.9509,-3.9799,-4.0147,-3.9915,-3.9828,-3.9596,-3.8086,-3.7447,-3.7157,-3.6519,-3.6489,-3.67,-3.67,-3.6954,-3.7331,-3.7564,-3.7622,-3.7709,-3.8115,-3.7883,-3.7564,-3.736,-3.6954,-3.6577,-3.6344,-3.5125,-3.3997,-3.3558,-3.3296,-3.3151,-3.3151,-3.3529,-3.3823,-3.3823,-3.4138,-3.4399,-3.4399,-3.453,-3.4072,-3.2727,-3.3006,-3.2601,-3.1072,-3.0925,-3.0804,-3.0654,-3.0182,-2.9916,-2.9972,-2.9681,-2.9099,-2.8261,0.0,0.0,0.0,0.0,0.0,0.0,0.0,0.0,0.0,0.0,0.0,0.0,0.0,0.0,0.0,0.0,0.0,0.0,0.0,0.0,0.0,0.0,0.0,-3.7776,-4.0581,-4.2548,-4.2276,-4.4454,-4.5489,-4.4327,-4.5314,-4.6563,-4.7811,-4.8478,-4.9088,-4.9727,-5.0394,-5.0793,-5.0793,-5.1352,-5.1672,-5.1643,-5.1643,-5.1323,-5.0685,-5.0017,-4.9378,-4.874,-4.7416,-4.6836,-4.6778,-4.6185,-4.5547,-4.4908,-4.4908,-4.456,-4.395,-4.3282,-4.2644,-4.2121,-4.2121,-4.2121,-4.2005,-4.1366,-4.1134,-4.1018,-4.035,-3.9741,-3.9363,-3.9915,-3.9683,-3.9218,-3.9218,-3.9218,-3.9073,-3.8405,-3.8231,-3.8231,-3.8202,-3.8202,-3.8057,-3.7447,-3.7331,-3.7157,-3.6489,-3.5851,-3.545,-3.5421,-3.4864,-3.4428,-3.4399,-3.4399,0.0,-3.4399,-3.4399,-3.4399,-3.4399,-3.4399,-3.3873,-3.2597,-3.3226,-3.2855,-3.0923,-3.1542,-3.1751,-3.1307,-3.1161,-3.1161,-3.1278,-3.0366,-2.9578,-2.8906,0.0,0.0,0.0,0.0,0.0,0.0,0.0,0.0,0.0,0.0,0.0,0.0,0.0,0.0,0.0,0.0,0.0,0.0,0.0,0.0,0.0,0.0,-4.0913,-4.0057,-4.1944,-4.3931,-4.5347,-4.6953,-4.7969,-4.813,-4.8885,-4.9698,-5.0511,-5.0714,-5.1091,-5.1781,-5.2013,-5.21,-5.21,-5.2659,-5.2775,-5.231,-5.231,-5.1991,-5.1352,-5.0714,-5.0307,-5.0104,-4.8798,-4.7956,-4.7491,-4.6853,-4.6214,-4.5605,-4.5605,-4.5227,-4.4589,-4.395,-4.3311,-4.2731,-4.2731,-4.2469,-4.2063,-4.1889,-4.1831,-4.1715,-4.1047,-4.0699,-4.0525,-4.0205,-3.9973,-3.9857,-3.9857,-3.9857,-3.9712,-3.9102,-3.8928,-3.8812,-3.8318,-3.8202,-3.8144,-3.7999,-3.7941,-3.7912,-3.7709,-3.7186,-3.646,-3.5566,-3.5247,-3.4951,-3.4486,-3.4399,0.0,-3.4399,-3.4399,-3.4399,-3.4399,-3.4399,-3.3873,-3.2597,-3.269,-3.2198,-3.0774,-3.0952,-3.1071,-3.0955,-3.0895,-3.0895,-3.0955,-3.0105,-2.9667,0.0,0.0,0.0,0.0,0.0,0.0,0.0,0.0,0.0,0.0,0.0,0.0,0.0,0.0,0.0,0.0,0.0,0.0,0.0,0.0,0.0,0.0,-4.2629,-4.4449,-4.4889,-4.5402,-4.6506,-4.8629,-4.9747,-5.0598,-5.1265,-5.1904,-5.2543,-5.3152,-5.2978,-5.3007,-5.3355,-5.3123,-5.2978,-5.2978,-5.3326,-5.3326,-5.2978,-5.2978,-5.263,-5.202,-5.1643,-5.1228,-5.0627,-4.9611,-4.8798,0.0,-4.7491,-4.7027,-4.665,-4.6388,-4.604,0.0,0.0,0.0,0.0,0.0,-4.2615,-4.2092,-4.2092,-4.2092,-4.2034,-4.1657,-4.1512,-4.1453,-4.1047,-4.0931,-4.0873,-4.0583,-4.0321,-4.0031,-3.9683,-3.9392,-3.9102,-3.8725,-3.8609,-3.8551,-3.826,-3.8202,-3.8202,-3.8202,-3.7912,0.0,-3.638,-3.577,-3.5276,-3.4864,-3.4574,-3.4399,-3.4399,-3.4399,-3.4399,-3.4399,-3.4399,-3.3873,-3.2597,-3.2774,0.0,0.0,0.0,-3.0979,-3.0746,-3.0776,0.0,0.0,0.0,-3.0075,-3.0163,0.0,0.0,0.0,-2.6873,-2.5773,0.0,0.0,0.0,0.0,0.0,0.0,0.0,0.0,0.0,0.0,0.0,0.0,0.0,0.0,0.0,0.0,-4.6288,-4.8152,-5.0755,-5.0047,-4.9958,-5.1827,-5.2485,-5.3036,-5.3675,-5.4342,-5.4981,-5.5591,-5.5126,-5.4836,-5.4836,0.0,0.0,0.0,0.0,-5.3588,-5.35,-5.35,-5.3239,-5.2688,-5.2652,-5.1984,-5.0772,-5.0133,-4.9436,-4.8682,-4.813,-4.7811,-4.7637,-4.7056,-4.6749,-4.6546,-4.5372,-4.456,-4.4008,-4.3253,-4.2644,-4.2179,-4.2121,0.0,0.0,-4.2092,-4.2092,-4.2092,-4.2092,-4.2092,-4.1976,-4.1366,-4.0786,-4.0321,-4.0234,-3.9828,-3.9392,-3.9334,-3.9305,-3.9131,-3.8551,-3.8347,-3.8318,-3.8318,-3.826,-3.8028,-3.7506,-3.6402,-3.5595,-3.5508,-3.498,-3.4603,-3.4516,-3.4516,-3.4486,-3.4428,0.0,0.0,-3.2716,-3.3064,-3.2632,-3.083,-3.1148,-3.1148,-3.0627,-3.0687,-3.0717,-3.0598,-3.0598,-3.0598,-3.0598,-3.0598,-2.9901,-2.8465,-2.687,-2.5671,0.0,0.0,0.0,0.0,0.0,0.0,0.0,0.0,0.0,0.0,0.0,0.0,0.0,0.0,0.0,-4.6824,-4.9449,-5.1905,-5.3547,-5.3547,-5.3483,-5.3914,-5.4047,-5.4371,-5.4981,-5.5649,-5.6287,-5.6897,-5.6839,-5.6781,-5.6781,-5.6171,0.0,-5.4342,-5.4313,-5.4052,-5.353,-5.35,-5.3442,-5.3326,0.0,0.0,-5.141,-5.0772,-4.9843,-4.8663,-4.8595,-4.7956,-4.6952,-4.6836,-4.6534,-4.5982,-4.5198,-4.4821,-4.4589,-4.3427,-4.2905,-4.276,-4.2266,-4.2092,-4.2092,-4.2092,-4.2092,-4.2092,-4.2092,-4.2092,0.0,-4.1947,-4.1802,-4.1599,-4.1047,-4.0815,-4.0583,-4.006,-3.9915,-3.9886,-3.977,-3.9363,-3.9015,-3.9015,-3.858,-3.8173,-3.8057,-3.7418,-3.6751,-3.6199,-3.6025,-3.5764,-3.5276,-3.5218,-3.498,-3.4457,-3.4399,-3.4109,-3.3387,-3.2919,-3.2309,-3.138,-3.0974,-3.0743,-3.0598,-3.0598,-3.0628,-3.0598,-3.0598,-3.0598,-3.0598,-3.0598,-2.9901,-2.8492,-2.812,-2.7091,0.0,0.0,0.0,0.0,0.0,0.0,0.0,0.0,0.0,0.0,0.0,-4.4283,0.0,0.0,-4.9667,-5.1309,-5.2885,-5.451,-5.6197,-5.6113,-5.5678,-5.5039,-5.5271,-5.5591,-5.5881,-5.649,-5.7129,-5.7768,-5.7507,-5.7303,-5.7303,-5.7013,-5.6142,-5.4575,-5.4807,-5.4487,-5.353,-5.35,-5.35,-5.35,-5.3181,-5.2543,-5.1614,-5.1294,-5.0423,-4.9175,-4.8856,-4.8315,-4.7677,-4.7039,-4.6446,-4.5866,-4.5518,-4.5198,-4.4763,-4.3834,-4.3282,-4.2905,-4.2295,-4.2092,-4.2092,-4.2092,-4.2092,-4.2092,-4.2092,-4.2092,-4.2092,-4.2092,-4.186,-4.1599,-4.1599,-4.1337,-4.1018,-4.067,-4.0583,-4.0495,-4.0176,-3.9625,-3.9189,-3.9189,-3.8667,-3.8202,-3.8202,-3.7941,-3.7535,-3.6896,-3.6519,-3.6199,-3.588,-3.5595,-3.5276,-3.4922,-3.4603,-3.4167,-3.3561,-3.2571,-3.1843,-3.1495,-3.0916,-3.0598,-3.0598,-3.0598,-3.0598,-3.0598,-3.0598,-3.0598,-3.0598,-3.0598,-3.0054,-2.9062,-2.9062,-2.7969,0.0,0.0,0.0,0.0,0.0,0.0,0.0,0.0,-4.3453,-4.5001,-4.6849,-4.8576,-4.9889,-5.147,-5.3301,-5.5322,-5.5942,-5.6752,-5.8435,-5.8,-5.7071,-5.591,-5.6258,-5.6549,-5.6432,-5.6955,-5.7594,-5.8261,-5.7797,-5.7507,-5.7507,-5.7507,-5.6636,-5.4749,-5.5155,-5.4807,-5.353,-5.35,-5.35,-5.35,-5.35,-5.2833,-5.1614,-5.1614,-5.0917,-4.9688,-4.8885,-4.8537,-4.8449,-4.7172,-4.6359,-4.5895,-4.5895,-4.5547,-4.4995,-4.4385,-4.3747,-4.3108,-4.2498,-4.2208,-4.2092,-4.2092,-4.2092,-4.2092,-4.2092,-4.2092,-4.2092,-4.2092,-4.1715,-4.1424,-4.1947,-4.1686,-4.1279,-4.1279,-4.1279,-4.1134,-4.0612,-4.0002,-3.9567,-3.9567,-3.8928,-3.8405,-3.8405,-3.8289,-3.8028,-3.7564,-3.7012,-3.6635,-3.6519,-3.6054,-3.5683,-3.5421,-3.4893,-3.4283,-3.3561,-3.2513,-3.1845,-3.1698,-3.1119,-3.0772,-3.0772,-3.0656,-3.0598,-3.0598,-3.0598,-3.0598,-3.0598,-3.0598,-3.0176,-2.9376,-2.9376,-2.8422,-3.8428,-3.7954,-3.8111,-4.0514,-4.0356,-4.1051,0.0,0.0,-4.8636,-5.0658,-5.2164,-5.2771,-5.1744,-5.3942,-5.606,-5.6246,-5.7766,-5.9132,-5.9887,-5.8958,-5.7913,-5.7187,-5.7158,-5.6984,-5.6461,-5.6955,-5.7594,-5.8261,-5.8232,-5.8203,-5.8203,-5.8203,-5.7303,-5.5358,-5.5358,-5.4807,-5.353,-5.35,-5.35,-5.35,-5.35,-5.2833,-5.1614,-5.1614,-5.0917,-4.9611,-4.842,-4.7898,-4.7782,-4.6505,-4.5953,-4.5895,-4.5895,-4.5837,-4.5692,-4.5024,-4.4414,-4.3776,-4.3137,-4.2557,-4.2092,-4.2092,-4.2092,-4.2092,-4.2092,-4.2092,-4.2092,-4.2092,-4.2034,-4.2005,-4.2063,-4.2034,-4.1976,-4.1976,-4.1976,-4.1976,-4.1889,-4.1366,-4.0873,-4.0873,-3.9915,-3.9102,-3.9102,-3.858,-3.8173,-3.8115,-3.8028,-3.7796,-3.7273,-3.7128,-3.6635,-3.5508,-3.5334,-3.4811,-3.359,-3.3358,-3.3006,-3.2454,-3.1787,-3.1409,-3.1409,-3.0858,-3.0598,-3.0598,-3.0598,-3.0598,-3.0598,-3.0598,-2.9931,-2.862,-2.862,-2.8195,-3.9724,-4.0103,0.0,0.0,-4.4211,-4.636,-4.9394,-5.1353,-5.2902,-5.4166,-5.6109,-5.7183,-5.5579,-5.7329,-5.8673,0.0,-5.8203,-5.8958,-5.9597,-5.7913,-5.6374,-5.5765,-5.5329,-5.5445,-5.6316,-5.6636,-5.7216,-5.8232,-5.7942,-5.771,-5.771,-5.771,-5.7013,-5.5445,-5.5416,-5.4981,-5.411,-5.3704,-5.35,-5.35,-5.35,-5.2833,-5.1614,-5.1614,-5.0511,-4.8537,-4.8014,-4.7346,-4.6621,-4.6098,-4.5895,-4.5895,-4.5895,-4.5895,-4.5808,-4.514,-4.4501,-4.3892,-4.3224,-4.2586,-4.2092,-4.2092,-4.2092,-4.2092,-4.2092,-4.2092,-4.2092,-4.2092,-4.2092,-4.2092,-4.2092,-4.2092,-4.2092,-4.2092,-4.2092,-4.2092,-4.2092,-4.157,-4.1105,-4.1105,-4.035,-3.9625,-3.9247,-3.8957,-3.8638,-3.826,-3.8202,-3.8115,-3.7854,-3.7535,-3.6809,-3.5537,-3.5392,-3.5043,-3.408,-3.3707,-3.3387,-3.3093,-3.2454,-3.1901,-3.1526,-3.1264,-3.0945,-3.0627,-3.0598,-3.0598,-3.0598,-3.0598,-3.0326,-2.9687,-2.9314,-2.8776,-4.0767,0.0,0.0,-4.5317,-4.8415,-5.1512,-5.3155,-5.5114,-5.6852,-5.7958,-5.9286,-5.9773,-5.8369,-5.9085,0.0,-5.8227,-5.8174,-5.8406,-5.8726,-5.6839,-5.5068,-5.4081,-5.3239,-5.3297,-5.4691,-5.53,-5.6142,-5.7419,-5.6897,-5.6752,-5.7274,-5.7158,-5.6549,-5.5445,-5.5416,-5.5039,-5.4255,-5.3762,-5.3442,-5.3239,-5.3239,-5.2572,-5.1352,-5.1178,-4.9959,-4.8043,-4.784,-4.7172,-4.6127,-4.5953,-4.5895,-4.5895,-4.5895,-4.5895,-4.5837,-4.5343,-4.4676,-4.3921,-4.3427,-4.276,-4.2092,-4.2092,-4.2092,-4.2092,-4.2092,-4.2092,-4.2092,-4.2092,-4.2092,-4.2092,-4.2092,-4.2092,-4.2092,-4.2092,-4.2092,-4.2092,-4.2092,-4.1715,-4.1366,-4.1366,-4.0815,-4.0234,-3.9799,-3.9421,-3.9044,-3.8551,-3.8318,-3.8202,-3.8202,-3.768,-3.6954,-3.6031,-3.5625,-3.5218,-3.4719,-3.408,-3.3765,-3.3765,-3.3122,-3.2483,-3.1785,-3.1582,-3.1235,-3.0627,-3.0598,-3.0598,-3.0598,-3.0598,-3.0507,-3.0326,-2.9839,-2.9093,0.0,0.0,-4.5634,-4.9742,-5.2365,-5.5019,-5.9096,-6.0076,-6.0739,-6.2825,-6.1628,-5.9838,-5.904,-5.8211,-5.7651,-5.7384,-5.7884,-5.8087,-5.7448,-5.6229,-5.472,-5.2914,-5.1577,-5.0772,0.0,-5.2514,-5.4139,-5.5387,-5.4952,-5.5387,-5.7216,-5.6752,-5.6113,-5.5416,-5.5416,-5.4807,-5.3559,-5.353,-5.321,-5.2652,-5.2652,-5.1984,-5.0685,-5.0017,-4.9349,-4.8653,-4.8043,-4.7404,-4.672,-4.6127,-4.5895,-4.5895,-4.5895,-4.5895,-4.5895,-4.5866,-4.5053,-4.3979,-4.3979,-4.3137,-4.2092,-4.2092,-4.2092,-4.2092,-4.2092,-4.2092,-4.2092,-4.2092,-4.2092,-4.2092,-4.2092,-4.2092,-4.2092,-4.2092,-4.2092,-4.2092,-4.2092,-4.2092,-4.2063,-4.2063,-4.1541,-4.1047,-4.1047,-4.0031,-3.9189,-3.9189,-3.8609,-3.8202,-3.8202,-3.768,-3.7302,-3.7244,-3.6148,-3.5392,-3.5363,-3.4748,-3.437,-3.437,-3.379,-3.3184,-3.2513,-3.1843,-3.1235,-3.0627,-3.0598,-3.0598,-3.0598,-3.0598,-3.0266,-2.9623,-2.9623,-2.8839,0.0,0.0,-5.1069,-5.4324,-5.7042,-5.9538,-6.1877,-6.2762,-6.2738,-6.1596,-5.9755,-5.7479,-5.4737,-5.3674,-5.3296,-5.3512,-5.4807,-5.5707,-5.5474,-5.5068,-5.3791,-5.1004,-5.0307,0.0,0.0,0.0,0.0,-5.3442,-5.3326,-5.4052,-5.5939,-5.5474,-5.5445,-5.6055,-5.5242,-5.4604,-5.4168,-5.3326,-5.2775,-5.2623,-5.1751,-5.1091,-5.0627,-4.9553,-4.8682,-4.8072,-4.7433,-4.6795,-4.6185,-4.5982,-4.5895,-4.5895,-4.5895,-4.5895,-4.5895,-4.5895,-4.5343,-4.4531,-4.4124,-4.3166,-4.2092,-4.2092,-4.2092,-4.2092,-4.2092,-4.2092,-4.2092,-4.2092,-4.2092,-4.2092,-4.2092,-4.2092,-4.2092,-4.2092,-4.2092,-4.2092,-4.2092,-4.2092,-4.2092,-4.2092,-4.1918,-4.1628,-4.1163,-4.0379,-3.9509,-3.8667,-3.8347,-3.8202,-3.8202,-3.8028,-3.7738,-3.736,-3.6519,-3.5822,-3.5421,-3.4777,-3.4399,-3.4399,-3.4225,-3.3819,-3.3213,-3.2513,-3.1874,-3.1206,-3.0801,-3.0598,-3.0598,-3.0598,-3.0477,-3.0266,-2.9314,-2.8871,-4.8351,-5.1922,-5.5367,-5.8654,-6.1182,-6.3173,-6.4342,-6.4152,-6.3085,-6.0782,-5.7745,-5.4606,-5.1437,-4.9823,-4.9156,-4.9815,-5.1149,-5.2339,-5.3036,-5.2949,-5.2136,-5.0278,-4.964,0.0,0.0,0.0,0.0,-5.1788,-5.2362,-5.3413,-5.53,-5.5271,-5.5445,-5.6026,-5.5271,-5.4604,-5.4168,-5.3326,-5.2688,-5.2223,-5.0917,-5.0191,-4.9959,-4.9117,-4.8246,-4.7404,-4.6998,-4.6475,-4.5895,-4.5895,-4.5895,-4.5895,-4.5895,-4.5895,-4.5895,-4.5895,-4.5459,-4.4792,-4.4211,-4.3311,-4.2382,-4.2179,-4.2092,-4.2092,-4.2092,-4.2092,-4.2092,-4.2092,-4.2092,-4.2092,-4.2092,-4.2092,-4.2092,-4.2092,-4.2092,-4.2092,-4.2092,-4.2092,-4.2092,-4.2092,-4.2092,-4.1947,-4.1541,-4.0699,-3.9741,-3.8725,-3.8347,-3.8202,-3.8202,-3.8202,-3.8057,-3.768,-3.7041,-3.6402,-3.5799,-3.5125,-3.4661,-3.4428,-3.4399,-3.4138,-3.3532,-3.2861,-3.2162,-3.1495,-3.0887,-3.0598,-3.0598,-3.0598,-3.0598,-3.0568,-2.9656,-2.9376,-5.1195,-5.4893,-5.8559,-6.2604,-6.4595,-6.5701,-6.627,-6.4216,-6.1733,-6.0107,-5.5552,-5.1196,0.0,0.0,-4.5332,-4.645,-4.7346,-4.8566,-5.0481,-5.0336,-5.0191,0.0,0.0,0.0,0.0,0.0,0.0,-5.0627,0.0,-5.3355,-5.53,-5.6055,-5.6142,-5.5533,-5.5445,-5.4807,-5.3588,-5.35,-5.2833,-5.1556,-5.0307,-4.9378,-4.8769,-4.8663,-4.7967,-4.6836,-4.6749,-4.6446,-4.5895,-4.5895,-4.5895,-4.5895,-4.5895,-4.5895,-4.5895,-4.5895,-4.5488,-4.485,-4.424,-4.3573,-4.2905,-4.2324,-4.2121,-4.2092,-4.2092,-4.2092,-4.2092,-4.2092,-4.2092,-4.2092,-4.2092,-4.2092,-4.2092,-4.2092,-4.2092,-4.2092,-4.2092,-4.2092,-4.2092,-4.2092,-4.2092,-4.2092,-4.2063,-4.0989,-3.9915,-3.9305,-3.8667,-3.8231,-3.8202,-3.8202,-3.8202,-3.8202,-3.768,-3.7041,-3.6402,-3.577,-3.5131,-3.4486,-3.4428,-3.4138,-3.3561,-3.2919,-3.2251,-3.1553,-3.0945,-3.0627,-3.0598,-3.0598,-3.0598,-3.0598,-3.0568,-3.0235,-5.5683,-5.9602,-6.3046,-6.4626,-6.5342,-6.5195,-6.3805,-6.134,-5.8106,-5.3647,-4.9312,-4.5331,0.0,0.0,0.0,-4.4371,-4.723,0.0,-5.1868,-5.3181,0.0,0.0,0.0,-5.1033,-4.9582,-4.9872,0.0,0.0,-5.1672,-5.2891,-5.5271,-5.6055,-5.6549,-5.681,-5.591,-5.5039,-5.4255,-5.3297,-5.2165,-5.0917,-5.0569,-5.0075,-4.9407,-4.8449,-4.784,-4.7491,-4.6534,-4.604,-4.5895,-4.5895,-4.5895,-4.5895,-4.5895,-4.5895,-4.5895,-4.5895,-4.5779,-4.5547,-4.4879,-4.3921,-4.2963,-4.2818,-4.2469,-4.2092,-4.2092,-4.2092,-4.2092,-4.2092,-4.2092,-4.2092,-4.2092,-4.2092,-4.2092,-4.2092,-4.2092,-4.2092,-4.2092,-4.2092,-4.2092,-4.2092,-4.2092,-4.1947,-4.1424,-4.1076,-4.0466,-3.9363,-3.9044,-3.8754,-3.826,-3.8202,-3.8202,-3.8202,-3.768,-3.7244,-3.707,-3.6025,-3.5334,-3.516,-3.469,-3.4341,-3.4196,-3.3558,-3.2919,-3.2249,-3.1613,-3.1032,-3.0598,-3.0598,-3.0598,-3.0598,-3.0085,-3.0023,-5.9222,-6.2477,-6.5132,-6.5859,-6.5322,-6.3931,-6.1213,-5.8211,-5.4529,-4.9336,-4.5141,0.0,0.0,0.0,0.0,0.0,0.0,0.0,-5.0967,-5.2484,-5.3326,0.0,-5.3123,0.0,-5.1875,-5.2136,-5.2397,0.0,-5.2717,-5.3617,-5.5329,-5.6287,-5.6694,-5.649,-5.5533,-5.4575,-5.3675,-5.2659,-5.1788,-5.1091,-5.0511,-4.9756,-4.8827,-4.8101,-4.7462,-4.6911,0.0,-4.5895,-4.5895,-4.5895,-4.5895,-4.5895,-4.5895,-4.5895,-4.5895,-4.5895,-4.5692,-4.5401,-4.5024,-4.424,-4.3369,-4.3079,-4.2586,-4.2092,-4.2092,-4.2092,-4.2092,-4.2092,-4.2092,-4.2092,-4.2092,-4.2092,-4.2092,-4.2092,-4.2092,-4.2092,-4.2092,-4.2092,-4.2092,-4.2092,-4.2092,-4.1976,-4.1599,-4.1279,-4.0757,-3.9741,-3.9363,-3.8957,-3.8289,-3.8202,-3.8202,-3.8202,-3.7912,-3.7593,-3.7331,-3.6635,-3.6002,-3.5421,-3.5072,-3.4719,-3.4428,-3.379,-3.3329,-3.2948,-3.228,-3.1642,-3.0974,-3.0974,-3.0858,-3.0598,-3.0235,-3.0054,-6.2098,-6.4247,-6.5859,-6.6459,-6.4879,-6.2256,-5.8685,-5.4976,-5.0884,-4.5924,0.0,-3.9165,-3.7785,0.0,-3.6983,-3.9102,0.0,-4.5372,-4.9378,-5.0569,-5.2136,-5.5068,-5.4517,-5.4081,-5.4575,-5.4575,-5.4342,-5.3936,-5.4342,-5.4865,-5.5387,-5.6549,-5.6549,-5.5184,-5.4749,-5.3878,-5.2623,-5.1933,-5.1614,-5.1614,-5.0394,-4.9146,-4.7898,-4.7811,-4.7143,-4.6011,0.0,0.0,-4.5895,-4.5895,-4.5895,-4.5895,-4.5895,-4.5895,-4.5895,-4.5895,-4.5518,-4.4995,-4.4908,-4.4501,-4.3892,-4.3224,-4.2644,-4.2208,-4.2121,-4.2092,-4.2092,-4.2092,-4.2092,-4.2092,-4.2092,-4.2092,-4.2092,-4.2092,-4.2092,-4.2092,-4.2092,-4.2092,-4.2092,-4.2092,-4.2092,-4.2092,-4.2092,-4.1628,-4.096,-4.0205,-3.9654,-3.9044,-3.8289,-3.8202,-3.8202,-3.8202,-3.8202,-3.7999,-3.7476,-3.736,-3.678,-3.5595,-3.545,-3.5101,-3.4428,-3.3877,-3.359,-3.3503,-3.2919,-3.2309,-3.1611,-3.1524,-3.1235,-3.0743,-3.0656,-3.0296,-6.4279,-6.5701,-6.6459,-6.6586,-6.4152,-6.0676,-5.6599,-5.1748,0.0,0.0,0.0,-3.6484,-3.5272,-3.5729,0.0,-4.0292,0.0,0.0,0.0,0.0,-5.3617,0.0,0.0,0.0,0.0,0.0,0.0,0.0,0.0,0.0,-5.5416,-5.6142,-5.5736,-5.3907,-5.4284,-5.3878,-5.2623,-5.1933,-5.1614,-5.1614,-5.0859,-4.9814,-4.8537,-4.8014,-4.7375,-4.665,0.0,0.0,-4.5895,-4.5895,-4.5895,-4.5895,-4.5895,-4.5895,-4.5895,-4.5895,-4.5808,-4.5634,-4.5082,-4.4501,-4.3892,-4.3224,-4.2934,-4.2731,-4.2237,-4.2092,-4.2092,-4.2092,-4.2092,-4.2092,-4.2092,-4.2092,-4.2092,-4.2092,-4.2092,-4.2092,-4.2092,-4.2092,-4.2092,-4.2092,-4.2092,-4.2092,-4.2092,-4.2005,-4.1512,-4.0292,-4.0002,-3.9509,-3.8347,-3.8202,-3.8202,-3.8202,-3.8202,-3.8173,-3.8057,-3.7593,-3.6983,-3.6199,-3.5683,-3.5101,-3.4428,-3.4312,-3.3993,-3.3503,-3.3387,-3.2977,-3.2338,-3.1756,-3.1437,-3.1351,-3.0829,-3.0538,-6.4911,-6.608,-6.6428,-6.5701,-6.2604,-5.8418,-5.3235,0.0,0.0,0.0,0.0,-3.5492,-3.4898,0.0,0.0,0.0,0.0,0.0,0.0,0.0,0.0,0.0,0.0,0.0,0.0,0.0,0.0,0.0,0.0,0.0,-5.6374,-5.6403,-5.5358,-5.3094,-5.3646,-5.321,-5.1664,-5.1265,-5.112,-5.112,-5.0452,-4.9494,-4.8217,-4.7927,-4.7259,-4.633,-4.6011,0.0,-4.5895,-4.5895,-4.5895,-4.5895,-4.5895,-4.5895,-4.5895,-4.5895,-4.5663,-4.5285,-4.4647,-4.424,-4.3834,-4.2847,-4.2528,-4.2469,-4.2179,-4.2092,-4.2092,-4.2092,-4.2092,-4.2092,-4.2092,-4.2324,-4.2557,-4.2557,-4.2557,-4.2469,-4.2179,-4.2092,-4.2092,-4.2092,-4.2092,-4.2092,-4.2092,-4.2092,-4.1773,-4.0757,-4.0321,-3.977,-3.8841,-3.8405,-3.8202,-3.8202,-3.8202,-3.8202,-3.8202,-3.7941,-3.7506,-3.6867,-3.6199,-3.5561,-3.4922,-3.4603,-3.4254,-3.3964,-3.3964,-3.3645,-3.3006,-3.2367,-3.1843,-3.1466,-3.0858,-3.0206,-6.4784,-6.5954,-6.627,-6.4879,-6.1053,-5.614,-5.0486,-4.5525,0.0,0.0,-3.5365,-3.5037,-3.5037,0.0,0.0,0.0,0.0,0.0,0.0,0.0,0.0,0.0,0.0,0.0,0.0,0.0,0.0,0.0,0.0,0.0,-5.6897,-5.6316,-5.4894,-5.2455,-5.2862,-5.2339,-5.0734,-5.0589,-5.0502,-5.0452,-4.9785,-4.8798,-4.7579,-4.7579,-4.6969,-4.5895,-4.5895,0.0,0.0,-4.5895,-4.5895,-4.5895,-4.5895,-4.5895,-4.5895,-4.5895,-4.5547,-4.5024,-4.4385,-4.4182,-4.4008,-4.2876,-4.2498,-4.244,-4.2179,-4.2179,-4.2295,-4.2295,-4.2208,-4.215,-4.244,-4.2731,-4.3021,-4.3166,-4.3079,-4.2847,-4.2382,-4.2295,-4.2237,-4.2121,-4.2092,-4.2092,-4.2092,-4.2092,-4.186,-4.1192,-4.0641,-4.0089,-3.9479,-3.8928,-3.8551,-3.8434,-3.8289,-3.8202,-3.8202,-3.8202,-3.7941,-3.7331,-3.6809,-3.617,-3.5421,-3.4893,-3.4545,-3.4399,-3.4399,-3.4167,-3.3707,-3.3035,-3.2454,-3.1932,-3.1148,-3.0131,-6.4058,-6.5606,-6.627,-6.4879,-6.0007,-5.4456,-5.0185,0.0,0.0,0.0,-3.4868,-3.4467,-3.4467,-3.4549,0.0,0.0,0.0,0.0,0.0,0.0,0.0,0.0,0.0,0.0,0.0,0.0,0.0,0.0,0.0,0.0,0.0,-5.501,-5.3762,-5.1759,-5.1759,-5.1439,-5.0685,-5.0124,-4.9785,-4.9814,-4.9117,-4.8112,-4.6865,-4.6865,-4.6534,-4.5895,0.0,0.0,0.0,-4.5895,-4.5895,-4.5895,-4.5895,-4.5895,-4.5895,-4.5895,-4.5837,-4.5692,-4.5024,-4.4821,-4.4705,-4.4037,-4.3805,-4.3602,-4.244,-4.2469,-4.2905,-4.2905,-4.2528,-4.2353,-4.3515,-4.3398,-4.3137,-4.3747,-4.3427,-4.2963,-4.2934,-4.2905,-4.276,-4.2208,-4.2092,-4.2092,-4.2092,-4.2092,-4.186,-4.1192,-4.1047,-4.0757,-4.0089,-3.9973,-3.9712,-3.916,-3.858,-3.8202,-3.8202,-3.8202,-3.7941,-3.7331,-3.7244,-3.6664,-3.545,-3.5334,-3.5009,-3.4428,-3.4399,-3.437,-3.4341,-3.3703,-3.3387,-3.33,-3.2019,-3.1005,-6.1719,-6.3575,-6.4121,-6.239,-5.7597,-5.2044,-4.728,0.0,0.0,-3.5242,-3.4534,-3.4399,-3.4399,-3.4399,-3.4661,0.0,0.0,0.0,0.0,0.0,0.0,0.0,0.0,0.0,0.0,0.0,0.0,0.0,0.0,0.0,0.0,-5.4778,-5.382,-5.1149,-5.141,-5.112,-5.0075,-4.9436,-4.9117,-4.9069,-4.8478,-4.7695,-4.6778,-4.6778,-4.6475,-4.5895,0.0,0.0,0.0,-4.5895,-4.5895,-4.5895,-4.5895,-4.5895,-4.5895,-4.5895,-4.5895,-4.5779,-4.5111,-4.4879,-4.4792,-4.4182,-4.3979,-4.3834,-4.2905,-4.3079,-4.3515,-4.3108,-4.3108,-4.334,-4.3863,-4.3805,-4.3747,-4.4385,-4.3747,-4.2992,-4.2992,-4.2702,-4.2382,-4.215,-4.2092,-4.2092,-4.2092,-4.2092,-4.2005,-4.1744,-4.1366,-4.0989,-4.0728,-4.035,-4.0002,-3.977,-3.9189,-3.8638,-3.8231,-3.8202,-3.8115,-3.7854,-3.7506,-3.6896,-3.5967,-3.5595,-3.5101,-3.4428,-3.4399,-3.4399,-3.4399,-3.3794,-3.33,-3.289,-3.1961,-3.0706,-5.8306,-6.0487,-6.1308,-5.9557,-5.4682,-4.9202,0.0,0.0,0.0,-3.4821,-3.4399,-3.4399,-3.4399,-3.4399,-3.4399,-3.4399,0.0,0.0,0.0,0.0,0.0,0.0,0.0,0.0,0.0,0.0,0.0,0.0,0.0,0.0,0.0,-5.3791,-5.3181,-5.0793,-5.0917,-5.0511,-4.9407,-4.8943,-4.8489,-4.8112,-4.7724,-4.7172,-4.6534,-4.6534,-4.6301,-4.5895,0.0,0.0,0.0,-4.5895,-4.5895,-4.5895,-4.5895,-4.5895,-4.5895,-4.5895,-4.594,-4.5943,-4.5432,-4.5258,-4.52,-4.4763,-4.4458,-4.4182,-4.3689,-4.3747,-4.3921,-4.3631,-4.4037,-4.4501,-4.4298,-4.4269,-4.4414,-4.5024,-4.4356,-4.3515,-4.3311,-4.2963,-4.2557,-4.2179,-4.2092,-4.2092,-4.2092,-4.2092,-4.2092,-4.2092,-4.1686,-4.1395,-4.1395,-4.0989,-4.0612,-4.0408,-3.9828,-3.9189,-3.8551,-3.8318,-3.8202,-3.8202,-3.7796,-3.7186,-3.6344,-3.588,-3.527,-3.4428,-3.4399,-3.4399,-3.4399,-3.3964,-3.3529,-3.3064,-3.2191,-3.0605,-5.3787,-5.621,-5.799,-5.6575,-5.1253,-4.5783,0.0,0.0,0.0,-3.4545,-3.4399,-3.4399,-3.4399,-3.4399,-3.4399,-3.4399,-3.4951,0.0,0.0,0.0,0.0,0.0,0.0,0.0,0.0,0.0,0.0,0.0,0.0,0.0,0.0,-5.1643,-5.1352,-5.0685,-5.0046,-4.9378,-4.874,-4.8663,-4.8054,-4.6807,-4.6807,-4.6505,-4.5895,-4.5895,-4.5895,0.0,0.0,0.0,0.0,-4.5895,-4.5895,-4.5895,-4.5895,-4.5895,-4.5895,-4.5895,-4.6001,-4.6225,-4.6195,-4.6195,-4.6195,-4.6195,-4.5579,-4.4879,-4.4879,-4.4472,-4.4124,-4.4705,-4.5343,-4.5721,-4.5053,-4.4879,-4.5053,-4.5721,-4.5372,-4.4705,-4.4124,-4.3979,-4.3602,-4.2324,-4.2092,-4.2092,-4.2092,-4.2092,-4.2092,-4.2092,-4.2092,-4.2092,-4.2092,-4.2092,-4.1831,-4.1163,-4.0495,-3.9857,-3.9247,-3.858,-3.8202,-3.8202,-3.8202,-3.7622,-3.6373,-3.6286,-3.5706,-3.4428,-3.4399,-3.4399,-3.4399,-3.4399,-3.4399,-3.437,-3.3061,-3.1062,-4.8026,-4.9408,-4.9802,-4.8966,-4.5382,-4.1546,-3.9601,0.0,0.0,0.0,-3.408,-3.3906,-3.4341,-3.4051,-3.4084,-3.4956,-3.5276,0.0,0.0,0.0,0.0,0.0,0.0,0.0,0.0,0.0,0.0,0.0,0.0,0.0,0.0,0.0,-5.0685,-5.0066,-4.9349,-4.8914,-4.8663,-4.7822,-4.7184,-4.6778,-4.6388,-4.6069,-4.5895,-4.5895,0.0,0.0,0.0,0.0,0.0,-4.6046,-4.6398,-4.6748,-4.6489,-4.6651,-4.7019,-4.6534,-4.6403,-4.6447,-4.6269,-4.6225,-4.618,-4.6046,-4.552,-4.501,-4.5579,-4.4953,-4.4124,-4.4705,-4.5372,-4.5837,-4.5634,-4.5227,-4.4937,-4.514,-4.4385,-4.3544,-4.334,-4.2992,-4.2586,-4.2179,-4.2092,-4.2092,-4.2092,-4.2092,-4.2092,-4.2092,-4.2092,-4.2092,-4.2092,-4.2092,-4.2005,-4.1802,-4.0757,-3.9857,-3.9247,-3.858,-3.8202,-3.8202,-3.8202,-3.7622,-3.6373,-3.6315,-3.5706,-3.4428,-3.4399,-3.4399,-3.4399,-3.4399,-3.3897,-3.2936,-3.172,-3.0382,0.0,-4.3762,-4.3888,-4.3509,-4.1017,0.0,0.0,0.0,0.0,0.0,0.0,0.0,0.0,-3.3587,-3.3765,0.0,0.0,0.0,0.0,0.0,0.0,0.0,0.0,0.0,0.0,0.0,0.0,0.0,0.0,0.0,0.0,0.0,-4.9378,-4.902,-4.8566,-4.8246,-4.7967,-4.7184,-4.6662,-4.6475,-4.6069,-4.5895,-4.5895,-4.5956,0.0,0.0,0.0,0.0,0.0,-4.6402,-4.674,-4.7313,-4.6801,-4.6845,-4.714,-4.6727,-4.6609,-4.658,-4.6403,-4.6358,-4.6284,-4.5917,-4.5303,-4.4705,-4.4748,-4.4821,-4.4807,-4.4632,-4.5198,-4.5837,-4.5576,-4.5198,-4.4879,-4.4879,-4.4095,-4.3311,-4.305,-4.2702,-4.2395,-4.2245,-4.2216,-4.2257,-4.231,-4.231,-4.231,-4.2216,-4.2216,-4.2175,-4.2092,-4.2092,-4.2092,-4.2092,-4.0902,-3.9944,-3.9567,-3.8725,-3.8202,-3.8202,-3.8202,-3.7738,-3.6722,-3.6431,-3.5822,-3.4806,-3.4545,-3.4399,-3.4399,-3.4399,-3.3816,-3.272,-3.1693,-3.0825,0.0,0.0,0.0,0.0,0.0,0.0,0.0,0.0,0.0,0.0,0.0,0.0,0.0,0.0,0.0,0.0,0.0,0.0,0.0,0.0,0.0,0.0,0.0,0.0,0.0,0.0,0.0,0.0,0.0,0.0,0.0,0.0,-4.7724,-4.7724,-4.7666,-4.7375,-4.6778,-4.6749,-4.6475,-4.5895,-4.5895,-4.594,-4.594,-4.6135,0.0,0.0,0.0,0.0,0.0,-4.6889,-4.7037,-4.7539,-4.6889,-4.6683,-4.6712,-4.6653,-4.6653,-4.6653,-4.6624,-4.6624,-4.6432,-4.574,-4.4963,-4.4089,-4.2831,-4.4105,-4.5726,-4.4356,-4.485,-4.5663,-4.4995,-4.4894,-4.4894,-4.4763,-4.4327,-4.379,-4.3121,-4.2976,-4.2844,-4.2509,-4.2433,-4.2474,-4.2648,-4.2688,-4.2648,-4.2474,-4.2433,-4.2351,-4.2175,-4.2133,-4.2133,-4.2133,-4.0971,-4.0187,-4.0128,-3.8928,-3.8202,-3.8202,-3.8202,-3.7941,-3.7331,-3.6722,-3.6054,-3.5421,-3.4748,-3.4399,-3.4399,-3.4399,-3.4076,-3.3463,-3.2782,-3.2134,-3.2864,0.0,-3.3557,-3.3557,-3.3106,0.0,0.0,0.0,0.0,0.0,0.0,0.0,0.0,0.0,0.0,0.0,0.0,0.0,0.0,0.0,0.0,0.0,0.0,0.0,0.0,0.0,0.0,0.0,0.0,0.0,0.0,0.0,-4.7056,-4.7056,-4.6592,-4.6505,-4.6778,-4.6359,-4.604,-4.5895,-4.5895,-4.5956,-4.6135,-4.618,0.0,0.0,0.0,0.0,-4.686,-4.6815,-4.7229,-4.7778,-4.733,-4.7434,-4.7865,-4.7314,-4.7135,-4.7135,-4.6887,-4.6547,-4.597,-4.4934,-4.4483,-4.4105,-4.3148,-4.3629,-4.4356,-4.3499,-4.4124,-4.4966,-4.4356,-4.4691,-4.4822,-4.3703,-4.3468,-4.3261,-4.266,-4.2514,-4.2567,-4.2596,-4.2607,-4.2648,-4.2688,-4.2688,-4.2688,-4.2648,-4.2607,-4.2607,-4.2596,-4.2433,-4.231,-4.231,-4.158,-4.0879,-4.0383,-3.9004,-3.8202,-3.8202,-3.8202,-3.7941,-3.7331,-3.7157,-3.6548,-3.5421,-3.4748,-3.4399,-3.4399,-3.4399,-3.4007,-3.3259,-3.3245,-3.2495,-3.1003,-3.1293,-3.1495,-3.1495,-3.1727,-3.1872,0.0,0.0,0.0,0.0,0.0,0.0,0.0,0.0,0.0,0.0,0.0,0.0,0.0,0.0,0.0,0.0,0.0,0.0,0.0,0.0,0.0,0.0,0.0,0.0,0.0,0.0,-4.6388,-4.6388,-4.613,-4.613,-4.6388,-4.604,-4.594,-4.6046,-4.6046,-4.6135,-4.6403,-4.6491,0.0,0.0,0.0,0.0,-4.7377,-4.7167,-4.7493,-4.803,-4.7505,-4.7519,-4.7788,-4.7429,-4.7222,-4.7076,-4.6648,-4.5806,-4.4862,-4.431,-4.3902,-4.3524,-4.3101,-4.3165,-4.3274,-4.2715,-4.3571,-4.4501,-4.3817,-4.4075,-4.4291,-4.3504,-4.3165,-4.2925,-4.2614,-4.2555,-4.2596,-4.2809,-4.285,-4.289,-4.297,-4.297,-4.293,-4.285,-4.285,-4.2809,-4.2729,-4.2607,-4.2555,-4.2555,-4.1938,-4.137,-4.1018,-3.9739,-3.8748,-3.8381,-3.8315,-3.8132,-3.7738,-3.7447,-3.6693,-3.5421,-3.4748,-3.4399,-3.4399,-3.4399,-3.4196,-3.3728,-3.3883,-3.3243,-3.0714,-3.1177,-3.1611,-3.1555,-3.1988,-3.2336,-3.1756,0.0,0.0,0.0,0.0,0.0,0.0,0.0,0.0,0.0,0.0,0.0,0.0,0.0,0.0,0.0,0.0,0.0,0.0,0.0,0.0,0.0,0.0,0.0,0.0,0.0,0.0,-4.603,-4.618,-4.618,-4.603,-4.603,-4.609,-4.6269,-4.6269,-4.6403,-4.6624,-4.6844,-4.6931,0.0,0.0,0.0,-4.8087,-4.7549,-4.7638,-4.8087,-4.7519,-4.7309,-4.7309,-4.7309,-4.7149,-4.6856,-4.6142,-4.4976,-4.3773,-4.382,-4.3323,-4.2729,-4.29,-4.285,-4.2607,-4.2298,-4.3186,-4.4043,-4.3357,-4.3478,-4.3732,-4.3573,-4.3142,-4.2729,-4.2729,-4.2729,-4.2809,-4.2981,-4.3021,-4.313,-4.325,-4.329,-4.325,-4.3061,-4.3021,-4.301,-4.2809,-4.2769,-4.2729,-4.2729,-4.2227,-4.1814,-4.1637,-4.0642,-3.9622,-3.8634,-3.8538,-3.8464,-3.824,-3.7622,-3.6751,-3.5566,-3.4893,-3.4516,-3.4399,-3.4399,-3.4399,-3.4399,-3.4264,-3.3859,-3.1235,-3.1845,-3.2191,-3.164,-3.1988,-3.2452,-3.2365,0.0,0.0,0.0,0.0,0.0,0.0,0.0,0.0,0.0,0.0,0.0,0.0,0.0,0.0,0.0,0.0,0.0,0.0,0.0,0.0,0.0,0.0,0.0,0.0,0.0,0.0,-4.6521,-4.6491,-4.6491,-4.6491,-4.6491,-4.6491,-4.6535,-4.6535,-4.6624,-4.6844,-4.6887,-4.7019,0.0,0.0,-4.7369,-4.7459,-4.7339,-4.7369,-4.7429,-4.7339,-4.7309,-4.7309,-4.7309,-4.7266,-4.7086,-4.5831,-4.4769,-4.389,-4.3337,-4.2979,-4.2688,-4.2729,-4.2729,-4.2688,-4.2607,-4.3166,-4.3649,-4.2972,-4.3371,-4.379,-4.3024,-4.2909,-4.2941,-4.2941,-4.2941,-4.2981,-4.321,-4.325,-4.325,-4.329,-4.329,-4.329,-4.325,-4.325,-4.325,-4.321,-4.305,-4.2941,-4.2941,-4.2852,-4.2377,-4.1279,-4.1164,-4.0547,-3.9106,-3.8833,-3.8649,-3.8456,-3.7695,-3.6954,-3.617,-3.5566,-3.4985,-3.4399,-3.4399,-3.4399,-3.4366,-3.3693,-3.3318,-3.0945,-3.1496,-3.1959,-3.2048,-3.2542,-3.2948,-3.2568,0.0,0.0,0.0,0.0,0.0,0.0,0.0,0.0,0.0,0.0,0.0,0.0,0.0,0.0,0.0,0.0,0.0,0.0,0.0,0.0,0.0,0.0,0.0,0.0,0.0,0.0,0.0,-4.5677,-4.572,-4.572,-4.5819,-4.6175,-4.6756,-4.643,-4.6383,-4.6569,-4.6211,-4.6284,-4.677,0.0,-4.698,-4.7309,-4.7309,-4.7309,-4.7309,-4.7309,-4.71,-4.6741,-4.6352,-4.6471,-4.6548,-4.512,-4.434,-4.3901,-4.3218,-4.2941,-4.289,-4.301,-4.301,-4.301,-4.301,-4.3167,-4.3234,-4.2909,-4.3248,-4.3518,-4.314,-4.309,-4.317,-4.317,-4.317,-4.321,-4.329,-4.329,-4.329,-4.329,-4.329,-4.329,-4.329,-4.329,-4.329,-4.329,-4.321,-4.317,-4.317,-4.317,-4.2783,-4.1897,-4.1556,-4.0741,-3.9179,-3.8797,-3.8575,-3.8501,-3.7383,-3.6606,-3.6315,-3.5357,-3.4719,-3.4399,-3.4399,-3.4399,-3.4366,-3.3997,-3.3624,-3.0772,-3.1148,-3.1611,-3.2164,0.0,-3.33,-3.3383,0.0,0.0,0.0,0.0,0.0,0.0,0.0,0.0,0.0,0.0,0.0,0.0,0.0,0.0,0.0,0.0,0.0,0.0,0.0,0.0,0.0,0.0,0.0,0.0,0.0,0.0,0.0,-4.4971,-4.5054,-4.5054,-4.5221,-4.5729,-4.6542,-4.6066,-4.6003,-4.6249,-4.5603,-4.5663,-4.6279,-4.6142,-4.6471,-4.707,-4.707,-4.716,-4.7309,-4.7309,-4.701,-4.6429,-4.5783,-4.5873,-4.613,-4.4947,-4.4459,-4.4191,-4.3537,-4.3299,-4.3309,-4.328,-4.329,-4.329,-4.329,-4.321,-4.3061,-4.3061,-4.317,-4.329,-4.329,-4.329,-4.329,-4.329,-4.329,-4.329,-4.329,-4.329,-4.329,-4.329,-4.329,-4.329,-4.329,-4.329,-4.329,-4.329,-4.329,-4.329,-4.329,-4.329,-4.3,-4.2231,-4.1384,-4.0412,-3.9252,-3.8863,-3.8642,-3.8642,-3.7528,-3.6713,-3.6387,-3.5427,-3.4753,-3.4399,-3.4399,-3.4399,-3.4399,-3.4196,-3.3894,-3.1293,-3.1466,-3.1495,-3.1553,-3.2106,0.0,-3.5503,-3.559,0.0,0.0,0.0,0.0,0.0,0.0,0.0,0.0,0.0,0.0,0.0,0.0,0.0,0.0,0.0,0.0,0.0,0.0,0.0,0.0,0.0,0.0,0.0,0.0,0.0,0.0,0.0,-4.5304,-4.5304,-4.5304,-4.5334,-4.5382,-4.5394,-4.5651,-4.6249,-4.5603,-4.5663,-4.6249,-4.5633,-4.5753,-4.6339,-4.6339,-4.6741,-4.7309,-4.7309,-4.7279,-4.716,-4.6501,-4.6249,-4.6279,-4.616,-4.5711,-4.5125,-4.4426,-4.4186,-4.4097,-4.3469,-4.329,-4.329,-4.329,-4.329,-4.329,-4.329,-4.329,-4.329,-4.329,-4.329,-4.329,-4.329,-4.329,-4.329,-4.329,-4.329,-4.329,-4.329,-4.329,-4.329,-4.329,-4.329,-4.329,-4.329,-4.329,-4.329,-4.329,-4.329,-4.2821,-4.1602,-4.0277,-3.9493,-3.9403,-3.9192,-3.9053,-3.9053,-3.8782,-3.7981,-3.6593,-3.6476,-3.5764,-3.4399,-3.4399,-3.4399,-3.4366,-3.3624,-3.3659,-3.0858,-3.1206,-3.1495,-3.1495,-3.1988,0.0,0.0,-3.588,0.0,0.0,0.0,0.0,0.0,0.0,0.0,0.0,0.0,0.0,0.0,0.0,0.0,0.0,0.0,0.0,0.0,0.0,0.0,0.0,0.0,0.0,0.0,0.0,0.0,0.0,0.0,-4.4676,-4.4676,-4.5095,-4.5304,-4.5304,-4.5304,-4.5663,-4.6249,-4.5603,-4.5424,-4.5693,-4.5873,-4.6082,-4.6309,-4.677,-4.707,-4.7279,-4.686,-4.6681,-4.6561,-4.5484,-4.5562,-4.61,-4.4844,-4.4556,-4.4586,-4.3888,-4.3678,-4.3618,-4.3379,-4.329,-4.329,-4.329,-4.329,-4.3379,-4.3798,-4.3917,-4.3917,-4.3917,-4.3917,-4.3798,-4.3379,-4.329,-4.329,-4.329,-4.329,-4.329,-4.329,-4.329,-4.329,-4.329,-4.329,-4.329,-4.329,-4.329,-4.329,-4.329,-4.297,-4.2372,-4.1474,-4.0546,-3.9858,-3.9439,-3.9228,-3.909,-3.909,-3.8413,-3.7791,-3.725,-3.6318,-3.5613,-3.5151,-3.4772,-3.4597,-3.4597,-3.4264,-3.423,-3.0598,-3.0887,-3.1264,0.0,0.0,0.0,-3.4951,0.0,0.0,0.0,0.0,0.0,0.0,0.0,0.0,0.0,0.0,0.0,0.0,0.0,0.0,0.0,0.0,0.0,0.0,0.0,0.0,0.0,0.0,0.0,0.0,0.0,0.0,0.0,0.0,0.0,-4.3688,-4.4137,-4.4466,-4.4676,-4.4885,-4.5334,-4.5963,-4.5095,-4.4796,-4.5005,-4.5274,-4.5562,-4.6022,-4.6471,-4.692,-4.7249,-4.6591,-4.6279,-4.616,-4.5274,-4.5502,-4.61,-4.4725,-4.4706,-4.5125,-4.4227,-4.4067,-4.4186,-4.4018,-4.3917,-4.3917,-4.3917,-4.3768,-4.3798,-4.4665,-4.4466,-4.4047,-4.4257,-4.4167,-4.3858,-4.3379,-4.329,-4.329,-4.329,-4.329,-4.329,-4.329,-4.329,-4.329,-4.329,-4.329,-4.329,-4.329,-4.329,-4.329,-4.329,-4.2551,-4.1901,-4.1452,-4.0576,-3.9888,-3.9439,-3.9265,-3.9192,-3.9192,-3.8322,-3.7735,-3.7487,-3.6259,-3.5551,-3.538,-3.494,-3.4731,-3.4698,-3.4698,-3.4631,-3.0598,-3.0598,-3.0772,0.0,0.0,0.0,0.0,0.0,0.0,0.0,0.0,0.0,0.0,0.0,0.0,0.0,0.0,0.0,0.0,0.0,0.0,0.0,0.0,0.0,0.0,0.0,0.0,0.0,0.0,0.0,0.0,0.0,0.0,0.0,0.0,0.0,-4.241,-4.241,-4.2701,-4.3319,-4.3988,-4.4646,-4.5244,-4.3917,-4.3678,-4.4287,-4.3589,-4.4077,-4.5274,-4.5304,-4.6082,-4.7219,-4.6561,-4.6279,-4.6249,-4.6249,-4.6249,-4.6249,-4.6249,-4.6741,-4.704,-4.5723,-4.5753,-4.6172,-4.5484,-4.5274,-4.5274,-4.5274,-4.4825,-4.4646,-4.592,-4.4814,-4.3469,-4.4167,-4.3798,-4.3319,-4.329,-4.329,-4.329,-4.329,-4.329,-4.329,-4.329,-4.329,-4.329,-4.329,-4.329,-4.329,-4.329,-4.329,-4.329,-4.329,-4.2162,-4.1384,-4.1422,-4.0187,-3.9439,-3.9403,-3.9373,-3.9373,-3.9373,-3.8751,-3.8023,-3.7223,-3.6569,-3.5781,-3.4902,-3.4902,-3.4835,-3.4698,-3.4698,-3.4698,-3.0598,-3.0887,0.0,0.0,0.0,0.0,0.0,0.0,0.0,0.0,0.0,0.0,0.0,0.0,0.0,0.0,0.0,0.0,0.0,0.0,0.0,0.0,0.0,0.0,0.0,0.0,0.0,0.0,0.0,0.0,0.0,0.0,0.0,0.0,0.0,0.0,-4.241,-4.2821,-4.3359,-4.4018,-4.3708,-4.4197,-4.5274,-4.4885,-4.4556,-4.4317,-4.4586,-4.4676,-4.4646,-4.5095,-4.5274,-4.5214,-4.5484,-4.5334,-4.4915,-4.4915,-4.4915,-4.4915,-4.4915,-4.4695,-4.4485,-4.4586,-4.4436,-4.4127,-4.3947,-4.4227,-4.4616,-4.4616,-4.4796,-4.5214,-4.6082,-4.5514,-4.4766,-4.4945,-4.4855,-4.4466,-4.3499,-4.329,-4.329,-4.329,-4.329,-4.329,-4.329,-4.329,-4.329,-4.329,-4.329,-4.329,-4.329,-4.329,-4.311,-4.2701,-4.2701,-4.2372,-4.1474,-4.1025,-4.0606,-4.0127,-3.9679,-3.9373,-3.9373,-3.9056,-3.8567,-3.7842,-3.7079,-3.6394,-3.5815,-3.5204,-3.4935,-3.5063,-3.4902,-3.4835,-3.0598,0.0,0.0,0.0,0.0,0.0,0.0,0.0,0.0,0.0,0.0,0.0,0.0,0.0,0.0,0.0,0.0,0.0,0.0,0.0,0.0,0.0,0.0,0.0,0.0,0.0,0.0,0.0,0.0,0.0,0.0,0.0,0.0,0.0,0.0,0.0,-4.1632,-4.1983,-4.2372,-4.2761,-4.2611,-4.297,-4.3748,-4.4287,-4.4287,-4.3958,-4.4616,-4.4676,-4.4377,-4.5035,-4.5065,-4.4736,-4.5125,-4.4885,-4.4347,-4.4616,-4.4377,-4.3958,-4.4227,-4.4047,-4.3738,-4.4197,-4.4227,-4.4067,-4.4067,-4.4377,-4.4766,-4.5035,-4.5214,-4.5514,-4.6471,-4.6202,-4.5693,-4.5693,-4.5484,-4.5005,-4.3958,-4.3678,-4.3618,-4.3349,-4.329,-4.329,-4.329,-4.329,-4.329,-4.329,-4.329,-4.329,-4.329,-4.329,-4.314,-4.2791,-4.288,-4.2611,-4.1871,-4.1294,-4.0816,-4.0427,-3.9798,-3.9373,-3.9373,-3.9032,-3.8633,-3.8245,-3.7248,-3.6594,-3.6343,-3.5525,-3.5162,-3.5195,-3.5067,-3.5001,0.0,0.0,0.0,0.0,0.0,0.0,0.0,0.0,0.0,0.0,0.0,0.0,0.0,0.0,0.0,0.0,0.0,0.0,0.0,0.0,0.0,0.0,0.0,0.0,0.0,0.0,0.0,0.0,0.0,0.0,0.0,0.0,0.0,0.0,0.0,0.0,-4.0307,-4.0307,-4.0337,0.0,-4.0995,-4.1324,-4.1414,-4.2611,-4.311,-4.314,-4.3778,-4.4077,-4.4167,-4.4706,-4.4975,-4.5035,-4.4975,-4.4556,-4.4107,-4.4706,-4.4167,-4.323,-4.3988,-4.4197,-4.4167,-4.4287,-4.4676,-4.5125,-4.5125,-4.5155,-4.5334,-4.5963,-4.5723,-4.5574,-4.68,-4.6681,-4.619,-4.619,-4.5813,-4.5214,-4.4556,-4.4347,-4.4167,-4.3589,-4.3379,-4.3319,-4.3379,-4.3319,-4.329,-4.329,-4.329,-4.329,-4.329,-4.329,-4.326,-4.314,-4.2731,-4.244,-4.2321,-4.1175,-4.0487,-4.0487,-3.9798,-3.9373,-3.9373,-3.8811,-3.8452,-3.8392,-3.7255,-3.6596,-3.6477,-3.5878,-3.5451,-3.5228,-3.5228,-3.5228,0.0,0.0,0.0,0.0,0.0,0.0,0.0,0.0,0.0,0.0,0.0,0.0,0.0,0.0,0.0,0.0,0.0,0.0,0.0,0.0,0.0,0.0,0.0,0.0,0.0,0.0,0.0,0.0,0.0,0.0,0.0,0.0,0.0,0.0,0.0,-3.9768,-3.9619,-3.9619,-3.9888,0.0,-4.0546,-4.0876,-4.1384,-4.1654,-4.1803,-4.1803,-4.1953,-4.2312,-4.28,-4.2372,-4.256,-4.298,-4.247,-4.2132,-4.2013,-4.2162,-4.2043,-4.1953,-4.315,-4.321,-4.298,-4.3988,-4.4047,-4.3708,-4.3708,-4.4107,-4.4556,-4.4706,-4.5005,-4.5364,-4.5663,-4.5633,-4.5514,-4.5514,-4.5813,-4.5903,-4.5244,-4.4676,-4.4436,-4.4796,-4.4007,-4.3469,-4.3977,-4.3648,-4.329,-4.329,-4.329,-4.329,-4.329,-4.329,-4.2901,-4.1923,-4.2611,-4.2701,-4.1722,-4.1324,-4.1175,-4.1175,-4.0068,-3.9373,-3.9373,-3.9254,-3.8931,-3.8392,-3.8123,-3.7494,-3.6477,-3.6194,-3.5833,-3.5424,-3.5261,-3.5294,0.0,0.0,0.0,0.0,0.0,0.0,0.0,0.0,0.0,0.0,0.0,0.0,0.0,0.0,0.0,0.0,0.0,0.0,0.0,0.0,0.0,0.0,0.0,0.0,0.0,0.0,0.0,0.0,0.0,0.0,0.0,0.0,0.0,0.0,-3.8751,-3.8781,-3.8452,-3.8452,-3.8631,-3.896,-3.896,-3.914,-3.9529,-4.0786,-4.1422,-4.1422,-4.1422,-4.1602,-4.1901,-4.1534,-4.1632,-4.1901,-4.1542,-4.1422,-4.1422,-4.1422,-4.1175,-4.1055,-4.2043,-4.2162,-4.2081,-4.306,-4.315,-4.291,-4.32,-4.3359,-4.3509,-4.4137,-4.4556,-4.4915,-4.5214,-4.5304,-4.5304,-4.5304,-4.5574,-4.5633,-4.4975,-4.4556,-4.4317,-4.4347,-4.3768,-4.3409,-4.3738,-4.3529,-4.329,-4.329,-4.329,-4.329,-4.329,-4.329,-4.294,-4.1991,-4.2462,-4.2462,-4.1474,-4.1085,-4.0905,-4.0905,-3.9978,-3.9373,-3.9373,-3.9373,-3.926,-3.8901,-3.8242,-3.7584,-3.6926,-3.6197,-3.575,-3.5519,-3.5392,-3.5392,0.0,0.0,0.0,0.0,0.0,0.0,0.0,0.0,0.0,0.0,0.0,0.0,0.0,0.0,0.0,0.0,0.0,0.0,0.0,0.0,0.0,0.0,0.0,0.0,0.0,0.0,0.0,0.0,0.0,0.0,0.0,0.0,-3.8571,-3.7434,-3.7943,-3.7973,-3.7404,-3.7404,-3.7404,-3.7404,-3.7404,-3.7404,-3.7494,-3.9709,-4.0756,-4.0913,-4.0995,-4.1115,-4.1205,-4.1085,-4.1115,-4.1205,-4.1085,-4.1025,-4.1025,-4.1025,-4.0696,-4.0337,-4.0995,-4.1205,-4.1324,-4.2021,-4.2231,-4.2351,-4.297,-4.2791,-4.265,-4.3808,-4.4137,-4.4257,-4.4825,-4.4945,-4.4945,-4.4945,-4.4945,-4.4855,-4.4556,-4.4407,-4.4197,-4.3708,-4.3529,-4.3439,-4.3319,-4.32,-4.317,-4.326,-4.32,-4.317,-4.329,-4.329,-4.303,-4.2321,-4.2321,-4.2081,-4.1265,-4.0726,-4.0397,-4.0397,-3.9798,-3.9373,-3.9373,-3.932,-3.923,-3.923,-3.8153,-3.7464,-3.7255,-3.6178,-3.5609,-3.5519,-3.5519,-3.5519,0.0,0.0,0.0,0.0,0.0,0.0,0.0,0.0,0.0,0.0,0.0,0.0,0.0,0.0,0.0,0.0,0.0,0.0,0.0,0.0,0.0,0.0,0.0,0.0,0.0,0.0,0.0,0.0,0.0,0.0,0.0,-3.7614,-3.7584,-3.7404,-3.7494,-3.7494,-3.7404,-3.7404,-3.7404,-3.7404,-3.7404,-3.7404,-3.7434,-3.7764,-3.8242,-3.8811,-3.9409,-4.0008,-4.0487,-3.9918,-4.0008,-4.0487,-3.9918,-3.9679,-3.9679,-3.9679,-3.9619,-3.9649,-4.0307,-4.0516,-4.0636,-4.1332,-4.1504,-4.1662,-4.2321,-4.247,-4.256,-4.3269,-4.3409,-4.3439,-4.3529,-4.3559,-4.3559,-4.3559,-4.3559,-4.3858,-4.4945,-4.4706,-4.4466,-4.4945,-4.4556,-4.3977,-4.3379,-4.288,-4.2671,-4.32,-4.2851,-4.2701,-4.323,-4.329,-4.288,-4.1654,-4.2051,-4.1901,-4.0636,-4.0457,-4.0397,-4.0397,-3.9798,-3.9373,-3.9373,-3.8841,-3.8512,-3.8512,-3.8362,-3.7704,-3.6596,-3.6447,-3.6058,-3.5519,-3.5519,-3.5519,0.0,0.0,0.0,0.0,0.0,0.0,0.0,0.0,0.0,0.0,0.0,0.0,0.0,0.0,0.0,0.0,0.0,0.0,0.0,0.0,0.0,0.0,0.0,0.0,0.0,0.0,0.0,0.0,0.0,0.0,-3.6896,-3.7225,-3.7075,-3.6357,-3.6716,-3.6716,-3.6357,-3.6357,-3.6357,-3.6357,-3.6357,-3.6357,-3.6357,-3.6716,-3.7225,-3.7853,-3.8153,-3.8661,-3.926,-3.896,-3.923,-3.9828,-3.9529,-3.9373,-3.9373,-3.9373,-3.9373,-3.9469,-3.9738,-4.0098,-4.0457,-4.0726,-4.0816,-4.1025,-4.2081,-4.2141,-4.2013,-4.3021,-4.329,-4.32,-4.288,-4.306,-4.32,-4.288,-4.306,-4.3439,-4.4077,-4.3917,-4.3798,-4.4137,-4.3658,-4.312,-4.2851,-4.259,-4.25,-4.2761,-4.2851,-4.288,-4.2791,-4.312,-4.2662,-4.1025,-4.1452,-4.1294,-3.9948,-3.9858,-3.9858,-3.9858,-3.9589,-3.9373,-3.9373,-3.914,-3.8601,-3.7853,-3.7494,-3.7045,-3.6477,-3.6118,-3.5789,-3.5519,-3.5519,-3.5519,0.0,0.0,0.0,0.0,0.0,0.0,0.0,0.0,0.0,0.0,0.0,0.0,0.0,0.0,0.0,0.0,0.0,0.0,0.0,0.0,0.0,0.0,0.0,0.0,0.0,0.0,0.0,0.0,0.0,0.0,-3.6237,-3.6686,-3.6477,-3.5549,-3.5998,-3.5998,-3.5519,-3.5519,-3.5519,-3.5519,-3.5519,-3.5519,-3.5519,-3.5998,-3.6477,-3.6956,-3.7255,-3.7793,-3.8392,-3.8392,-3.8811,-3.9373,-3.9373,-3.9373,-3.9373,-3.9373,-3.9373,-3.9373,-3.9373,-3.9738,-4.0157,-4.0157,-4.0157,-4.0397,-4.1752,-4.1811,-4.1654,-4.2931,-4.329,-4.314,-4.256,-4.2731,-4.297,-4.253,-4.2731,-4.312,-4.326,-4.329,-4.329,-4.329,-4.294,-4.259,-4.244,-4.241,-4.241,-4.241,-4.2641,-4.2731,-4.244,-4.2641,-4.2222,-4.0576,-4.0846,-4.0666,-3.9529,-3.9373,-3.9373,-3.9373,-3.9373,-3.9373,-3.9373,-3.9044,-3.8422,-3.7434,-3.6626,-3.6237,-3.6237,-3.5759,-3.5519,-3.5519,-3.5519,-3.5519,0.0,0.0,0.0,0.0,0.0,0.0,0.0,0.0,0.0,0.0,0.0,0.0,0.0,0.0,0.0,0.0,0.0,0.0,0.0,0.0,0.0,0.0,0.0,0.0,0.0,0.0,0.0,0.0,0.0,0.0,-3.5549,-3.5579,-3.5579,-3.5519,-3.5549,-3.5549,-3.5519,-3.5519,-3.5519,-3.5519,-3.5519,-3.5519,-3.5519,-3.5549,-3.5579,-3.5669,-3.6896,-3.7793,-3.8392,-3.8392,-3.8811,-3.9373,-3.9373,-3.9373,-3.9373,-3.9373,-3.9373,-3.9373,-3.9373,-3.9403,-3.9433,-3.9433,-3.9433,-3.9709,-4.1025,-4.1452,-4.1654,-4.2931,-4.329,-4.314,-4.256,-4.241,-4.244,-4.241,-4.241,-4.262,-4.317,-4.329,-4.329,-4.329,-4.326,-4.309,-4.25,-4.241,-4.241,-4.241,-4.1901,-4.1722,-4.2321,-4.1871,-4.1205,-4.0487,-4.0427,-4.0157,-3.9433,-3.9373,-3.9373,-3.9373,-3.9373,-3.9373,-3.9373,-3.8182,-3.7494,-3.7404,-3.6178,-3.5549,-3.5549,-3.5519,-3.5519,-3.5519,-3.5519,-3.5519,0.0,0.0,0.0,0.0,0.0,0.0,0.0,0.0,0.0,0.0,0.0,0.0,0.0,0.0,0.0,0.0,0.0,0.0,0.0,0.0,0.0,0.0,0.0,0.0,0.0,0.0,0.0,0.0,0.0,0.0,-3.5519,-3.5519,-3.5519,-3.5519,-3.5519,-3.5519,-3.5519,-3.5519,-3.5519,-3.5519,-3.5519,-3.5519,-3.5519,-3.5519,-3.5519,-3.5519,-3.5998,-3.6567,-3.7165,-3.7165,-3.7554,-3.8182,-3.8601,-3.8751,-3.8811,-3.926,-3.9373,-3.9373,-3.9373,-3.9373,-3.9373,-3.9373,-3.9373,-3.9679,-4.0965,-4.1085,-4.1025,-4.2342,-4.2402,-4.2013,-4.1841,-4.1782,-4.1782,-4.1782,-4.1782,-4.1841,-4.2013,-4.2402,-4.2701,-4.2701,-4.2701,-4.2641,-4.244,-4.241,-4.2261,-4.1841,-4.1931,-4.1841,-4.1175,-4.1265,-4.0965,-3.9888,-4.0157,-4.0127,-3.9433,-3.9373,-3.9373,-3.9373,-3.9373,-3.9373,-3.9373,-3.896,-3.8482,-3.8033,-3.7165,-3.6327,-3.5519,-3.5519,-3.5519,-3.5519,-3.5519,-3.5519,0.0,0.0,0.0,0.0,0.0,0.0,0.0,0.0,0.0,0.0,0.0,0.0,0.0,0.0,0.0,0.0,0.0,0.0,0.0,0.0,0.0,0.0,0.0,0.0,0.0,0.0,0.0,0.0,0.0,0.0,-3.4831,-3.504,-3.528,-3.5489,-3.5519,-3.5519,-3.5519,-3.5519,-3.5519,-3.5519,-3.5519,-3.5519,-3.5519,-3.5519,-3.5519,-3.5519,-3.5519,-3.5878,-3.6477,-3.6477,-3.6866,-3.7464,-3.7883,-3.8182,-3.8452,-3.8901,-3.923,-3.9373,-3.9373,-3.9373,-3.9373,-3.9373,-3.9373,-3.9619,-4.0726,-4.0756,-4.0636,-4.1752,-4.1752,-4.1324,-4.1115,-4.1055,-4.1055,-4.1055,-4.1055,-4.1115,-4.1324,-4.1752,-4.2141,-4.2351,-4.241,-4.2321,-4.2111,-4.2261,-4.2111,-4.1175,-4.1452,-4.1384,-4.0516,-4.0576,-4.0397,-3.9529,-3.9798,-3.9888,-3.9469,-3.9373,-3.9373,-3.9373,-3.9373,-3.9373,-3.9373,-3.92,-3.8841,-3.8392,-3.7554,-3.6686,-3.5848,-3.5609,-3.5519,-3.5519,-3.5519,-3.5519,0.0,0.0,0.0,0.0,0.0,0.0,0.0,0.0,0.0,0.0,0.0,0.0,0.0,0.0,0.0,0.0,0.0,0.0,0.0,0.0,0.0,0.0,0.0,0.0,0.0,0.0,0.0,0.0,0.0,-3.3544,-3.3514,-3.4144,-3.4773,-3.5429,-3.5459,-3.5459,-3.5459,-3.5459,-3.5459,-3.5459,-3.5489,-3.5519,-3.5519,-3.5519,-3.5519,-3.5519,-3.5519,-3.5878,-3.6447,-3.6447,-3.6806,-3.7345,-3.7375,-3.7764,-3.8332,-3.8362,-3.8781,-3.9313,-3.9313,-3.9343,-3.9379,-3.9379,-3.9373,-3.9559,-4.0217,-4.0397,-4.0516,-4.1175,-4.1362,-4.1175,-4.0546,-4.0397,-4.0397,-4.0367,-4.0367,-4.0546,-4.1175,-4.1324,-4.1572,-4.2231,-4.2381,-4.2171,-4.1542,-4.1961,-4.1931,-4.0606,-4.0397,-4.0397,-4.0367,-3.9798,-3.9373,-3.9373,-3.9373,-3.9373,-3.9373,-3.9373,-3.9373,-3.9373,-3.9373,-3.9373,-3.9373,-3.8751,-3.8392,-3.8422,-3.7135,-3.6507,-3.6507,-3.5848,-3.5519,-3.5519,-3.5519,-3.5519,-2.9116,0.0,0.0,0.0,0.0,0.0,0.0,0.0,0.0,0.0,0.0,0.0,0.0,0.0,0.0,0.0,0.0,0.0,0.0,0.0,0.0,0.0,0.0,0.0,0.0,0.0,0.0,0.0,-3.4951,-3.4741,-3.4264,-3.3933,-3.3844,-3.4053,-3.4053,-3.4053,-3.4053,-3.4532,-3.4803,-3.4803,-3.528,-3.5519,-3.5519,-3.5519,-3.5519,-3.5519,-3.5519,-3.5609,-3.5789,-3.5789,-3.5878,-3.6088,-3.6567,-3.6836,-3.7075,-3.7524,-3.7793,-3.7973,-3.7973,-3.8272,-3.8691,-3.8691,-3.902,-3.9559,-4.0217,-4.0068,-3.9828,-4.0487,-4.0337,-3.9918,-3.9738,-4.0038,-4.0277,-3.9798,-3.9679,-3.9738,-3.9918,-3.9948,-4.0307,-4.1482,-4.1692,-4.1632,-4.1414,-4.1572,-4.1422,-4.0516,-4.0397,-4.0217,-3.9738,-3.9493,-3.9373,-3.9373,-3.9373,-3.9373,-3.9373,-3.9373,-3.9373,-3.9373,-3.9373,-3.9373,-3.9373,-3.8751,-3.8631,-3.911,-3.7404,-3.6716,-3.7165,-3.6058,-3.5519,-3.5519,-3.5519,-3.5519,0.0,0.0,0.0,0.0,0.0,0.0,0.0,0.0,0.0,0.0,0.0,0.0,0.0,0.0,0.0,0.0,0.0,0.0,0.0,0.0,0.0,0.0,0.0,0.0,0.0,0.0,0.0,0.0,-3.3813,-3.3903,-3.4053,-3.3455,-3.3335,-3.3873,-3.3634,-3.3484,-3.3484,-3.4174,-3.4503,-3.4503,-3.519,-3.5519,-3.5519,-3.5519,-3.5519,-3.5519,-3.5519,-3.5519,-3.5519,-3.5519,-3.5519,-3.5549,-3.5938,-3.6237,-3.6537,-3.6896,-3.7195,-3.7404,-3.7404,-3.7853,-3.8392,-3.8392,-3.8841,-3.9463,-3.9858,-3.9738,-3.9463,-3.9888,-3.9709,-3.9373,-3.9373,-3.9709,-3.9888,-3.9499,-3.9373,-3.9499,-3.9768,-3.9619,-3.9738,-4.0756,-4.0965,-4.0965,-4.0965,-4.0965,-4.0756,-4.0098,-3.9978,-3.9858,-3.9433,-3.9373,-3.9373,-3.9373,-3.9373,-3.9373,-3.9373,-3.9373,-3.9373,-3.9373,-3.9373,-3.9373,-3.9373,-3.8751,-3.8571,-3.899,-3.7345,-3.6656,-3.7015,-3.5998,-3.5519,-3.5519,-3.5519,-3.5519,0.0,0.0,0.0,0.0,0.0,0.0,-3.0283,-3.0402,0.0,0.0,0.0,0.0,0.0,0.0,0.0,0.0,0.0,0.0,0.0,0.0,0.0,0.0,0.0,0.0,0.0,0.0,-3.2348,-3.178,-3.166,-3.2138,-3.3335,-3.2766,-3.2946,-3.4144,-3.3574,-3.3275,-3.3275,-3.3933,-3.4294,-3.4294,-3.504,-3.54,-3.54,-3.5459,-3.5519,-3.5519,-3.5519,-3.5519,-3.5519,-3.5519,-3.5519,-3.5519,-3.5519,-3.5848,-3.6387,-3.6387,-3.6716,-3.7195,-3.7195,-3.7614,-3.8182,-3.8182,-3.8631,-3.92,-3.929,-3.932,-3.932,-3.9409,-3.9373,-3.9373,-3.9373,-3.9373,-3.9373,-3.9373,-3.9373,-3.9589,-4.0157,-3.9828,-3.9589,-4.0187,-4.0277,-4.0277,-4.0277,-4.0277,-4.0098,-3.9499,-3.9373,-3.9373,-3.9373,-3.9373,-3.9373,-3.9373,-3.9373,-3.9373,-3.9373,-3.9373,-3.9373,-3.9373,-3.9373,-3.9373,-3.9373,-3.8751,-3.8422,-3.8512,-3.7315,-3.6656,-3.6596,-3.5848,-3.5549,-3.5609,-3.5549,-3.5519,0.0,0.0,0.0,0.0,0.0,0.0,-2.9834,-2.9801,0.0,0.0,0.0,0.0,0.0,0.0,0.0,0.0,0.0,0.0,0.0,0.0,0.0,0.0,0.0,0.0,0.0,0.0,-3.3245,-3.3125,-3.2617,-3.2407,-3.2677,-3.2049,-3.1809,-3.2079,-3.1959,-3.1899,-3.1899,-3.2557,-3.2886,-3.2916,-3.4113,-3.4713,-3.4713,-3.525,-3.5519,-3.5519,-3.5519,-3.5519,-3.5519,-3.5519,-3.5519,-3.5519,-3.5519,-3.5579,-3.5699,-3.5699,-3.5759,-3.5878,-3.5878,-3.6297,-3.6866,-3.6866,-3.7285,-3.7883,-3.8422,-3.8601,-3.8721,-3.926,-3.9373,-3.9373,-3.9373,-3.9373,-3.9373,-3.9373,-3.9373,-3.9469,-3.9589,-3.9499,-3.9469,-3.9553,-3.9619,-3.9619,-3.9619,-3.9619,-3.9559,-3.9403,-3.9373,-3.9373,-3.9373,-3.9373,-3.9373,-3.9373,-3.9373,-3.9373,-3.9373,-3.9373,-3.9373,-3.9373,-3.9373,-3.9373,-3.9373,-3.8751,-3.8661,-3.92,-3.8422,-3.7764,-3.7225,-3.6058,-3.5789,-3.6267,-3.5759,-3.5519,0.0,0.0,0.0,-3.1421,0.0,0.0,0.0,-3.0043,0.0,0.0,0.0,0.0,0.0,0.0,0.0,0.0,0.0,0.0,0.0,0.0,0.0,0.0,0.0,0.0,0.0,0.0,-3.2527,-3.2527,-3.2168,-3.2138,-3.2467,-3.1869,-3.166,-3.1989,-3.166,-3.1511,-3.1511,-3.2138,-3.2527,-3.2497,-3.3514,-3.3993,-3.3993,-3.4681,-3.4981,-3.5011,-3.534,-3.5519,-3.5519,-3.5519,-3.5519,-3.5519,-3.5519,-3.5519,-3.5519,-3.5519,-3.5519,-3.5519,-3.5519,-3.5938,-3.6477,-3.6477,-3.6896,-3.7524,-3.8182,-3.8631,-3.896,-3.932,-3.9373,-3.9373,-3.9373,-3.9373,-3.9373,-3.9373,-3.9373,-3.9373,-3.9373,-3.9373,-3.9373,-3.9373,-3.9373,-3.9373,-3.9373,-3.9373,-3.9373,-3.9373,-3.9373,-3.9373,-3.9373,-3.9373,-3.9373,-3.9373,-3.9373,-3.9373,-3.9373,-3.9373,-3.9373,-3.9373,-3.9373,-3.9373,-3.9373,-3.8751,-3.8392,-3.8422,-3.8063,-3.7734,-3.7404,-3.6447,-3.6178,-3.6477,-3.5818,-3.5519,0.0,0.0,0.0,0.0,0.0,-3.1331,0.0,0.0,0.0,-3.0342,0.0,0.0,0.0,0.0,0.0,0.0,0.0,0.0,0.0,0.0,0.0,0.0,0.0,0.0,0.0,0.0,-3.1511,-3.1511,-3.1511,-3.175,-3.2258,-3.178,-3.175,-3.2288,-3.178,-3.1511,-3.1511,-3.2019,-3.2288,-3.2318,-3.3125,-3.3484,-3.3514,-3.4322,-3.4713,-3.4743,-3.525,-3.5519,-3.5519,-3.5519,-3.5519,-3.5519,-3.5519,-3.5519,-3.5519,-3.5519,-3.5519,-3.5519,-3.5519,-3.5848,-3.6297,-3.6297,-3.6716,-3.7345,-3.7853,-3.8571,-3.923,-3.923,-3.932,-3.9373,-3.9373,-3.9373,-3.9373,-3.9373,-3.9373,-3.9373,-3.9373,-3.9373,-3.9373,-3.9373,-3.9373,-3.9373,-3.9373,-3.9373,-3.9373,-3.9373,-3.9373,-3.9373,-3.9373,-3.9373,-3.9373,-3.9373,-3.9373,-3.9373,-3.9373,-3.9373,-3.9373,-3.9373,-3.9373,-3.9373,-3.9373,-3.8871,-3.8332,-3.7823,-3.7793,-3.7793,-3.7793,-3.7165,-3.6716,-3.6477,-3.5818,-3.5519,0.0,0.0,0.0,0.0,-3.1511,0.0,0.0,0.0,-3.0342,-2.9804,0.0,0.0,0.0,0.0,0.0,0.0,0.0,0.0,0.0,0.0,0.0,0.0,0.0,0.0,0.0,0.0,0.0,-3.1511,-3.1511,-3.154,-3.16,-3.154,-3.154,-3.16,-3.154,-3.1511,-3.1511,-3.157,-3.16,-3.163,-3.2916,-3.3484,-3.3544,-3.4801,-3.54,-3.54,-3.5459,-3.5519,-3.5519,-3.5519,-3.5519,-3.5519,-3.5519,-3.5519,-3.5519,-3.5519,-3.5519,-3.5519,-3.5519,-3.5549,-3.5609,-3.5609,-3.6058,-3.6596,-3.6686,-3.7554,-3.8512,-3.8512,-3.896,-3.9373,-3.9373,-3.9373,-3.9373,-3.9373,-3.9373,-3.9373,-3.9373,-3.9373,-3.9373,-3.9373,-3.9373,-3.9373,-3.9373,-3.9373,-3.9373,-3.9373,-3.9373,-3.9373,-3.9373,-3.9373,-3.9373,-3.9373,-3.9373,-3.9373,-3.9373,-3.9373,-3.9373,-3.9373,-3.9373,-3.9373,-3.9373,-3.9349,-3.926,-3.9164,-3.9164,-3.9164,-3.9164,-3.8512,-3.7584,-3.6477,-3.5818,-3.5519,0.0,0.0,0.0,0.0,0.0,0.0,0.0,0.0,-3.0552,0.0,0.0,0.0,0.0,0.0,0.0,0.0,0.0,0.0,0.0,0.0,0.0,0.0,0.0,0.0,0.0,0.0,0.0,0.0,0.0,-3.1511,-3.1511,-3.1511,-3.1511,-3.1511,-3.1511,-3.1511,-3.1511,-3.1511,-3.1511,-3.1511,-3.2079,-3.2318,-3.2378,-3.3724,-3.4352,-3.4382,-3.516,-3.5519,-3.5519,-3.5519,-3.5519,-3.5519,-3.5519,-3.5519,-3.5519,-3.5519,-3.5519,-3.5519,-3.5519,-3.5519,-3.5519,-3.5519,-3.6178,-3.7015,-3.7015,-3.7943,-3.899,-3.899,-3.92,-3.9373,-3.9373,-3.9373,-3.9373,-3.9373,-3.9373,-3.9373,-3.9373,-3.9373,-3.9373,-3.9373,-3.9373,-3.9373,-3.9373,-3.9373,-3.9373,-3.9373,-3.9373,-3.9373,-3.9373,-3.9373,-3.9373,-3.9373,-3.9373,-3.9373,-3.9373,-3.9373,-3.9373,-3.9373,-3.9373,-3.9373,-3.9373,-3.9373,-3.9373,-3.9373,-3.9373,-3.923,-3.8811,-3.8542,-3.7913,-3.7015,-3.6746,-3.6417,-3.1511,0.0,0.0,0.0,0.0,0.0,0.0,0.0,0.0,0.0,0.0,0.0,0.0,0.0,0.0,0.0,0.0,0.0,0.0,0.0,0.0,0.0,0.0,0.0,0.0,0.0,0.0,0.0,-3.1062,-3.1032,-3.1212,-3.1212,-3.1301,-3.1481,-3.1511,-3.1511,-3.1511,-3.1511,-3.1511,-3.1511,-3.169,-3.178,-3.1809,-3.3155,-3.3754,-3.3814,-3.5011,-3.5519,-3.5519,-3.5519,-3.5519,-3.5519,-3.5519,-3.5519,-3.5519,-3.5519,-3.5519,-3.5519,-3.5519,-3.5519,-3.5519,-3.5519,-3.6267,-3.7165,-3.7165,-3.8093,-3.914,-3.914,-3.926,-3.9373,-3.9373,-3.9373,-3.9373,-3.9373,-3.926,-3.92,-3.9379,-3.926,-3.92,-3.9343,-3.9373,-3.9373,-3.9373,-3.9373,-3.9373,-3.9373,-3.9373,-3.9373,-3.9373,-3.9373,-3.9373,-3.9373,-3.9373,-3.9373,-3.9373,-3.9373,-3.9373,-3.9373,-3.9373,-3.9373,-3.9373,-3.9373,-3.9373,-3.9373,-3.9373,-3.917,-3.8661,-3.8661,-3.8422,-3.7943,-3.7584,-3.7165,0.0,0.0,0.0,-3.1511,0.0,0.0,0.0,0.0,-3.1481,0.0,0.0,0.0,0.0,0.0,-3.1241,-3.0612,0.0,0.0,0.0,0.0,0.0,0.0,0.0,0.0,0.0,0.0,0.0,-3.0492,-2.9983,-2.9894,-3.0492,-3.0522,-3.0823,-3.1481,-3.1511,-3.1511,-3.1511,-3.1511,-3.1511,-3.1511,-3.2138,-3.2467,-3.2497,-3.3844,-3.4474,-3.4503,-3.519,-3.5519,-3.5519,-3.5519,-3.5519,-3.5519,-3.5519,-3.5519,-3.5519,-3.5519,-3.5519,-3.5519,-3.5519,-3.5519,-3.5519,-3.5519,-3.5968,-3.6507,-3.6507,-3.7404,-3.8422,-3.8422,-3.8901,-3.9373,-3.9373,-3.9373,-3.9373,-3.9373,-3.8901,-3.8601,-3.926,-3.8901,-3.8631,-3.9254,-3.9373,-3.9373,-3.9373,-3.9373,-3.9373,-3.9373,-3.9373,-3.9373,-3.9373,-3.9373,-3.9373,-3.9373,-3.9373,-3.9373,-3.9373,-3.9373,-3.9373,-3.9373,-3.9373,-3.9373,-3.9373,-3.9373,-3.9373,-3.9373,-3.9373,-3.9373,-3.9379,-3.9379,-3.9379,-3.9284,-3.8003,-3.7404,0.0,0.0,-3.1511,-3.1511,0.0,0.0,0.0,0.0,0.0,0.0,0.0,0.0,0.0,0.0,-3.1421,-3.1182,-3.1152,0.0,0.0,0.0,0.0,0.0,0.0,0.0,0.0,0.0,0.0,-2.9894,-2.9741,-2.9834,0.0,-3.0492,-3.0821,-3.1481,-3.1511,-3.1511,-3.1511,-3.1511,-3.1511,-3.1511,-3.172,-3.1839,-3.1869,-3.3215,-3.3814,-3.3873,-3.5011,-3.5519,-3.5519,-3.5519,-3.5519,-3.5519,-3.5519,-3.5519,-3.5519,-3.5519,-3.5519,-3.5519,-3.5519,-3.5519,-3.5519,-3.5519,-3.5938,-3.6567,-3.6956,-3.7704,-3.8482,-3.8931,-3.923,-3.9373,-3.9373,-3.9373,-3.932,-3.8841,-3.8901,-3.8901,-3.8242,-3.8601,-3.8871,-3.8212,-3.8811,-3.926,-3.8811,-3.911,-3.9373,-3.9373,-3.9373,-3.9373,-3.9373,-3.9373,-3.9373,-3.9373,-3.9373,-3.9373,-3.9373,-3.9373,-3.9373,-3.9373,-3.9373,-3.9373,-3.9373,-3.9373,-3.9373,-3.9373,-3.9373,-3.9373,-3.9373,-3.9373,-3.9373,-3.9373,-3.896,-3.8482,-3.1511,-3.1511,0.0,-3.1597,-3.1597,0.0,-3.1597,0.0,0.0,0.0,0.0,0.0,0.0,0.0,0.0,-3.1597,-3.1359,-3.0673,0.0,-2.9056,0.0,0.0,0.0,0.0,0.0,0.0,-2.8992,-2.9205,-2.9022,-2.9262,0.0,0.0,-3.0582,-3.1481,-3.1511,-3.1539,-3.1597,-3.1539,-3.1539,-3.1597,-3.1539,-3.1511,-3.154,-3.2886,-3.3484,-3.3574,-3.4921,-3.5519,-3.5519,-3.5519,-3.5519,-3.5519,-3.5519,-3.5519,-3.5519,-3.5519,-3.5519,-3.5519,-3.5519,-3.5519,-3.5519,-3.5519,-3.5938,-3.6567,-3.6956,-3.7524,-3.8182,-3.8871,-3.8871,-3.8751,-3.899,-3.8871,-3.8601,-3.8153,-3.8212,-3.8182,-3.7554,-3.7913,-3.8242,-3.7853,-3.8452,-3.899,-3.8781,-3.911,-3.9373,-3.9373,-3.9373,-3.932,-3.908,-3.926,-3.932,-3.908,-3.926,-3.9373,-3.9373,-3.9373,-3.9373,-3.9373,-3.9373,-3.9373,-3.9373,-3.9373,-3.9493,-3.9768,-3.9493,-3.9529,-3.9768,-3.9529,-3.9373,-3.9373,-3.9373,-3.917]},{"header":{"parameterUnit":"m.s-1","parameterCategory":1,"la1":30.6,"la2":29.2853,"lo1":-89.7004,"lo2":-87.6739,"dy":0.0162,"dx":0.0183,"nx":112,"ny":82,"refTime":"2023-07-12T06:00:00:Z","depth":0,"parameterNumber":3,"parameterNumberName":"V-component_of_WINDS"},"data":[0.0,0.0,0.0,0.0,0.0,0.0,0.0,0.0,0.0,0.0,0.0,0.0,0.0,0.0,0.0,0.0,0.0,0.0,0.0,0.0,0.0,0.0,0.0,0.0,0.0,0.0,0.0,0.0,0.0,0.0,0.0,0.0,0.0,0.0,0.0,0.0,0.0,0.0,0.0,0.0,0.0,0.0,0.0,0.0,0.0,0.0,0.0,0.0,0.0,0.0,0.0,0.0,0.0,0.0,0.0,0.0,0.0,0.0,0.0,0.0,0.0,0.0,0.0,0.0,0.0,0.0,0.0,0.0,0.0,0.0,0.0,0.0,0.0,0.0,0.0,0.0,0.0,0.0,0.0,0.0,0.0,0.0,0.0,0.0,0.0,0.0,0.0,0.0,0.0,0.0,0.0,-2.3746,-2.6819,-2.8792,-2.9025,-2.8323,-2.6791,-2.428,0.0,0.0,0.0,0.0,0.0,0.0,0.0,0.0,0.0,0.0,0.0,0.0,0.0,0.0,0.0,0.0,0.0,0.0,0.0,0.0,0.0,0.0,0.0,0.0,0.0,0.0,0.0,0.0,0.0,0.0,0.0,0.0,0.0,0.0,0.0,0.0,0.0,0.0,0.0,0.0,0.0,0.0,0.0,0.0,0.0,0.0,0.0,0.0,0.0,0.0,0.0,0.0,0.0,0.0,0.0,0.0,0.0,0.0,0.0,0.0,0.0,0.0,0.0,0.0,0.0,0.0,0.0,0.0,0.0,0.0,0.0,0.0,0.0,0.0,0.0,0.0,0.0,0.0,0.0,0.0,0.0,0.0,0.0,0.0,0.0,0.0,0.0,0.0,0.0,0.0,0.0,0.0,0.0,0.0,0.0,0.0,0.0,0.0,0.0,0.0,0.0,0.0,0.0,0.0,-2.258,-2.5727,-2.82,-2.9638,-2.9679,-2.7882,-2.6138,-2.4782,0.0,0.0,0.0,0.0,0.0,0.0,0.0,0.0,0.0,0.0,0.0,0.0,0.0,0.0,0.0,0.0,0.0,0.0,0.0,0.0,0.0,0.0,0.0,0.0,0.0,0.0,0.0,0.0,0.0,0.0,0.0,0.0,0.0,0.0,0.0,0.0,0.0,0.0,0.0,0.0,0.0,0.0,0.0,0.0,0.0,0.0,0.0,0.0,0.0,0.0,0.0,0.0,0.0,0.0,0.0,0.0,0.0,0.0,0.0,0.0,0.0,0.0,0.0,0.0,0.0,0.0,0.0,0.0,0.0,0.0,0.0,0.0,0.0,0.0,0.0,0.0,0.0,0.0,0.0,0.0,0.0,0.0,0.0,0.0,0.0,0.0,0.0,0.0,0.0,0.0,0.0,0.0,0.0,0.0,0.0,0.0,0.0,0.0,0.0,0.0,0.0,0.0,0.0,-2.2799,-2.4456,-2.7469,-2.9001,-2.9804,-2.9804,-2.7781,-2.6021,-2.485,-2.317,0.0,0.0,0.0,0.0,0.0,0.0,0.0,0.0,0.0,0.0,0.0,0.0,0.0,0.0,0.0,0.0,0.0,0.0,0.0,0.0,0.0,0.0,0.0,0.0,0.0,0.0,0.0,0.0,0.0,0.0,0.0,0.0,0.0,0.0,0.0,0.0,0.0,0.0,0.0,0.0,0.0,0.0,0.0,0.0,0.0,0.0,0.0,0.0,0.0,0.0,0.0,0.0,0.0,0.0,0.0,0.0,0.0,0.0,0.0,0.0,0.0,0.0,0.0,0.0,0.0,0.0,0.0,0.0,0.0,0.0,0.0,0.0,0.0,0.0,0.0,0.0,0.0,0.0,0.0,0.0,0.0,0.0,0.0,0.0,0.0,0.0,0.0,0.0,0.0,0.0,0.0,0.0,0.0,0.0,0.0,0.0,0.0,0.0,0.0,0.0,0.0,0.0,-2.4582,-2.5979,-2.8612,-2.9453,-2.9729,-2.9603,-2.7706,-2.5971,-2.4707,-2.2648,0.0,0.0,0.0,0.0,0.0,0.0,0.0,0.0,0.0,0.0,0.0,0.0,0.0,0.0,0.0,0.0,0.0,0.0,0.0,0.0,0.0,0.0,0.0,0.0,0.0,0.0,0.0,0.0,0.0,0.0,0.0,0.0,0.0,0.0,0.0,0.0,0.0,0.0,0.0,0.0,0.0,0.0,0.0,0.0,0.0,0.0,0.0,0.0,0.0,0.0,0.0,0.0,0.0,0.0,0.0,0.0,0.0,0.0,0.0,0.0,0.0,0.0,0.0,0.0,0.0,0.0,0.0,0.0,0.0,0.0,0.0,0.0,0.0,0.0,0.0,0.0,0.0,0.0,0.0,0.0,0.0,0.0,0.0,0.0,0.0,0.0,0.0,0.0,0.0,0.0,0.0,0.0,0.0,0.0,0.0,0.0,0.0,0.0,0.0,0.0,0.0,0.0,-2.5005,-2.6414,-2.8637,-2.9453,-2.9578,-2.8988,-2.7444,-2.5795,-2.4155,-2.2447,0.0,0.0,0.0,0.0,0.0,0.0,0.0,0.0,0.0,0.0,0.0,0.0,0.0,0.0,0.0,0.0,0.0,0.0,0.0,0.0,0.0,0.0,0.0,0.0,0.0,0.0,0.0,0.0,0.0,0.0,0.0,0.0,0.0,0.0,0.0,0.0,0.0,0.0,0.0,0.0,0.0,0.0,0.0,0.0,0.0,0.0,0.0,0.0,0.0,0.0,0.0,0.0,0.0,0.0,0.0,0.0,0.0,0.0,0.0,0.0,0.0,0.0,0.0,0.0,0.0,0.0,0.0,0.0,0.0,0.0,0.0,0.0,0.0,0.0,0.0,0.0,0.0,0.0,0.0,0.0,0.0,0.0,0.0,0.0,0.0,0.0,0.0,0.0,0.0,0.0,0.0,0.0,0.0,0.0,0.0,0.0,0.0,0.0,0.0,0.0,0.0,0.0,-2.5459,-2.659,0.0,-2.9654,-2.9553,-2.8938,-2.7067,-2.536,-2.4079,0.0,0.0,0.0,0.0,0.0,0.0,0.0,0.0,0.0,0.0,0.0,0.0,0.0,0.0,0.0,0.0,0.0,0.0,0.0,0.0,0.0,0.0,0.0,0.0,0.0,0.0,0.0,0.0,0.0,0.0,0.0,0.0,0.0,0.0,0.0,0.0,0.0,0.0,0.0,0.0,0.0,0.0,0.0,0.0,0.0,0.0,0.0,0.0,0.0,0.0,0.0,0.0,0.0,0.0,0.0,0.0,0.0,0.0,0.0,0.0,0.0,0.0,0.0,0.0,0.0,0.0,0.0,0.0,0.0,0.0,0.0,0.0,0.0,0.0,0.0,0.0,0.0,0.0,0.0,0.0,0.0,0.0,0.0,0.0,0.0,0.0,0.0,0.0,0.0,0.0,0.0,0.0,0.0,0.0,0.0,0.0,0.0,0.0,0.0,0.0,0.0,0.0,-2.5586,-2.5895,-2.6866,0.0,-2.9628,-2.9277,-2.8725,-2.6615,-2.4883,-2.3778,0.0,0.0,0.0,0.0,0.0,0.0,0.0,0.0,0.0,0.0,0.0,0.0,0.0,0.0,0.0,0.0,0.0,0.0,0.0,0.0,0.0,0.0,0.0,0.0,0.0,0.0,0.0,0.0,0.0,0.0,0.0,0.0,0.0,0.0,0.0,0.0,0.0,0.0,0.0,0.0,0.0,0.0,0.0,0.0,0.0,0.0,0.0,0.0,0.0,0.0,0.0,0.0,0.0,0.0,0.0,0.0,0.0,0.0,0.0,0.0,0.0,0.0,0.0,0.0,0.0,0.0,0.0,0.0,0.0,0.0,0.0,0.0,0.0,0.0,0.0,0.0,0.0,0.0,0.0,0.0,0.0,0.0,0.0,0.0,0.0,0.0,0.0,0.0,0.0,0.0,0.0,0.0,0.0,0.0,0.0,0.0,0.0,0.0,0.0,0.0,0.0,0.0,-2.5844,-2.6342,-2.7354,-2.9553,-2.9277,-2.8662,-2.8147,-2.6088,-2.4299,0.0,0.0,0.0,0.0,0.0,0.0,0.0,0.0,0.0,0.0,0.0,0.0,0.0,0.0,0.0,0.0,0.0,0.0,0.0,0.0,0.0,0.0,0.0,0.0,0.0,0.0,0.0,0.0,0.0,0.0,0.0,0.0,0.0,0.0,0.0,0.0,0.0,0.0,0.0,0.0,0.0,0.0,0.0,0.0,0.0,0.0,0.0,0.0,0.0,0.0,0.0,0.0,0.0,0.0,0.0,0.0,0.0,0.0,0.0,0.0,0.0,0.0,0.0,0.0,0.0,0.0,0.0,0.0,0.0,0.0,0.0,0.0,0.0,0.0,0.0,0.0,0.0,0.0,0.0,0.0,0.0,0.0,0.0,0.0,0.0,0.0,0.0,0.0,0.0,0.0,0.0,0.0,0.0,0.0,0.0,0.0,0.0,0.0,0.0,0.0,0.0,0.0,0.0,-2.6279,-2.6544,-2.7354,-2.9553,-2.9277,-2.8662,-2.8147,-2.5737,-2.3929,-2.3145,0.0,0.0,0.0,0.0,0.0,0.0,0.0,0.0,0.0,0.0,0.0,0.0,0.0,0.0,0.0,0.0,0.0,0.0,0.0,0.0,0.0,0.0,0.0,0.0,0.0,0.0,0.0,0.0,0.0,0.0,0.0,0.0,0.0,0.0,0.0,0.0,0.0,0.0,0.0,0.0,0.0,0.0,0.0,0.0,0.0,0.0,0.0,0.0,0.0,0.0,0.0,0.0,0.0,0.0,0.0,0.0,0.0,0.0,0.0,0.0,0.0,0.0,0.0,0.0,0.0,0.0,0.0,0.0,0.0,0.0,0.0,0.0,0.0,0.0,0.0,0.0,0.0,0.0,0.0,0.0,0.0,0.0,0.0,0.0,0.0,0.0,0.0,0.0,0.0,0.0,0.0,0.0,0.0,0.0,0.0,0.0,0.0,0.0,0.0,0.0,0.0,0.0,-2.6534,-2.6714,-2.7425,-2.9553,-2.9076,-2.8473,-2.8122,-2.536,-2.3471,-2.312,0.0,0.0,0.0,0.0,0.0,0.0,0.0,0.0,0.0,0.0,0.0,0.0,0.0,0.0,0.0,0.0,0.0,0.0,0.0,0.0,0.0,0.0,0.0,0.0,0.0,0.0,0.0,0.0,0.0,0.0,0.0,0.0,0.0,0.0,0.0,0.0,0.0,0.0,0.0,0.0,0.0,0.0,0.0,0.0,0.0,0.0,0.0,0.0,0.0,0.0,0.0,0.0,0.0,0.0,0.0,0.0,0.0,0.0,0.0,0.0,0.0,0.0,0.0,0.0,0.0,0.0,0.0,0.0,0.0,0.0,0.0,0.0,0.0,0.0,0.0,0.0,0.0,0.0,0.0,0.0,0.0,0.0,0.0,0.0,0.0,0.0,0.0,0.0,0.0,0.0,0.0,0.0,0.0,0.0,0.0,0.0,0.0,0.0,0.0,0.0,0.0,0.0,-2.6644,-2.6782,-2.7506,-2.9591,-2.8775,-2.8097,-2.8097,-2.5076,-2.317,-2.3095,0.0,0.0,0.0,0.0,0.0,0.0,0.0,0.0,0.0,0.0,0.0,0.0,0.0,0.0,0.0,0.0,0.0,0.0,0.0,0.0,0.0,0.0,0.0,0.0,0.0,0.0,0.0,0.0,0.0,0.0,0.0,0.0,0.0,0.0,0.0,0.0,0.0,0.0,0.0,0.0,0.0,0.0,0.0,0.0,0.0,0.0,0.0,0.0,0.0,0.0,0.0,0.0,0.0,0.0,0.0,0.0,0.0,0.0,0.0,0.0,-2.5694,0.0,0.0,0.0,0.0,0.0,0.0,0.0,0.0,0.0,0.0,0.0,0.0,0.0,0.0,0.0,0.0,0.0,0.0,0.0,0.0,0.0,0.0,0.0,0.0,0.0,0.0,0.0,0.0,0.0,0.0,0.0,0.0,0.0,0.0,0.0,0.0,0.0,0.0,0.0,0.0,0.0,-2.6793,-2.6884,-2.7541,-2.9796,-2.8887,-2.8097,-2.8097,-2.546,-2.3627,-2.312,0.0,0.0,0.0,0.0,0.0,0.0,0.0,0.0,0.0,0.0,0.0,0.0,0.0,0.0,0.0,0.0,0.0,0.0,0.0,0.0,0.0,0.0,0.0,0.0,0.0,0.0,0.0,0.0,0.0,0.0,0.0,0.0,0.0,0.0,0.0,0.0,0.0,0.0,0.0,0.0,0.0,0.0,0.0,0.0,0.0,0.0,0.0,0.0,0.0,0.0,0.0,0.0,0.0,0.0,0.0,0.0,0.0,0.0,0.0,0.0,0.0,-2.743,0.0,0.0,0.0,0.0,0.0,0.0,0.0,0.0,0.0,0.0,0.0,0.0,0.0,0.0,0.0,0.0,0.0,0.0,0.0,0.0,0.0,0.0,0.0,0.0,0.0,0.0,0.0,0.0,0.0,0.0,0.0,0.0,0.0,0.0,0.0,0.0,0.0,0.0,0.0,0.0,-2.7333,-2.7499,-2.8129,-3.005,-2.9264,-2.852,-2.8268,-2.5845,-2.4155,-2.3577,-2.2523,0.0,0.0,0.0,0.0,0.0,0.0,0.0,0.0,0.0,0.0,0.0,0.0,0.0,0.0,0.0,0.0,0.0,0.0,0.0,0.0,0.0,0.0,0.0,0.0,0.0,0.0,0.0,0.0,0.0,0.0,0.0,0.0,0.0,0.0,0.0,0.0,0.0,0.0,0.0,0.0,0.0,0.0,0.0,0.0,0.0,0.0,0.0,0.0,0.0,0.0,0.0,0.0,0.0,0.0,-3.1874,-3.3143,-3.2802,-3.2868,-3.3129,-3.0765,-2.9707,-2.95,0.0,0.0,0.0,0.0,0.0,0.0,0.0,0.0,0.0,0.0,0.0,0.0,0.0,0.0,0.0,0.0,0.0,0.0,0.0,0.0,0.0,0.0,0.0,0.0,0.0,-2.6799,-2.7071,0.0,0.0,0.0,0.0,0.0,0.0,0.0,0.0,0.0,0.0,0.0,0.0,-2.7919,-2.8213,-2.8815,-3.0328,-2.9706,-2.8971,-2.845,-2.6366,-2.4782,-2.4054,-2.2698,-2.1995,0.0,0.0,0.0,0.0,0.0,0.0,0.0,0.0,0.0,0.0,0.0,0.0,0.0,0.0,0.0,0.0,0.0,0.0,0.0,0.0,0.0,0.0,0.0,0.0,0.0,0.0,0.0,0.0,0.0,0.0,0.0,0.0,-2.3499,-2.4039,0.0,0.0,0.0,0.0,0.0,0.0,0.0,0.0,0.0,0.0,0.0,0.0,0.0,0.0,-3.2786,-3.3361,-3.3673,-3.3871,-3.4819,-3.5174,-3.4972,-3.5357,-3.5566,-3.5626,-3.5253,0.0,-3.0712,-2.9954,0.0,0.0,0.0,0.0,0.0,0.0,0.0,0.0,0.0,0.0,0.0,0.0,0.0,0.0,0.0,0.0,0.0,0.0,0.0,0.0,0.0,0.0,-2.798,-2.8074,-2.8537,-2.8943,0.0,-2.7661,-2.6425,-2.5897,0.0,0.0,0.0,0.0,0.0,0.0,0.0,0.0,-2.8203,-2.8681,-2.9316,-3.0531,-2.9781,-2.8971,-2.845,-2.7082,-2.5644,-2.4104,-2.3778,-2.305,-2.1644,-2.2447,0.0,0.0,0.0,0.0,0.0,0.0,0.0,0.0,0.0,0.0,0.0,0.0,0.0,0.0,0.0,0.0,0.0,0.0,0.0,0.0,0.0,0.0,0.0,0.0,0.0,0.0,0.0,0.0,0.0,-2.4526,-2.5094,-2.4706,-2.5527,-2.5937,0.0,0.0,0.0,0.0,0.0,0.0,0.0,0.0,0.0,-3.2056,-3.2702,-3.3524,-3.4554,-3.5417,-3.6175,-3.6828,-3.7325,-3.7769,-3.8161,-3.8109,-3.8083,-3.8083,-3.8083,-3.6854,-3.4737,-3.2855,-3.1548,-3.0634,0.0,0.0,0.0,0.0,-2.9483,-2.9673,-2.9102,-2.874,0.0,0.0,0.0,0.0,0.0,0.0,0.0,0.0,0.0,0.0,0.0,0.0,0.0,-3.0221,-3.0525,-3.0634,-3.032,-2.9379,-2.836,0.0,-2.6791,-2.6373,-2.6321,0.0,0.0,0.0,0.0,0.0,-2.8726,-2.9334,-2.9939,-3.0782,-3.0251,-2.9513,-2.8645,-2.7546,-2.6339,-2.4983,-2.4029,-2.3326,-2.2924,-2.2749,-2.2627,0.0,0.0,0.0,0.0,0.0,0.0,0.0,0.0,0.0,0.0,0.0,0.0,0.0,0.0,0.0,0.0,0.0,0.0,0.0,0.0,0.0,0.0,0.0,0.0,0.0,0.0,0.0,0.0,-2.5704,-2.6405,-2.5733,-2.7028,-2.7667,0.0,0.0,0.0,0.0,0.0,0.0,-3.2071,-3.3169,-3.4136,-3.4868,-3.5887,-3.6619,-3.7037,-3.79,-3.8815,-3.9808,-3.9651,-4.0043,-4.0853,-4.0305,-4.0043,-4.0043,-4.0043,-3.939,-3.8135,-3.5365,-3.3639,-3.2581,-3.1432,-3.0843,-3.0581,-3.0581,-3.0869,-3.1159,-3.0726,-3.0432,-3.0201,-3.0355,0.0,-2.8543,-2.8933,0.0,0.0,0.0,0.0,-2.9849,-3.0388,-3.0895,-3.1339,-3.1876,-3.2032,-3.1876,-3.1339,-3.0869,-3.0153,0.0,-2.815,-2.7654,-2.7426,0.0,0.0,0.0,0.0,-2.8482,-2.9379,-3.0006,-3.0503,-3.0947,-3.0672,-3.0019,-2.8852,-2.8043,-2.7047,-2.5753,-2.4456,-2.3873,-2.4205,-2.3401,-2.3135,-2.3558,0.0,0.0,0.0,0.0,0.0,0.0,0.0,0.0,0.0,0.0,0.0,0.0,0.0,0.0,0.0,0.0,0.0,0.0,0.0,0.0,0.0,0.0,0.0,0.0,0.0,0.0,0.0,0.0,0.0,-2.7372,-2.8328,0.0,0.0,0.0,0.0,-3.2384,-3.4016,-3.5008,-3.5077,-3.6175,-3.7299,-3.8423,-3.9076,-4.0174,-4.1845,-4.1924,-4.2213,-4.2788,-4.2265,-4.2081,-4.2107,-4.1481,-4.1219,-4.1219,-4.1219,-4.0592,-3.9337,-3.6959,-3.5626,-3.4999,-3.3875,-3.3718,-3.4136,-3.4136,-3.4162,-3.4188,-3.4147,-3.3416,-3.2607,-3.3181,-3.2215,-3.0805,-3.0843,-3.0477,0.0,0.0,-3.0869,-3.1026,-3.1562,-3.1745,-3.1902,-3.2515,-3.2646,-3.2489,-3.1876,-3.1745,-3.1223,0.0,-2.8786,-2.8551,-2.91,0.0,-2.8464,-2.91,-2.964,-2.9996,-3.0048,-3.0581,-3.0947,-3.0973,-3.0811,-3.0232,-2.9103,-2.8615,-2.7627,-2.5978,-2.5635,-2.5259,-2.4775,-2.47,-2.4456,-2.3954,-2.4109,0.0,0.0,0.0,0.0,0.0,0.0,0.0,0.0,0.0,0.0,0.0,0.0,0.0,0.0,0.0,0.0,0.0,0.0,0.0,0.0,0.0,0.0,0.0,0.0,0.0,0.0,0.0,0.0,-3.027,-3.2279,0.0,0.0,-3.3483,-3.4292,-3.4868,-3.6175,-3.7299,-3.8031,-3.952,-4.0671,-4.1455,-4.2422,-4.3049,-4.3311,-4.3624,-4.3729,-4.3572,-4.3363,-4.3311,-4.3284,-4.2291,-4.1873,-4.1847,-4.1481,-4.1089,-4.0618,-3.939,-3.7665,-3.573,-3.4972,-3.458,-3.4397,-3.4397,-3.4633,-3.4972,-3.4972,-3.4711,-3.4214,-3.33,-3.2594,-3.194,-3.1209,-3.1104,-3.1249,-3.1432,-3.181,-3.2228,-3.2803,-3.296,-3.3117,-3.3666,-3.3535,-3.3221,-3.3012,-3.2646,-3.2202,-3.1601,-3.0424,-2.9457,-2.9301,-2.9127,-2.9074,-2.9284,-2.9771,-3.01,-3.01,-3.0634,-3.0973,-3.0973,-3.0811,-3.0232,-2.9103,-2.8749,-2.8007,-2.668,-2.6079,-2.5701,-2.5499,-2.5203,-2.4899,-2.4722,-2.476,-2.4637,0.0,0.0,0.0,0.0,0.0,0.0,0.0,0.0,0.0,0.0,0.0,0.0,0.0,0.0,0.0,0.0,0.0,0.0,0.0,0.0,0.0,0.0,0.0,0.0,0.0,0.0,-3.2098,-3.3107,-3.5557,-3.6923,-3.6209,-3.6854,-3.7639,-3.837,-3.9364,-4.0331,-4.1298,-4.2605,-4.352,-4.3885,-4.4826,-4.5166,-4.4748,-4.514,-4.5036,-4.446,-4.4251,-4.4068,-4.3833,-4.2735,-4.2211,-4.2185,-4.1559,-4.1193,-4.0984,-4.0566,-3.9181,-3.722,-3.6671,-3.6096,-3.5574,-3.5574,-3.5835,-3.6149,-3.594,-3.5861,-3.5652,-3.4293,-3.3718,-3.3456,-3.2881,-3.2855,-3.2972,-3.2972,-3.3273,-3.3613,-3.3822,-3.3875,-3.3953,-3.4319,-3.411,-3.3822,-3.3639,-3.3273,-3.2934,-3.2725,-3.1627,-3.0544,-3.0215,-2.998,-2.9849,-2.9849,-3.0189,-3.0388,-3.0388,-3.0738,-3.0973,-3.0973,-3.0887,-3.0344,-2.921,-2.9073,-2.8527,-2.719,-2.6764,-2.6426,-2.6181,-2.5892,-2.5721,-2.5655,-2.5575,-2.5351,-2.5003,0.0,0.0,0.0,0.0,0.0,0.0,0.0,0.0,0.0,0.0,0.0,0.0,0.0,0.0,0.0,0.0,0.0,0.0,0.0,0.0,0.0,0.0,0.0,-2.9117,-3.1492,-3.392,-3.5789,-3.8051,-3.9543,-3.9737,-4.0801,-4.1925,-4.3049,-4.365,-4.4199,-4.4774,-4.5375,-4.5634,-4.5634,-4.6238,-4.6525,-4.6499,-4.6499,-4.6212,-4.5637,-4.5036,-4.446,-4.3885,-4.2787,-4.2264,-4.2211,-4.1585,-4.101,-4.0435,-4.0435,-4.0122,-3.9573,-3.8972,-3.8397,-3.7926,-3.7926,-3.7926,-3.7821,-3.7246,-3.7037,-3.6933,-3.6332,-3.5783,-3.5443,-3.594,-3.573,-3.5312,-3.5312,-3.5312,-3.5182,-3.458,-3.4424,-3.4424,-3.4397,-3.4397,-3.4267,-3.3718,-3.3613,-3.3456,-3.2855,-3.228,-3.185,-3.1823,-3.1392,-3.0999,-3.0973,-3.0973,0.0,-3.0973,-3.0973,-3.0973,-3.0973,-3.0973,-3.0566,-2.9415,-2.959,-2.9067,-2.7419,-2.7662,-2.754,-2.6739,-2.6909,-2.6909,-2.6714,-2.6514,-2.6168,-2.563,0.0,0.0,0.0,0.0,0.0,0.0,0.0,0.0,0.0,0.0,0.0,0.0,0.0,0.0,0.0,0.0,0.0,0.0,0.0,0.0,0.0,0.0,-3.2398,-3.3389,-3.5273,-3.7521,-4.0119,-4.1723,-4.2814,-4.3337,-4.4016,-4.4748,-4.548,-4.5663,-4.6003,-4.6521,-4.673,-4.6808,-4.6808,-4.7414,-4.7519,-4.71,-4.71,-4.6813,-4.6238,-4.5663,-4.5297,-4.5114,-4.3938,-4.318,-4.2762,-4.2186,-4.1611,-4.1063,-4.1063,-4.0723,-4.0148,-3.9573,-3.8998,-3.8475,-3.8475,-3.824,-3.7874,-3.7717,-3.7665,-3.756,-3.6959,-3.6645,-3.6488,-3.6201,-3.5992,-3.5887,-3.5887,-3.5887,-3.5757,-3.5208,-3.5051,-3.4946,-3.4502,-3.4397,-3.4345,-3.4214,-3.4162,-3.4136,-3.3953,-3.3483,-3.2829,-3.1954,-3.1667,-3.147,-3.1052,-3.0973,0.0,-3.0973,-3.0973,-3.0973,-3.0973,-3.0973,-3.0566,-2.9415,-2.9369,-2.8864,-2.7527,-2.7444,-2.7369,-2.7146,-2.7214,-2.7214,-2.7146,-2.681,-2.6479,0.0,0.0,0.0,0.0,0.0,0.0,0.0,0.0,0.0,0.0,0.0,0.0,0.0,0.0,0.0,0.0,0.0,0.0,0.0,0.0,0.0,0.0,-3.4443,-3.6967,-3.928,-3.9642,-4.0516,-4.2835,-4.4401,-4.5558,-4.6159,-4.6734,-4.731,-4.7858,-4.7702,-4.7728,-4.8041,-4.7832,-4.7702,-4.7702,-4.8015,-4.8015,-4.7702,-4.7702,-4.7388,-4.6839,-4.6499,-4.6025,-4.5584,-4.467,-4.3938,0.0,-4.2762,-4.2343,-4.2004,-4.1768,-4.1455,0.0,0.0,0.0,0.0,0.0,-3.837,-3.79,-3.79,-3.79,-3.7848,-3.7508,-3.7377,-3.7325,-3.6959,-3.6854,-3.6802,-3.6541,-3.6305,-3.6044,-3.573,-3.5469,-3.5208,-3.4868,-3.4763,-3.4711,-3.445,-3.4397,-3.4397,-3.4397,-3.4136,0.0,-3.2685,-3.2137,-3.1693,-3.1392,-3.113,-3.0973,-3.0973,-3.0973,-3.0973,-3.0973,-3.0973,-3.0566,-2.9415,-2.951,0.0,0.0,0.0,-2.765,-2.7382,-2.7348,0.0,0.0,0.0,-2.6961,-2.6862,0.0,0.0,0.0,-2.7646,-2.7881,0.0,0.0,0.0,0.0,0.0,0.0,0.0,0.0,0.0,0.0,0.0,0.0,0.0,0.0,0.0,0.0,-3.9272,-4.2135,-4.55,-4.418,-4.3332,-4.4755,-4.6435,-4.7754,-4.8329,-4.893,-4.9505,-5.0054,-4.9636,-4.9374,-4.9374,0.0,0.0,0.0,0.0,-4.825,-4.8172,-4.8172,-4.7937,-4.744,-4.7304,-4.6704,-4.5715,-4.514,-4.4513,-4.3833,-4.3337,-4.3049,-4.2892,-4.2369,-4.2185,-4.2002,-4.0853,-4.0122,-3.9625,-3.8945,-3.8397,-3.7978,-3.7926,0.0,0.0,-3.79,-3.79,-3.79,-3.79,-3.79,-3.7795,-3.7246,-3.6724,-3.6305,-3.6227,-3.5861,-3.5469,-3.5417,-3.5391,-3.5234,-3.4711,-3.4528,-3.4502,-3.4502,-3.445,-3.4241,-3.377,-3.2777,-3.198,-3.1902,-3.1496,-3.1156,-3.1078,-3.1078,-3.1052,-3.0999,0.0,0.0,-2.9457,-2.9771,-2.9317,-2.7699,-2.8046,-2.8046,-2.7516,-2.739,-2.7356,-2.749,-2.749,-2.749,-2.749,-2.749,-2.8189,-2.9476,-2.8941,-2.9079,0.0,0.0,0.0,0.0,0.0,0.0,0.0,0.0,0.0,0.0,0.0,0.0,0.0,0.0,0.0,-3.9727,-4.2608,-4.532,-4.8003,-4.8003,-4.784,-4.812,-4.8557,-4.8956,-4.9505,-5.0106,-5.0681,-5.123,-5.1178,-5.1126,-5.1126,-5.0577,0.0,-4.893,-4.8904,-4.8669,-4.8198,-4.8172,-4.812,-4.8015,0.0,0.0,-4.629,-4.5715,-4.4879,-4.3912,-4.3755,-4.318,-4.2368,-4.2264,-4.1899,-4.1402,-4.0697,-4.0357,-4.0148,-3.9102,-3.8632,-3.8501,-3.8057,-3.79,-3.79,-3.79,-3.79,-3.79,-3.79,-3.79,0.0,-3.7769,-3.7639,-3.7456,-3.6959,-3.675,-3.6541,-3.607,-3.594,-3.5913,-3.5809,-3.5443,-3.5129,-3.5129,-3.4737,-3.4371,-3.4267,-3.3692,-3.3091,-3.2594,-3.2437,-3.2202,-3.1693,-3.1641,-3.1496,-3.1026,-3.0973,-3.0712,-2.9996,-2.964,-2.9091,-2.8255,-2.7889,-2.762,-2.749,-2.749,-2.7456,-2.749,-2.749,-2.749,-2.749,-2.749,-2.8189,-2.9504,-2.9374,-2.9694,0.0,0.0,0.0,0.0,0.0,0.0,0.0,0.0,0.0,0.0,0.0,-3.2619,0.0,0.0,-4.04,-4.3919,-4.6277,-4.8332,-5.0489,-5.0524,-5.0132,-4.9557,-4.9766,-5.0054,-5.0315,-5.0864,-5.1439,-5.2014,-5.1779,-5.1596,-5.1596,-5.1335,-5.0551,-4.9139,-4.9348,-4.9061,-4.8198,-4.8172,-4.8172,-4.8172,-4.7885,-4.731,-4.6473,-4.6186,-4.5401,-4.4278,-4.399,-4.3598,-4.3023,-4.2447,-4.1821,-4.1298,-4.0984,-4.0697,-4.0305,-3.9468,-3.8972,-3.8632,-3.8083,-3.79,-3.79,-3.79,-3.79,-3.79,-3.79,-3.79,-3.79,-3.79,-3.7691,-3.7456,-3.7456,-3.722,-3.6933,-3.6619,-3.6541,-3.6462,-3.6175,-3.5678,-3.5286,-3.5286,-3.4816,-3.4397,-3.4397,-3.4162,-3.3796,-3.3221,-3.2881,-3.2594,-3.2306,-3.198,-3.1693,-3.1444,-3.1156,-3.0764,-3.0153,-2.9327,-2.8734,-2.842,-2.7837,-2.749,-2.749,-2.749,-2.749,-2.749,-2.749,-2.749,-2.749,-2.749,-2.8026,-2.8998,-2.8998,-2.9732,0.0,0.0,0.0,0.0,0.0,0.0,0.0,0.0,-3.157,-3.2695,-3.4273,-3.6273,-3.8803,-4.1587,-4.4527,-4.7879,-4.9602,-5.11,-5.2616,-5.2223,-5.1387,-5.0342,-5.0655,-5.0917,-5.0812,-5.1282,-5.1858,-5.2459,-5.204,-5.1779,-5.1779,-5.1779,-5.0995,-4.9296,-4.9662,-4.9348,-4.8198,-4.8172,-4.8172,-4.8172,-4.8172,-4.7571,-4.6473,-4.6473,-4.5846,-4.4642,-4.4016,-4.3702,-4.3624,-4.2474,-4.1742,-4.1324,-4.1324,-4.101,-4.0514,-3.9965,-3.939,-3.8815,-3.8266,-3.8004,-3.79,-3.79,-3.79,-3.79,-3.79,-3.79,-3.79,-3.79,-3.756,-3.7299,-3.7769,-3.7534,-3.7168,-3.7168,-3.7168,-3.7037,-3.6567,-3.6018,-3.5626,-3.5626,-3.5051,-3.458,-3.458,-3.4476,-3.4241,-3.3822,-3.3326,-3.2986,-3.2881,-3.2463,-3.2058,-3.1823,-3.1418,-3.0869,-3.0153,-2.9274,-2.8673,-2.8603,-2.802,-2.7646,-2.7646,-2.7542,-2.749,-2.749,-2.749,-2.749,-2.749,-2.749,-2.7894,-2.868,-2.868,-2.9625,-2.792,-2.7575,-2.7626,-2.9435,-2.932,-2.9825,0.0,0.0,-3.5336,-3.6805,-3.9041,-4.0952,-4.1622,-4.5162,-4.8518,-5.0201,-5.1899,-5.3243,-5.3922,-5.3086,-5.2145,-5.1492,-5.1465,-5.1309,-5.0838,-5.1282,-5.1858,-5.2459,-5.2433,-5.2406,-5.2406,-5.2406,-5.1596,-4.9845,-4.9845,-4.9348,-4.8198,-4.8172,-4.8172,-4.8172,-4.8172,-4.7571,-4.6473,-4.6473,-4.5846,-4.467,-4.3598,-4.3127,-4.3023,-4.1873,-4.1376,-4.1324,-4.1324,-4.1272,-4.1141,-4.054,-3.9991,-3.9416,-3.8841,-3.8318,-3.79,-3.79,-3.79,-3.79,-3.79,-3.79,-3.79,-3.79,-3.7848,-3.7821,-3.7874,-3.7848,-3.7795,-3.7795,-3.7795,-3.7795,-3.7717,-3.7246,-3.6802,-3.6802,-3.594,-3.5208,-3.5208,-3.4737,-3.4371,-3.4319,-3.4241,-3.4031,-3.3561,-3.343,-3.2986,-3.1902,-3.1745,-3.1275,-3.0179,-2.997,-2.9719,-2.9222,-2.8621,-2.8281,-2.8281,-2.7785,-2.749,-2.749,-2.749,-2.749,-2.749,-2.749,-2.8157,-2.938,-2.938,-2.9842,-2.8861,-2.9137,0.0,0.0,-3.2121,-3.3683,-3.5887,-3.7311,-3.8436,-3.9354,-4.1329,-4.3286,-4.4707,-4.7259,-4.9671,0.0,-5.2406,-5.3086,-5.3661,-5.2145,-5.076,-5.0211,-4.9819,-4.9923,-5.0707,-5.0995,-5.1518,-5.2433,-5.2171,-5.1962,-5.1962,-5.1962,-5.1335,-4.9923,-4.9897,-4.9505,-4.8721,-4.8355,-4.8172,-4.8172,-4.8172,-4.7571,-4.6473,-4.6473,-4.548,-4.3702,-4.3232,-4.2631,-4.1977,-4.1507,-4.1324,-4.1324,-4.1324,-4.1324,-4.1246,-4.0644,-4.0069,-3.952,-3.8919,-3.8344,-3.79,-3.79,-3.79,-3.79,-3.79,-3.79,-3.79,-3.79,-3.79,-3.79,-3.79,-3.79,-3.79,-3.79,-3.79,-3.79,-3.79,-3.7429,-3.7011,-3.7011,-3.6332,-3.5678,-3.5338,-3.5077,-3.4789,-3.445,-3.4397,-3.4319,-3.4084,-3.3796,-3.3143,-3.1928,-3.1797,-3.1484,-3.0686,-3.0283,-2.9996,-2.9797,-2.9222,-2.8786,-2.8386,-2.815,-2.7863,-2.7516,-2.749,-2.749,-2.749,-2.749,-2.7789,-2.8357,-2.8744,-2.9282,-2.9619,0.0,0.0,-3.2925,-3.5175,-3.7425,-3.8619,-4.0043,-4.1306,-4.2109,-4.347,-4.5042,-4.6846,-4.8382,0.0,-5.197,-5.238,-5.2589,-5.2877,-5.1178,-4.9584,-4.8695,-4.7937,-4.7989,-4.9244,-4.9793,-5.0551,-5.1701,-5.123,-5.11,-5.157,-5.1465,-5.0917,-4.9923,-4.9897,-4.9557,-4.8852,-4.8407,-4.812,-4.7937,-4.7937,-4.7336,-4.6238,-4.6081,-4.4983,-4.3258,-4.3075,-4.2474,-4.1533,-4.1376,-4.1324,-4.1324,-4.1324,-4.1324,-4.1272,-4.0827,-4.0226,-3.9547,-3.9102,-3.8501,-3.79,-3.79,-3.79,-3.79,-3.79,-3.79,-3.79,-3.79,-3.79,-3.79,-3.79,-3.79,-3.79,-3.79,-3.79,-3.79,-3.79,-3.756,-3.7246,-3.7246,-3.675,-3.6227,-3.5835,-3.5495,-3.5155,-3.4711,-3.4502,-3.4397,-3.4397,-3.3927,-3.3273,-3.2372,-3.2006,-3.1641,-3.1261,-3.0686,-3.0335,-3.0335,-2.9823,-2.9248,-2.8682,-2.8499,-2.8124,-2.7516,-2.749,-2.749,-2.749,-2.749,-2.759,-2.7789,-2.8254,-2.8967,0.0,0.0,-3.3155,-3.614,-3.8045,-3.9974,-4.2936,-4.3648,-4.413,-4.5645,-4.6019,-4.6436,-4.7384,-4.8521,-4.9785,-5.133,-5.2119,-5.2302,-5.1727,-5.0629,-4.927,-4.7539,-4.6338,-4.5715,0.0,-4.7283,-4.8747,-4.9871,-4.9479,-4.9871,-5.1518,-5.11,-5.0524,-4.9897,-4.9897,-4.9348,-4.8224,-4.8198,-4.7911,-4.7304,-4.7304,-4.6704,-4.5637,-4.5036,-4.4434,-4.3807,-4.3258,-4.2683,-4.2159,-4.1533,-4.1324,-4.1324,-4.1324,-4.1324,-4.1324,-4.1298,-4.0566,-3.9599,-3.9599,-3.8841,-3.79,-3.79,-3.79,-3.79,-3.79,-3.79,-3.79,-3.79,-3.79,-3.79,-3.79,-3.79,-3.79,-3.79,-3.79,-3.79,-3.79,-3.79,-3.7874,-3.7874,-3.7403,-3.6959,-3.6959,-3.6044,-3.5286,-3.5286,-3.4763,-3.4397,-3.4397,-3.3927,-3.3587,-3.3535,-3.2476,-3.1797,-3.1771,-3.1287,-3.0947,-3.0947,-3.0424,-2.9813,-2.9274,-2.8734,-2.8124,-2.7516,-2.749,-2.749,-2.749,-2.749,-2.7855,-2.8481,-2.8481,-2.9219,0.0,0.0,-3.7104,-3.9469,-4.1443,-4.3257,-4.4956,-4.5599,-4.5897,-4.5996,-4.5131,-4.4505,-4.5122,-4.5238,-4.5923,-4.7867,-4.9348,-5.0159,-4.9949,-4.9584,-4.8433,-4.5924,-4.5297,0.0,0.0,0.0,0.0,-4.812,-4.8015,-4.8669,-5.0368,-4.9949,-4.9923,-5.0472,-4.974,-4.9165,-4.8773,-4.8015,-4.7519,-4.7278,-4.6495,-4.6003,-4.5584,-4.4617,-4.3833,-4.3284,-4.2709,-4.2134,-4.1585,-4.1402,-4.1324,-4.1324,-4.1324,-4.1324,-4.1324,-4.1324,-4.0827,-4.0095,-3.973,-3.8867,-3.79,-3.79,-3.79,-3.79,-3.79,-3.79,-3.79,-3.79,-3.79,-3.79,-3.79,-3.79,-3.79,-3.79,-3.79,-3.79,-3.79,-3.79,-3.79,-3.79,-3.7743,-3.7482,-3.7063,-3.6358,-3.5574,-3.4816,-3.4528,-3.4397,-3.4397,-3.4241,-3.3979,-3.3639,-3.2881,-3.2254,-3.1823,-3.1313,-3.0973,-3.0973,-3.0817,-3.0451,-2.9839,-2.9274,-2.8699,-2.8098,-2.7673,-2.749,-2.749,-2.749,-2.7623,-2.7855,-2.8744,-2.9188,-3.5129,-3.7724,-4.0226,-4.2614,-4.4451,-4.5898,-4.6747,-4.6609,-4.615,-4.5388,-4.3514,-4.209,-4.2308,-4.1806,-4.2169,-4.4559,-4.6055,-4.7127,-4.7754,-4.7675,-4.6944,-4.5271,-4.4696,0.0,0.0,0.0,0.0,-4.663,-4.7043,-4.8094,-4.9793,-4.9766,-4.9923,-5.0446,-4.9766,-4.9165,-4.8773,-4.8015,-4.744,-4.7022,-4.5846,-4.5192,-4.4983,-4.4225,-4.3441,-4.2683,-4.2317,-4.1847,-4.1324,-4.1324,-4.1324,-4.1324,-4.1324,-4.1324,-4.1324,-4.1324,-4.0932,-4.0331,-3.9808,-3.8998,-3.8161,-3.7978,-3.79,-3.79,-3.79,-3.79,-3.79,-3.79,-3.79,-3.79,-3.79,-3.79,-3.79,-3.79,-3.79,-3.79,-3.79,-3.79,-3.79,-3.79,-3.79,-3.7769,-3.7403,-3.6645,-3.5783,-3.4868,-3.4528,-3.4397,-3.4397,-3.4397,-3.4267,-3.3927,-3.3352,-3.2777,-3.2163,-3.1627,-3.1209,-3.0999,-3.0973,-3.0738,-3.0127,-2.9588,-2.9022,-2.842,-2.7811,-2.749,-2.749,-2.749,-2.749,-2.7523,-2.839,-2.868,-3.7196,-3.9882,-4.2545,-4.5484,-4.6931,-4.7734,-4.8148,-4.6655,-4.4955,-4.3871,-4.1294,-3.9284,0.0,0.0,-3.8888,-4.1641,-4.2631,-4.3729,-4.5454,-4.5323,-4.5192,0.0,0.0,0.0,0.0,0.0,0.0,-4.5584,0.0,-4.8041,-4.9793,-5.0472,-5.0551,-5.0002,-4.9923,-4.9348,-4.825,-4.8172,-4.7571,-4.6421,-4.5297,-4.446,-4.3912,-4.3912,-4.3284,-4.2264,-4.2185,-4.1821,-4.1324,-4.1324,-4.1324,-4.1324,-4.1324,-4.1324,-4.1324,-4.1324,-4.0958,-4.0383,-3.9834,-3.9233,-3.8632,-3.8109,-3.7926,-3.79,-3.79,-3.79,-3.79,-3.79,-3.79,-3.79,-3.79,-3.79,-3.79,-3.79,-3.79,-3.79,-3.79,-3.79,-3.79,-3.79,-3.79,-3.79,-3.7874,-3.6907,-3.594,-3.5391,-3.4816,-3.4424,-3.4397,-3.4397,-3.4397,-3.4397,-3.3927,-3.3352,-3.2777,-3.2137,-3.1562,-3.1052,-3.0999,-3.0738,-3.0153,-2.964,-2.9039,-2.8472,-2.7863,-2.7516,-2.749,-2.749,-2.749,-2.749,-2.7523,-2.7888,-4.0456,-4.3303,-4.5806,-4.6954,-4.7365,-4.7367,-4.6357,-4.4566,-4.2702,-4.1351,-3.8527,-3.6382,0.0,0.0,0.0,-3.9864,-4.2526,0.0,-4.66,-4.7885,0.0,0.0,0.0,-4.595,-4.4643,-4.4905,0.0,0.0,-4.6525,-4.7623,-4.9766,-5.0472,-5.0917,-5.1152,-5.0342,-4.9557,-4.8852,-4.7989,-4.697,-4.5846,-4.5532,-4.5088,-4.4487,-4.3624,-4.3075,-4.2762,-4.1899,-4.1455,-4.1324,-4.1324,-4.1324,-4.1324,-4.1324,-4.1324,-4.1324,-4.1324,-4.1219,-4.101,-4.0409,-3.9547,-3.8684,-3.8553,-3.824,-3.79,-3.79,-3.79,-3.79,-3.79,-3.79,-3.79,-3.79,-3.79,-3.79,-3.79,-3.79,-3.79,-3.79,-3.79,-3.79,-3.79,-3.79,-3.7769,-3.7299,-3.6985,-3.6436,-3.5443,-3.5155,-3.4894,-3.445,-3.4397,-3.4397,-3.4397,-3.3927,-3.3535,-3.3378,-3.2437,-3.1745,-3.1588,-3.1235,-3.0921,-3.079,-3.0215,-2.964,-2.91,-2.8464,-2.7941,-2.749,-2.749,-2.749,-2.749,-2.7993,-2.8059,-4.3028,-4.5393,-4.7321,-4.7849,-4.7459,-4.6449,-4.4474,-4.2293,-3.9983,-3.7601,-3.5427,0.0,0.0,0.0,0.0,0.0,0.0,0.0,-4.579,-4.7257,-4.8015,0.0,-4.7832,0.0,-4.6708,-4.6944,-4.7179,0.0,-4.7466,-4.8277,-4.9819,-5.0681,-5.1047,-5.0864,-5.0002,-4.9139,-4.8329,-4.7414,-4.663,-4.6003,-4.548,-4.48,-4.3964,-4.331,-4.2735,-4.2239,0.0,-4.1324,-4.1324,-4.1324,-4.1324,-4.1324,-4.1324,-4.1324,-4.1324,-4.1324,-4.1141,-4.088,-4.054,-3.9834,-3.905,-3.8789,-3.8344,-3.79,-3.79,-3.79,-3.79,-3.79,-3.79,-3.79,-3.79,-3.79,-3.79,-3.79,-3.79,-3.79,-3.79,-3.79,-3.79,-3.79,-3.79,-3.7795,-3.7456,-3.7168,-3.6698,-3.5783,-3.5443,-3.5077,-3.4476,-3.4397,-3.4397,-3.4397,-3.4136,-3.3849,-3.3613,-3.2986,-3.2346,-3.1823,-3.151,-3.1261,-3.0999,-3.0424,-2.9944,-2.9666,-2.9065,-2.849,-2.7889,-2.7889,-2.7785,-2.749,-2.7888,-2.8026,-4.5117,-4.6678,-4.7849,-4.8286,-4.7138,-4.5232,-4.2637,-4.0034,-3.7225,-3.375,0.0,-3.1644,-3.0803,0.0,-3.33,-3.5208,0.0,-4.0853,-4.446,-4.5532,-4.6944,-4.9584,-4.9087,-4.8695,-4.9139,-4.9139,-4.893,-4.8564,-4.893,-4.9401,-4.9871,-5.0917,-5.0917,-4.9688,-4.9296,-4.8512,-4.7278,-4.6761,-4.6473,-4.6473,-4.5375,-4.4251,-4.3127,-4.3049,-4.2448,-4.1428,0.0,0.0,-4.1324,-4.1324,-4.1324,-4.1324,-4.1324,-4.1324,-4.1324,-4.1324,-4.0984,-4.0514,-4.0435,-4.0069,-3.952,-3.8919,-3.8397,-3.8004,-3.7926,-3.79,-3.79,-3.79,-3.79,-3.79,-3.79,-3.79,-3.79,-3.79,-3.79,-3.79,-3.79,-3.79,-3.79,-3.79,-3.79,-3.79,-3.79,-3.7482,-3.6881,-3.6201,-3.5704,-3.5155,-3.4476,-3.4397,-3.4397,-3.4397,-3.4397,-3.4214,-3.3744,-3.3639,-3.3117,-3.198,-3.185,-3.1536,-3.0999,-3.0503,-3.0179,-3.01,-2.964,-2.9091,-2.8525,-2.8446,-2.8124,-2.762,-2.7542,-2.7822,-4.6701,-4.7734,-4.8286,-4.8377,-4.6609,-4.4084,-4.1122,-3.8292,0.0,0.0,0.0,-3.1023,-3.0933,-3.1889,0.0,-3.6279,0.0,0.0,0.0,0.0,-4.8277,0.0,0.0,0.0,0.0,0.0,0.0,0.0,0.0,0.0,-4.9897,-5.0551,-5.0185,-4.8538,-4.8878,-4.8512,-4.7278,-4.6761,-4.6473,-4.6473,-4.5794,-4.4853,-4.3702,-4.3232,-4.2657,-4.2004,0.0,0.0,-4.1324,-4.1324,-4.1324,-4.1324,-4.1324,-4.1324,-4.1324,-4.1324,-4.1246,-4.1089,-4.0592,-4.0069,-3.952,-3.8919,-3.8658,-3.8475,-3.8031,-3.79,-3.79,-3.79,-3.79,-3.79,-3.79,-3.79,-3.79,-3.79,-3.79,-3.79,-3.79,-3.79,-3.79,-3.79,-3.79,-3.79,-3.79,-3.7821,-3.7377,-3.6279,-3.6018,-3.5574,-3.4528,-3.4397,-3.4397,-3.4397,-3.4397,-3.4371,-3.4267,-3.3849,-3.33,-3.2594,-3.2058,-3.1536,-3.0999,-3.0895,-3.0607,-3.01,-2.9996,-2.9693,-2.9118,-2.8656,-2.8368,-2.8229,-2.7758,-2.7556,-4.716,-4.801,-4.8263,-4.7734,-4.5484,-4.254,-3.9302,0.0,0.0,0.0,0.0,-3.038,-3.047,0.0,0.0,0.0,0.0,0.0,0.0,0.0,0.0,0.0,0.0,0.0,0.0,0.0,0.0,0.0,0.0,0.0,-5.076,-5.0786,-4.9845,-4.7806,-4.8303,-4.7911,-4.6417,-4.6159,-4.6029,-4.6029,-4.5428,-4.4565,-4.3415,-4.3154,-4.2552,-4.1716,-4.1428,0.0,-4.1324,-4.1324,-4.1324,-4.1324,-4.1324,-4.1324,-4.1324,-4.1324,-4.1115,-4.0775,-4.02,-3.9834,-3.9468,-3.8579,-3.8292,-3.824,-3.7978,-3.79,-3.79,-3.79,-3.79,-3.79,-3.79,-3.8109,-3.8318,-3.8318,-3.8318,-3.824,-3.7978,-3.79,-3.79,-3.79,-3.79,-3.79,-3.79,-3.79,-3.7612,-3.6698,-3.6305,-3.5809,-3.4972,-3.458,-3.4397,-3.4397,-3.4397,-3.4397,-3.4397,-3.4162,-3.377,-3.3195,-3.2594,-3.2019,-3.1444,-3.1156,-3.0843,-3.0581,-3.0581,-3.0294,-2.9719,-2.9144,-2.8734,-2.8394,-2.7785,-2.7861,-4.7069,-4.7918,-4.8148,-4.7138,-4.4561,-4.1352,-3.7958,-3.4932,0.0,0.0,-2.9806,-3.019,-3.019,0.0,0.0,0.0,0.0,0.0,0.0,0.0,0.0,0.0,0.0,0.0,0.0,0.0,0.0,0.0,0.0,0.0,-5.123,-5.0707,-4.9427,-4.7231,-4.7597,-4.7127,-4.5581,-4.5451,-4.5373,-4.5428,-4.4826,-4.3938,-4.284,-4.284,-4.2291,-4.1324,-4.1324,0.0,0.0,-4.1324,-4.1324,-4.1324,-4.1324,-4.1324,-4.1324,-4.1324,-4.101,-4.054,-3.9965,-3.9782,-3.9625,-3.8606,-3.8266,-3.8214,-3.7978,-3.7978,-3.8083,-3.8083,-3.8004,-3.7952,-3.8214,-3.8475,-3.8736,-3.8867,-3.8789,-3.8579,-3.8161,-3.8083,-3.8031,-3.7926,-3.79,-3.79,-3.79,-3.79,-3.7691,-3.709,-3.6593,-3.6096,-3.5547,-3.5051,-3.4711,-3.4607,-3.4476,-3.4397,-3.4397,-3.4397,-3.4162,-3.3613,-3.3143,-3.2568,-3.1823,-3.1418,-3.1104,-3.0973,-3.0973,-3.0764,-3.0283,-2.9745,-2.9222,-2.8752,-2.8046,-2.8344,-4.6541,-4.7666,-4.8148,-4.7138,-4.4402,-4.1129,-3.7903,0.0,0.0,0.0,-3.0444,-3.0898,-3.0898,-3.104,0.0,0.0,0.0,0.0,0.0,0.0,0.0,0.0,0.0,0.0,0.0,0.0,0.0,0.0,0.0,0.0,0.0,-4.9531,-4.8407,-4.6604,-4.6604,-4.6316,-4.5637,-4.5033,-4.4826,-4.4853,-4.4225,-4.3415,-4.229,-4.229,-4.1899,-4.1324,0.0,0.0,0.0,-4.1324,-4.1324,-4.1324,-4.1324,-4.1324,-4.1324,-4.1324,-4.1272,-4.1141,-4.054,-4.0357,-4.0252,-3.9651,-3.9442,-3.9259,-3.8214,-3.824,-3.8632,-3.8632,-3.8292,-3.8135,-3.9181,-3.9076,-3.8841,-3.939,-3.9102,-3.8684,-3.8658,-3.8632,-3.8501,-3.8004,-3.79,-3.79,-3.79,-3.79,-3.7691,-3.709,-3.6959,-3.6698,-3.6096,-3.5992,-3.5757,-3.526,-3.4737,-3.4397,-3.4397,-3.4397,-3.4162,-3.3613,-3.3535,-3.3012,-3.185,-3.1745,-3.1522,-3.0999,-3.0973,-3.0947,-3.0921,-3.0346,-2.9996,-2.9918,-2.883,-2.8724,-4.4841,-4.6936,-4.8099,-4.6695,-4.4096,-4.112,-3.7947,0.0,0.0,-3.0907,-3.0823,-3.0973,-3.0973,-3.0973,-3.1209,0.0,0.0,0.0,0.0,0.0,0.0,0.0,0.0,0.0,0.0,0.0,0.0,0.0,0.0,0.0,0.0,-4.9322,-4.846,-4.6055,-4.629,-4.6029,-4.5088,-4.4513,-4.4225,-4.4279,-4.365,-4.2944,-4.2211,-4.2211,-4.1847,-4.1324,0.0,0.0,0.0,-4.1324,-4.1324,-4.1324,-4.1324,-4.1324,-4.1324,-4.1324,-4.1324,-4.1219,-4.0618,-4.0409,-4.0331,-3.9782,-3.9599,-3.9468,-3.8632,-3.8789,-3.9181,-3.8815,-3.8815,-3.9024,-3.9494,-3.9442,-3.939,-3.9965,-3.939,-3.871,-3.871,-3.8449,-3.8161,-3.7952,-3.79,-3.79,-3.79,-3.79,-3.7821,-3.7586,-3.7246,-3.6907,-3.6671,-3.6332,-3.6018,-3.5809,-3.5286,-3.4789,-3.4424,-3.4397,-3.4319,-3.4084,-3.377,-3.3221,-3.2385,-3.198,-3.1536,-3.0999,-3.0973,-3.0973,-3.0973,-3.0361,-2.9918,-2.9614,-2.8778,-2.8759,-4.2362,-4.5065,-4.6831,-4.5391,-4.3011,-4.029,0.0,0.0,0.0,-3.1147,-3.0973,-3.0973,-3.0973,-3.0973,-3.0973,-3.0973,0.0,0.0,0.0,0.0,0.0,0.0,0.0,0.0,0.0,0.0,0.0,0.0,0.0,0.0,0.0,-4.8433,-4.7885,-4.5634,-4.5846,-4.548,-4.4487,-4.4068,-4.3755,-4.3415,-4.2971,-4.2474,-4.1899,-4.1899,-4.169,-4.1324,0.0,0.0,0.0,-4.1324,-4.1324,-4.1324,-4.1324,-4.1324,-4.1324,-4.1324,-4.1274,-4.1095,-4.0728,-4.0572,-4.052,-4.0129,-3.9942,-3.9782,-3.9337,-3.939,-3.9547,-3.9285,-3.9651,-4.0069,-3.9886,-3.986,-3.9991,-4.054,-3.9939,-3.9181,-3.8998,-3.8684,-3.8318,-3.7978,-3.79,-3.79,-3.79,-3.79,-3.79,-3.79,-3.7534,-3.7273,-3.7273,-3.6907,-3.6567,-3.6384,-3.5861,-3.5286,-3.4711,-3.4502,-3.4397,-3.4397,-3.4031,-3.3483,-3.2725,-3.2306,-3.1757,-3.0999,-3.0973,-3.0973,-3.0973,-3.0581,-3.0189,-2.9771,-2.9048,-2.898,-3.9078,-4.1783,-4.4097,-4.3118,-4.086,-3.8417,0.0,0.0,0.0,-3.1104,-3.0973,-3.0973,-3.0973,-3.0973,-3.0973,-3.0973,-3.147,0.0,0.0,0.0,0.0,0.0,0.0,0.0,0.0,0.0,0.0,0.0,0.0,0.0,0.0,-4.6499,-4.6238,-4.5637,-4.5062,-4.446,-4.3885,-4.3912,-4.3363,-4.2238,-4.2238,-4.1873,-4.1324,-4.1324,-4.1324,0.0,0.0,0.0,0.0,-4.1324,-4.1324,-4.1324,-4.1324,-4.1324,-4.1324,-4.1324,-4.1147,-4.0896,-4.087,-4.087,-4.087,-4.087,-4.0681,-4.0409,-4.0409,-4.0043,-3.973,-4.0252,-4.0827,-4.1167,-4.0566,-4.0409,-4.0566,-4.1167,-4.0853,-4.0252,-3.973,-3.9599,-3.9259,-3.8109,-3.79,-3.79,-3.79,-3.79,-3.79,-3.79,-3.79,-3.79,-3.79,-3.79,-3.7665,-3.7063,-3.6462,-3.5887,-3.5338,-3.4737,-3.4397,-3.4397,-3.4397,-3.3875,-3.2751,-3.2672,-3.215,-3.0999,-3.0973,-3.0973,-3.0973,-3.0973,-3.0973,-3.0947,-2.9833,-2.9349,-3.6935,-3.9037,-4.0419,-3.9652,-3.8165,-3.6515,-3.4882,0.0,0.0,0.0,-3.0686,-3.0529,-3.0921,-3.066,-3.0623,-3.1406,-3.1693,0.0,0.0,0.0,0.0,0.0,0.0,0.0,0.0,0.0,0.0,0.0,0.0,0.0,0.0,0.0,-4.5637,-4.4981,-4.4434,-4.4042,-4.3912,-4.3154,-4.2578,-4.2211,-4.1768,-4.1481,-4.1324,-4.1324,0.0,0.0,0.0,0.0,0.0,-4.1097,-4.123,-4.1542,-4.095,-4.1002,-4.1235,-4.0899,-4.0694,-4.0643,-4.0846,-4.0896,-4.0946,-4.1097,-4.0807,-4.0438,-4.0681,-4.021,-3.973,-4.0252,-4.0853,-4.1272,-4.1089,-4.0723,-4.0461,-4.0644,-3.9965,-3.9207,-3.9024,-3.871,-3.8344,-3.7978,-3.79,-3.79,-3.79,-3.79,-3.79,-3.79,-3.79,-3.79,-3.79,-3.79,-3.7821,-3.7639,-3.6698,-3.5887,-3.5338,-3.4737,-3.4397,-3.4397,-3.4397,-3.3875,-3.2751,-3.2698,-3.215,-3.0999,-3.0973,-3.0973,-3.0973,-3.0973,-3.1061,-3.1119,-2.9904,-2.9662,0.0,-3.5835,-3.6908,-3.6508,-3.5577,0.0,0.0,0.0,0.0,0.0,0.0,0.0,0.0,-3.0241,-3.0335,0.0,0.0,0.0,0.0,0.0,0.0,0.0,0.0,0.0,0.0,0.0,0.0,0.0,0.0,0.0,0.0,0.0,-4.446,-4.4041,-4.3729,-4.3441,-4.3284,-4.2578,-4.2107,-4.1847,-4.1481,-4.1324,-4.1324,-4.1198,0.0,0.0,0.0,0.0,0.0,-4.0873,-4.108,-4.1492,-4.0773,-4.0722,-4.0978,-4.0619,-4.0517,-4.0491,-4.0694,-4.0744,-4.0769,-4.0713,-4.0346,-3.9901,-3.9677,-3.9829,-4.008,-4.0099,-4.0697,-4.1272,-4.1036,-4.0697,-4.0409,-4.0409,-3.9703,-3.8998,-3.8762,-3.8449,-3.8089,-3.7788,-3.7762,-3.7716,-3.7598,-3.7598,-3.7598,-3.7762,-3.7762,-3.7808,-3.79,-3.79,-3.79,-3.79,-3.6828,-3.5966,-3.5626,-3.4868,-3.4397,-3.4397,-3.4397,-3.3979,-3.3064,-3.2803,-3.2254,-3.1339,-3.1104,-3.0973,-3.0973,-3.0973,-3.0919,-3.078,-3.0273,-3.0159,0.0,0.0,0.0,0.0,0.0,0.0,0.0,0.0,0.0,0.0,0.0,0.0,0.0,0.0,0.0,0.0,0.0,0.0,0.0,0.0,0.0,0.0,0.0,0.0,0.0,0.0,0.0,0.0,0.0,0.0,0.0,0.0,-4.2971,-4.2971,-4.2918,-4.2657,-4.2211,-4.2185,-4.1847,-4.1324,-4.1324,-4.1274,-4.1274,-4.0997,0.0,0.0,0.0,0.0,0.0,-4.0671,-4.0799,-4.1234,-4.0671,-4.0491,-4.0517,-4.0466,-4.0466,-4.0466,-4.044,-4.044,-4.0363,-3.9849,-3.9432,-3.9006,-3.7893,-3.9106,-4.0633,-3.9764,-4.0383,-4.1115,-4.0514,-4.0334,-4.0334,-4.0305,-3.9913,-3.9342,-3.8742,-3.8611,-3.8408,-3.7609,-3.7459,-3.7413,-3.7155,-3.7108,-3.7155,-3.7413,-3.7459,-3.7551,-3.7808,-3.7854,-3.7854,-3.7854,-3.681,-3.6105,-3.6053,-3.5051,-3.4397,-3.4397,-3.4397,-3.4162,-3.3613,-3.3064,-3.2463,-3.1823,-3.1287,-3.0973,-3.0973,-3.0973,-3.0749,-3.0262,-3.0771,-3.0829,-2.8821,0.0,-2.9688,-2.9688,-2.9548,0.0,0.0,0.0,0.0,0.0,0.0,0.0,0.0,0.0,0.0,0.0,0.0,0.0,0.0,0.0,0.0,0.0,0.0,0.0,0.0,0.0,0.0,0.0,0.0,0.0,0.0,0.0,-4.2369,-4.2369,-4.1951,-4.1873,-4.2211,-4.1742,-4.1455,-4.1324,-4.1324,-4.1198,-4.0997,-4.0946,0.0,0.0,0.0,0.0,-4.0645,-4.0338,-4.0516,-4.0896,-4.0157,-4.0156,-4.0431,-4.0055,-3.9903,-3.9903,-4.0134,-3.9931,-3.9523,-3.9406,-3.9269,-3.9106,-3.8595,-3.9112,-3.9764,-3.9081,-3.973,-4.0488,-3.9939,-3.9976,-4.0005,-3.9264,-3.8882,-3.8527,-3.7909,-3.7779,-3.7661,-3.7273,-3.7201,-3.7155,-3.7108,-3.7108,-3.7108,-3.7155,-3.7201,-3.7201,-3.7273,-3.7459,-3.7598,-3.7598,-3.6949,-3.6326,-3.5885,-3.4966,-3.4397,-3.4397,-3.4397,-3.4162,-3.3613,-3.3456,-3.2908,-3.1823,-3.1287,-3.0973,-3.0973,-3.0973,-3.123,-3.1631,-3.0732,-3.0904,-2.7915,-2.8177,-2.842,-2.842,-2.8629,-2.876,0.0,0.0,0.0,0.0,0.0,0.0,0.0,0.0,0.0,0.0,0.0,0.0,0.0,0.0,0.0,0.0,0.0,0.0,0.0,0.0,0.0,0.0,0.0,0.0,0.0,0.0,-4.1768,-4.1768,-4.1354,-4.1354,-4.1768,-4.1455,-4.1274,-4.1097,-4.1097,-4.0997,-4.0694,-4.0593,0.0,0.0,0.0,0.0,-4.0464,-4.0107,-4.0206,-4.066,-3.995,-3.9873,-4.0099,-3.9798,-3.98,-3.9853,-3.9753,-3.9295,-3.8656,-3.8518,-3.8332,-3.817,-3.7882,-3.8105,-3.8454,-3.8376,-3.906,-3.9719,-3.9194,-3.908,-3.9013,-3.8489,-3.8105,-3.7727,-3.7371,-3.732,-3.7273,-3.6968,-3.6922,-3.6875,-3.6781,-3.6781,-3.6828,-3.6922,-3.6922,-3.6968,-3.7062,-3.7201,-3.732,-3.732,-3.6779,-3.6361,-3.6051,-3.5081,-3.4432,-3.4256,-3.4272,-3.4184,-3.3979,-3.3718,-3.3038,-3.1823,-3.1287,-3.0973,-3.0973,-3.0973,-3.1198,-3.1589,-3.0845,-3.1135,-2.7594,-2.8072,-2.8525,-2.8412,-2.8865,-2.9179,-2.8656,0.0,0.0,0.0,0.0,0.0,0.0,0.0,0.0,0.0,0.0,0.0,0.0,0.0,0.0,0.0,0.0,0.0,0.0,0.0,0.0,0.0,0.0,0.0,0.0,0.0,0.0,-4.1174,-4.0946,-4.0946,-4.1174,-4.1174,-4.1047,-4.0846,-4.0846,-4.0694,-4.044,-4.0185,-4.0083,0.0,0.0,0.0,-4.035,-3.9898,-3.9973,-4.035,-3.9873,-3.9697,-3.9697,-3.9697,-3.9826,-3.993,-3.9322,-3.8583,-3.7884,-3.7591,-3.733,-3.7062,-3.6803,-3.6922,-3.7201,-3.767,-3.8376,-3.8881,-3.8359,-3.8045,-3.7932,-3.7877,-3.742,-3.7062,-3.7062,-3.7062,-3.6968,-3.6709,-3.6662,-3.6593,-3.6452,-3.6405,-3.6452,-3.6615,-3.6662,-3.6734,-3.6968,-3.7015,-3.7062,-3.7062,-3.6627,-3.6268,-3.6115,-3.5175,-3.4443,-3.403,-3.4021,-3.4105,-3.4356,-3.3875,-3.3091,-3.1954,-3.1418,-3.1078,-3.0973,-3.0973,-3.0973,-3.0973,-3.1123,-3.1505,-2.8124,-2.8673,-2.9048,-2.8551,-2.8865,-2.9284,-2.9205,0.0,0.0,0.0,0.0,0.0,0.0,0.0,0.0,0.0,0.0,0.0,0.0,0.0,0.0,0.0,0.0,0.0,0.0,0.0,0.0,0.0,0.0,0.0,0.0,0.0,0.0,-4.0618,-4.0593,-4.0593,-4.0593,-4.0593,-4.0593,-4.0542,-4.0542,-4.044,-4.0185,-4.0134,-3.9981,0.0,0.0,-3.9747,-3.9823,-3.9722,-3.9747,-3.9798,-3.9722,-3.9697,-3.9697,-3.9697,-3.9749,-3.9598,-3.8542,-3.7983,-3.7569,-3.7013,-3.6951,-3.7108,-3.7062,-3.7062,-3.7108,-3.7201,-3.7689,-3.8027,-3.7437,-3.7453,-3.7566,-3.7318,-3.6973,-3.6756,-3.6756,-3.6756,-3.6709,-3.6499,-3.6452,-3.6452,-3.6405,-3.6405,-3.6405,-3.6452,-3.6452,-3.6452,-3.6499,-3.6687,-3.6756,-3.6756,-3.668,-3.6273,-3.5333,-3.4925,-3.4325,-3.3547,-3.3683,-3.3894,-3.4173,-3.3792,-3.3273,-3.2568,-3.1954,-3.1432,-3.0973,-3.0973,-3.0973,-3.1011,-3.1626,-3.1965,-2.7863,-2.836,-2.8839,-2.8856,-2.9301,-2.9666,-2.9388,0.0,0.0,0.0,0.0,0.0,0.0,0.0,0.0,0.0,0.0,0.0,0.0,0.0,0.0,0.0,0.0,0.0,0.0,0.0,0.0,0.0,0.0,0.0,0.0,0.0,0.0,0.0,-3.9445,-3.9395,-3.9395,-3.922,-3.9525,-4.0287,-4.0007,-3.9702,-3.9424,-3.9121,-3.9095,-3.9245,0.0,-3.9421,-3.9697,-3.9697,-3.9697,-3.9697,-3.9697,-3.9521,-3.922,-3.8894,-3.8994,-3.9145,-3.8112,-3.7703,-3.7495,-3.6912,-3.6756,-3.6875,-3.6734,-3.6734,-3.6734,-3.6734,-3.7032,-3.7253,-3.6973,-3.6937,-3.6922,-3.6763,-3.664,-3.6546,-3.6546,-3.6546,-3.6499,-3.6405,-3.6405,-3.6405,-3.6405,-3.6405,-3.6405,-3.6405,-3.6405,-3.6405,-3.6405,-3.6499,-3.6546,-3.6546,-3.6546,-3.6218,-3.539,-3.4947,-3.4337,-3.3462,-3.3725,-3.3979,-3.4063,-3.3439,-3.296,-3.2698,-3.1836,-3.1261,-3.0973,-3.0973,-3.0973,-3.1011,-3.1357,-3.17,-2.7646,-2.8046,-2.8525,-2.8961,0.0,-2.9918,-3.0059,0.0,0.0,0.0,0.0,0.0,0.0,0.0,0.0,0.0,0.0,0.0,0.0,0.0,0.0,0.0,0.0,0.0,0.0,0.0,0.0,0.0,0.0,0.0,0.0,0.0,0.0,0.0,-3.8409,-3.831,-3.831,-3.8114,-3.8541,-3.9576,-3.9171,-3.8944,-3.8894,-3.8266,-3.8316,-3.8919,-3.8718,-3.8994,-3.9496,-3.9496,-3.9572,-3.9697,-3.9697,-3.9446,-3.9045,-3.8417,-3.8492,-3.8793,-3.8135,-3.7804,-3.7577,-3.702,-3.6818,-3.6745,-3.6477,-3.6405,-3.6405,-3.6405,-3.6499,-3.6615,-3.6615,-3.6546,-3.6405,-3.6405,-3.6405,-3.6405,-3.6405,-3.6405,-3.6405,-3.6405,-3.6405,-3.6405,-3.6405,-3.6405,-3.6405,-3.6405,-3.6405,-3.6405,-3.6405,-3.6405,-3.6405,-3.6405,-3.6405,-3.6081,-3.5357,-3.4726,-3.406,-3.3376,-3.3709,-3.3962,-3.3962,-3.3275,-3.284,-3.2619,-3.1759,-3.1223,-3.0973,-3.0973,-3.0973,-3.0973,-3.1198,-3.1468,-2.8177,-2.8394,-2.842,-2.8472,-2.8908,0.0,-3.1967,-3.2045,0.0,0.0,0.0,0.0,0.0,0.0,0.0,0.0,0.0,0.0,0.0,0.0,0.0,0.0,0.0,0.0,0.0,0.0,0.0,0.0,0.0,0.0,0.0,0.0,0.0,0.0,0.0,-3.8015,-3.8015,-3.8015,-3.804,-3.8165,-3.809,-3.8391,-3.8894,-3.8266,-3.8316,-3.8894,-3.8291,-3.8391,-3.8969,-3.8969,-3.922,-3.9697,-3.9697,-3.9672,-3.9572,-3.9019,-3.8894,-3.8919,-3.8818,-3.8441,-3.7864,-3.736,-3.7159,-3.7084,-3.6556,-3.6405,-3.6405,-3.6405,-3.6405,-3.6405,-3.6405,-3.6405,-3.6405,-3.6405,-3.6405,-3.6405,-3.6405,-3.6405,-3.6405,-3.6405,-3.6405,-3.6405,-3.6405,-3.6405,-3.6405,-3.6405,-3.6405,-3.6405,-3.6405,-3.6405,-3.6405,-3.6405,-3.6405,-3.5931,-3.4831,-3.3796,-3.3212,-3.3136,-3.3326,-3.3428,-3.3428,-3.3564,-3.3235,-3.2446,-3.2342,-3.185,-3.0973,-3.0973,-3.0973,-3.1011,-3.17,-3.1663,-2.7785,-2.8098,-2.842,-2.842,-2.8865,0.0,0.0,-3.2306,0.0,0.0,0.0,0.0,0.0,0.0,0.0,0.0,0.0,0.0,0.0,0.0,0.0,0.0,0.0,0.0,0.0,0.0,0.0,0.0,0.0,0.0,0.0,0.0,0.0,0.0,0.0,-3.7487,-3.7487,-3.7839,-3.8015,-3.8015,-3.8015,-3.8316,-3.8894,-3.8266,-3.8115,-3.8341,-3.8492,-3.8668,-3.8944,-3.9245,-3.9496,-3.9672,-3.932,-3.917,-3.9069,-3.8165,-3.8316,-3.8768,-3.7712,-3.7387,-3.7412,-3.6908,-3.6732,-3.6681,-3.648,-3.6405,-3.6405,-3.6405,-3.6405,-3.648,-3.6832,-3.6933,-3.6933,-3.6933,-3.6933,-3.6832,-3.648,-3.6405,-3.6405,-3.6405,-3.6405,-3.6405,-3.6405,-3.6405,-3.6405,-3.6405,-3.6405,-3.6405,-3.6405,-3.6405,-3.6405,-3.6405,-3.6056,-3.5554,-3.4801,-3.4022,-3.3445,-3.3093,-3.3283,-3.3386,-3.3386,-3.3392,-3.3215,-3.2883,-3.2344,-3.1785,-3.1305,-3.0967,-3.0811,-3.0811,-3.1123,-3.1161,-2.749,-2.7811,-2.815,0.0,0.0,0.0,-3.147,0.0,0.0,0.0,0.0,0.0,0.0,0.0,0.0,0.0,0.0,0.0,0.0,0.0,0.0,0.0,0.0,0.0,0.0,0.0,0.0,0.0,0.0,0.0,0.0,0.0,0.0,0.0,0.0,0.0,-3.6659,-3.7036,-3.7312,-3.7487,-3.7663,-3.804,-3.8567,-3.7839,-3.7588,-3.7764,-3.799,-3.8316,-3.8617,-3.8994,-3.9371,-3.9647,-3.9094,-3.8919,-3.8818,-3.799,-3.8265,-3.8768,-3.7612,-3.7513,-3.7864,-3.7111,-3.7059,-3.7159,-3.6935,-3.6933,-3.6933,-3.6933,-3.6807,-3.6832,-3.7561,-3.7312,-3.696,-3.7136,-3.7061,-3.6883,-3.648,-3.6405,-3.6405,-3.6405,-3.6405,-3.6405,-3.6405,-3.6405,-3.6405,-3.6405,-3.6405,-3.6405,-3.6405,-3.6405,-3.6405,-3.6405,-3.5705,-3.5082,-3.4705,-3.4048,-3.347,-3.3093,-3.324,-3.3326,-3.3326,-3.302,-3.2803,-3.2731,-3.1939,-3.1384,-3.1164,-3.0777,-3.066,-3.0698,-3.0698,-3.0773,-2.749,-2.749,-2.7646,0.0,0.0,0.0,0.0,0.0,0.0,0.0,0.0,0.0,0.0,0.0,0.0,0.0,0.0,0.0,0.0,0.0,0.0,0.0,0.0,0.0,0.0,0.0,0.0,0.0,0.0,0.0,0.0,0.0,0.0,0.0,0.0,0.0,-3.5508,-3.5508,-3.583,-3.643,-3.691,-3.7462,-3.7965,-3.6933,-3.6732,-3.7161,-3.6656,-3.6985,-3.799,-3.8015,-3.8668,-3.9622,-3.9069,-3.8919,-3.8894,-3.8894,-3.8894,-3.8894,-3.8894,-3.922,-3.9471,-3.8366,-3.8391,-3.8743,-3.8165,-3.799,-3.799,-3.799,-3.7613,-3.7462,-3.8617,-3.7687,-3.6556,-3.7061,-3.6832,-3.643,-3.6405,-3.6405,-3.6405,-3.6405,-3.6405,-3.6405,-3.6405,-3.6405,-3.6405,-3.6405,-3.6405,-3.6405,-3.6405,-3.6405,-3.6405,-3.6405,-3.5378,-3.4726,-3.468,-3.3721,-3.3093,-3.3136,-3.3111,-3.3111,-3.3111,-3.2516,-3.2047,-3.1721,-3.1164,-3.0763,-3.0406,-3.0406,-3.0482,-3.0698,-3.0698,-3.0698,-2.749,-2.7811,0.0,0.0,0.0,0.0,0.0,0.0,0.0,0.0,0.0,0.0,0.0,0.0,0.0,0.0,0.0,0.0,0.0,0.0,0.0,0.0,0.0,0.0,0.0,0.0,0.0,0.0,0.0,0.0,0.0,0.0,0.0,0.0,0.0,0.0,-3.5508,-3.5931,-3.6383,-3.6935,-3.6757,-3.7086,-3.799,-3.7663,-3.7387,-3.7186,-3.7412,-3.7487,-3.7462,-3.7839,-3.799,-3.7939,-3.8165,-3.804,-3.7688,-3.7688,-3.7688,-3.7688,-3.7688,-3.7586,-3.741,-3.7412,-3.7287,-3.7109,-3.6958,-3.7111,-3.7437,-3.7437,-3.7588,-3.7939,-3.8668,-3.8191,-3.7563,-3.7713,-3.7638,-3.7312,-3.6581,-3.6405,-3.6405,-3.6405,-3.6405,-3.6405,-3.6405,-3.6405,-3.6405,-3.6405,-3.6405,-3.6405,-3.6405,-3.6405,-3.6254,-3.583,-3.583,-3.5554,-3.4801,-3.4424,-3.4073,-3.3671,-3.3294,-3.3111,-3.3111,-3.3063,-3.2794,-3.232,-3.1949,-3.1428,-3.0724,-3.0535,-3.0368,-3.0279,-3.0406,-3.0482,-2.749,0.0,0.0,0.0,0.0,0.0,0.0,0.0,0.0,0.0,0.0,0.0,0.0,0.0,0.0,0.0,0.0,0.0,0.0,0.0,0.0,0.0,0.0,0.0,0.0,0.0,0.0,0.0,0.0,0.0,0.0,0.0,0.0,0.0,0.0,0.0,-3.4856,-3.5228,-3.5554,-3.5881,-3.5755,-3.6056,-3.6709,-3.7161,-3.7161,-3.6885,-3.7437,-3.7487,-3.7236,-3.7789,-3.7814,-3.7538,-3.7864,-3.7663,-3.7211,-3.7437,-3.7236,-3.6885,-3.7111,-3.696,-3.6782,-3.7086,-3.7111,-3.7059,-3.7059,-3.7236,-3.7563,-3.7789,-3.7939,-3.8191,-3.8994,-3.8768,-3.8341,-3.8341,-3.8165,-3.7764,-3.6885,-3.6732,-3.6681,-3.6455,-3.6405,-3.6405,-3.6405,-3.6405,-3.6405,-3.6405,-3.6405,-3.6405,-3.6405,-3.6405,-3.6279,-3.5906,-3.5981,-3.5755,-3.5056,-3.465,-3.4248,-3.3922,-3.3395,-3.3111,-3.3111,-3.297,-3.2777,-3.2449,-3.1813,-3.1255,-3.0767,-3.0341,-3.0164,-3.0126,-3.0216,-3.0292,0.0,0.0,0.0,0.0,0.0,0.0,0.0,0.0,0.0,0.0,0.0,0.0,0.0,0.0,0.0,0.0,0.0,0.0,0.0,0.0,0.0,0.0,0.0,0.0,0.0,0.0,0.0,0.0,0.0,0.0,0.0,0.0,0.0,0.0,0.0,0.0,-3.3822,-3.3822,-3.3847,0.0,-3.4399,-3.4675,-3.4751,-3.5755,-3.6254,-3.6279,-3.6734,-3.6985,-3.7061,-3.7513,-3.7739,-3.7789,-3.7739,-3.7387,-3.701,-3.7513,-3.7061,-3.6355,-3.691,-3.7086,-3.7061,-3.7161,-3.7487,-3.7864,-3.7864,-3.7889,-3.804,-3.8567,-3.8366,-3.8241,-3.927,-3.917,-3.8844,-3.8844,-3.8442,-3.7939,-3.7387,-3.7211,-3.7061,-3.6656,-3.648,-3.643,-3.648,-3.643,-3.6405,-3.6405,-3.6405,-3.6405,-3.6405,-3.6405,-3.638,-3.6279,-3.5855,-3.5533,-3.5433,-3.455,-3.3972,-3.3972,-3.3395,-3.3111,-3.3111,-3.2566,-3.2265,-3.2215,-3.126,-3.0708,-3.0608,-3.0105,-2.9945,-3.0088,-3.0088,-3.0088,0.0,0.0,0.0,0.0,0.0,0.0,0.0,0.0,0.0,0.0,0.0,0.0,0.0,0.0,0.0,0.0,0.0,0.0,0.0,0.0,0.0,0.0,0.0,0.0,0.0,0.0,0.0,0.0,0.0,0.0,0.0,0.0,0.0,0.0,0.0,-3.337,-3.3244,-3.3244,-3.347,0.0,-3.4022,-3.4299,-3.4726,-3.4951,-3.5077,-3.5077,-3.5203,-3.5504,-3.5834,-3.5554,-3.5633,-3.5984,-3.5558,-3.5353,-3.5253,-3.5378,-3.5278,-3.5203,-3.6207,-3.6257,-3.5984,-3.691,-3.696,-3.6757,-3.6757,-3.701,-3.7387,-3.7513,-3.7764,-3.8065,-3.8316,-3.8291,-3.8191,-3.8191,-3.8442,-3.8517,-3.7965,-3.7487,-3.7287,-3.7588,-3.7008,-3.6556,-3.6983,-3.6707,-3.6405,-3.6405,-3.6405,-3.6405,-3.6405,-3.6405,-3.6078,-3.5177,-3.5755,-3.583,-3.4931,-3.4675,-3.455,-3.455,-3.3621,-3.3111,-3.3111,-3.3011,-3.2667,-3.2215,-3.1989,-3.1461,-3.0608,-3.064,-3.0402,-2.9856,-3.0049,-3.0011,0.0,0.0,0.0,0.0,0.0,0.0,0.0,0.0,0.0,0.0,0.0,0.0,0.0,0.0,0.0,0.0,0.0,0.0,0.0,0.0,0.0,0.0,0.0,0.0,0.0,0.0,0.0,0.0,0.0,0.0,0.0,0.0,0.0,0.0,-3.2516,-3.2541,-3.2265,-3.2265,-3.2416,-3.2692,-3.2692,-3.2842,-3.3169,-3.4223,-3.468,-3.468,-3.468,-3.4831,-3.5082,-3.4851,-3.4856,-3.5082,-3.4781,-3.468,-3.468,-3.468,-3.455,-3.4449,-3.5278,-3.5378,-3.5232,-3.6132,-3.6207,-3.6006,-3.6329,-3.6383,-3.6508,-3.7036,-3.7387,-3.7688,-3.7939,-3.8015,-3.8015,-3.8015,-3.8241,-3.8291,-3.7739,-3.7387,-3.7186,-3.7211,-3.6807,-3.6505,-3.6782,-3.6606,-3.6405,-3.6405,-3.6405,-3.6405,-3.6405,-3.6405,-3.6031,-3.5157,-3.5629,-3.5629,-3.4801,-3.4474,-3.4324,-3.4324,-3.3545,-3.3111,-3.3111,-3.3111,-3.2943,-3.2641,-3.2089,-3.1537,-3.0984,-3.0576,-3.0198,-2.9804,-2.9895,-2.9895,0.0,0.0,0.0,0.0,0.0,0.0,0.0,0.0,0.0,0.0,0.0,0.0,0.0,0.0,0.0,0.0,0.0,0.0,0.0,0.0,0.0,0.0,0.0,0.0,0.0,0.0,0.0,0.0,0.0,0.0,0.0,0.0,-3.2365,-3.1411,-3.1838,-3.1863,-3.1386,-3.1386,-3.1386,-3.1386,-3.1386,-3.1386,-3.1461,-3.3319,-3.4198,-3.4254,-3.4399,-3.45,-3.4575,-3.4474,-3.45,-3.4575,-3.4474,-3.4424,-3.4424,-3.4424,-3.4148,-3.3847,-3.4399,-3.4575,-3.4675,-3.5182,-3.5357,-3.5458,-3.6056,-3.5906,-3.5708,-3.6759,-3.7036,-3.7136,-3.7613,-3.7713,-3.7713,-3.7713,-3.7713,-3.7638,-3.7387,-3.7262,-3.7086,-3.6757,-3.6606,-3.6531,-3.643,-3.6329,-3.6304,-3.638,-3.6329,-3.6304,-3.6405,-3.6405,-3.6107,-3.5433,-3.5433,-3.5232,-3.4625,-3.4173,-3.3897,-3.3897,-3.3395,-3.3111,-3.3111,-3.2993,-3.2918,-3.2918,-3.2014,-3.1436,-3.126,-3.0357,-2.988,-2.9804,-2.9804,-2.9804,0.0,0.0,0.0,0.0,0.0,0.0,0.0,0.0,0.0,0.0,0.0,0.0,0.0,0.0,0.0,0.0,0.0,0.0,0.0,0.0,0.0,0.0,0.0,0.0,0.0,0.0,0.0,0.0,0.0,0.0,0.0,-3.1562,-3.1537,-3.1386,-3.1461,-3.1461,-3.1386,-3.1386,-3.1386,-3.1386,-3.1386,-3.1386,-3.1411,-3.1687,-3.2089,-3.2566,-3.3068,-3.3571,-3.3972,-3.3495,-3.3571,-3.3972,-3.3495,-3.3294,-3.3294,-3.3294,-3.3244,-3.3269,-3.3822,-3.3997,-3.4098,-3.4605,-3.4826,-3.4881,-3.5433,-3.5558,-3.5633,-3.6307,-3.6505,-3.6531,-3.6606,-3.6631,-3.6631,-3.6631,-3.6631,-3.6883,-3.7713,-3.7513,-3.7312,-3.7713,-3.7387,-3.6983,-3.648,-3.5981,-3.5805,-3.6329,-3.5956,-3.583,-3.6355,-3.6405,-3.5981,-3.4951,-3.5207,-3.5082,-3.4098,-3.3947,-3.3897,-3.3897,-3.3395,-3.3111,-3.3111,-3.2591,-3.2315,-3.2315,-3.219,-3.1637,-3.0708,-3.0583,-3.0256,-2.9804,-2.9804,-2.9804,0.0,0.0,0.0,0.0,0.0,0.0,0.0,0.0,0.0,0.0,0.0,0.0,0.0,0.0,0.0,0.0,0.0,0.0,0.0,0.0,0.0,0.0,0.0,0.0,0.0,0.0,0.0,0.0,0.0,0.0,-3.0959,-3.1235,-3.111,-3.0507,-3.0809,-3.0809,-3.0507,-3.0507,-3.0507,-3.0507,-3.0507,-3.0507,-3.0507,-3.0809,-3.1235,-3.1763,-3.2014,-3.2441,-3.2943,-3.2692,-3.2918,-3.342,-3.3169,-3.3111,-3.3111,-3.3111,-3.3111,-3.3119,-3.3345,-3.3646,-3.3947,-3.4173,-3.4248,-3.4424,-3.5232,-3.5282,-3.5253,-3.6179,-3.6405,-3.6329,-3.5981,-3.6132,-3.6329,-3.5981,-3.6132,-3.6531,-3.6985,-3.6933,-3.6832,-3.7036,-3.6634,-3.6182,-3.5956,-3.5658,-3.5583,-3.5881,-3.5956,-3.5981,-3.5906,-3.6182,-3.5877,-3.4424,-3.4705,-3.465,-3.352,-3.3445,-3.3445,-3.3445,-3.3219,-3.3111,-3.3111,-3.2842,-3.239,-3.1763,-3.1461,-3.1085,-3.0608,-3.0306,-3.003,-2.9804,-2.9804,-2.9804,0.0,0.0,0.0,0.0,0.0,0.0,0.0,0.0,0.0,0.0,0.0,0.0,0.0,0.0,0.0,0.0,0.0,0.0,0.0,0.0,0.0,0.0,0.0,0.0,0.0,0.0,0.0,0.0,0.0,0.0,-3.0407,-3.0783,-3.0608,-2.9829,-3.0206,-3.0206,-2.9804,-2.9804,-2.9804,-2.9804,-2.9804,-2.9804,-2.9804,-3.0206,-3.0608,-3.1009,-3.126,-3.1712,-3.2215,-3.2215,-3.2566,-3.3111,-3.3111,-3.3111,-3.3111,-3.3111,-3.3111,-3.3111,-3.3111,-3.3345,-3.3696,-3.3696,-3.3696,-3.3897,-3.4956,-3.5006,-3.4951,-3.6103,-3.6405,-3.6279,-3.5633,-3.5855,-3.6056,-3.5608,-3.5855,-3.6182,-3.638,-3.6405,-3.6405,-3.6405,-3.6031,-3.5658,-3.5533,-3.5508,-3.5508,-3.5508,-3.578,-3.5855,-3.5533,-3.578,-3.5429,-3.4048,-3.4274,-3.4123,-3.3169,-3.3111,-3.3111,-3.3111,-3.3111,-3.3111,-3.3111,-3.2835,-3.224,-3.1411,-3.0733,-3.0407,-3.0407,-3.0005,-2.9804,-2.9804,-2.9804,-2.9804,0.0,0.0,0.0,0.0,0.0,0.0,0.0,0.0,0.0,0.0,0.0,0.0,0.0,0.0,0.0,0.0,0.0,0.0,0.0,0.0,0.0,0.0,0.0,0.0,0.0,0.0,0.0,0.0,0.0,0.0,-2.9829,-2.9854,-2.9854,-2.9804,-2.9829,-2.9829,-2.9804,-2.9804,-2.9804,-2.9804,-2.9804,-2.9804,-2.9804,-2.9829,-2.9854,-2.993,-3.0959,-3.1712,-3.2215,-3.2215,-3.2566,-3.3111,-3.3111,-3.3111,-3.3111,-3.3111,-3.3111,-3.3111,-3.3111,-3.3136,-3.3162,-3.3162,-3.3162,-3.3319,-3.4424,-3.4705,-3.4951,-3.6103,-3.6405,-3.6279,-3.5633,-3.5508,-3.5533,-3.5508,-3.5508,-3.5683,-3.6304,-3.6405,-3.6405,-3.6405,-3.638,-3.6157,-3.5583,-3.5508,-3.5508,-3.5508,-3.5082,-3.4931,-3.5433,-3.5056,-3.4575,-3.3972,-3.3922,-3.3696,-3.3162,-3.3111,-3.3111,-3.3111,-3.3111,-3.3111,-3.3111,-3.2039,-3.1461,-3.1386,-3.0357,-2.9829,-2.9829,-2.9804,-2.9804,-2.9804,-2.9804,-2.9804,0.0,0.0,0.0,0.0,0.0,0.0,0.0,0.0,0.0,0.0,0.0,0.0,0.0,0.0,0.0,0.0,0.0,0.0,0.0,0.0,0.0,0.0,0.0,0.0,0.0,0.0,0.0,0.0,0.0,0.0,-2.9804,-2.9804,-2.9804,-2.9804,-2.9804,-2.9804,-2.9804,-2.9804,-2.9804,-2.9804,-2.9804,-2.9804,-2.9804,-2.9804,-2.9804,-2.9804,-3.0206,-3.0683,-3.1185,-3.1185,-3.1512,-3.2039,-3.239,-3.2516,-3.2566,-3.2943,-3.3111,-3.3111,-3.3111,-3.3111,-3.3111,-3.3111,-3.3111,-3.3294,-3.4374,-3.4474,-3.4424,-3.5529,-3.5579,-3.5253,-3.5031,-3.4981,-3.4981,-3.4981,-3.4981,-3.5031,-3.5253,-3.5579,-3.583,-3.583,-3.583,-3.578,-3.5533,-3.5508,-3.5382,-3.5031,-3.5107,-3.5031,-3.455,-3.4625,-3.4374,-3.347,-3.3696,-3.3671,-3.3162,-3.3111,-3.3111,-3.3111,-3.3111,-3.3111,-3.3111,-3.2692,-3.229,-3.1913,-3.1185,-3.0482,-2.9804,-2.9804,-2.9804,-2.9804,-2.9804,-2.9804,0.0,0.0,0.0,0.0,0.0,0.0,0.0,0.0,0.0,0.0,0.0,0.0,0.0,0.0,0.0,0.0,0.0,0.0,0.0,0.0,0.0,0.0,0.0,0.0,0.0,0.0,0.0,0.0,0.0,0.0,-2.9227,-2.9402,-2.9603,-2.9779,-2.9804,-2.9804,-2.9804,-2.9804,-2.9804,-2.9804,-2.9804,-2.9804,-2.9804,-2.9804,-2.9804,-2.9804,-2.9804,-3.0105,-3.0608,-3.0608,-3.0934,-3.1436,-3.1788,-3.2039,-3.2265,-3.2641,-3.2918,-3.3111,-3.3111,-3.3111,-3.3111,-3.3111,-3.3111,-3.3244,-3.4173,-3.4198,-3.4098,-3.4956,-3.4956,-3.4675,-3.45,-3.4449,-3.4449,-3.4449,-3.4449,-3.45,-3.4675,-3.4956,-3.5282,-3.5458,-3.5508,-3.5433,-3.5257,-3.5382,-3.5257,-3.455,-3.4705,-3.4726,-3.3997,-3.4048,-3.3897,-3.3169,-3.3395,-3.347,-3.3119,-3.3111,-3.3111,-3.3111,-3.3111,-3.3111,-3.3111,-3.2893,-3.2591,-3.2215,-3.1512,-3.0783,-3.008,-2.988,-2.9804,-2.9804,-2.9804,-2.9804,0.0,0.0,0.0,0.0,0.0,0.0,0.0,0.0,0.0,0.0,0.0,0.0,0.0,0.0,0.0,0.0,0.0,0.0,0.0,0.0,0.0,0.0,0.0,0.0,0.0,0.0,0.0,0.0,0.0,-2.8147,-2.8122,-2.8587,-2.9113,-2.9729,-2.9754,-2.9754,-2.9754,-2.9754,-2.9754,-2.9754,-2.9779,-2.9804,-2.9804,-2.9804,-2.9804,-2.9804,-2.9804,-3.0105,-3.0583,-3.0583,-3.0884,-3.1336,-3.1361,-3.1687,-3.2164,-3.219,-3.2541,-3.3061,-3.3061,-3.3086,-3.3043,-3.3043,-3.3111,-3.3194,-3.3746,-3.3897,-3.3997,-3.455,-3.463,-3.455,-3.4022,-3.3897,-3.3897,-3.3872,-3.3872,-3.4022,-3.455,-3.4675,-3.4806,-3.5357,-3.5483,-3.5307,-3.4781,-3.5132,-3.5107,-3.4073,-3.3897,-3.3897,-3.3872,-3.3395,-3.3111,-3.3111,-3.3111,-3.3111,-3.3111,-3.3111,-3.3111,-3.3111,-3.3111,-3.3111,-3.3111,-3.2516,-3.2215,-3.224,-3.116,-3.0633,-3.0633,-3.008,-2.9804,-2.9804,-2.9804,-2.9804,-2.4431,0.0,0.0,0.0,0.0,0.0,0.0,0.0,0.0,0.0,0.0,0.0,0.0,0.0,0.0,0.0,0.0,0.0,0.0,0.0,0.0,0.0,0.0,0.0,0.0,0.0,0.0,0.0,-2.9327,-2.9151,-2.8687,-2.8473,-2.8398,-2.8574,-2.8574,-2.8574,-2.8574,-2.8976,-2.9139,-2.9139,-2.9603,-2.9804,-2.9804,-2.9804,-2.9804,-2.9804,-2.9804,-2.988,-3.003,-3.003,-3.0105,-3.0281,-3.0683,-3.0909,-3.111,-3.1486,-3.1712,-3.1863,-3.1863,-3.2114,-3.2466,-3.2466,-3.2742,-3.3194,-3.3746,-3.3621,-3.342,-3.3972,-3.3847,-3.3495,-3.3345,-3.3596,-3.3796,-3.3395,-3.3294,-3.3345,-3.3495,-3.352,-3.3822,-3.4731,-3.4906,-3.4856,-3.4751,-3.4806,-3.468,-3.3997,-3.3897,-3.3746,-3.3345,-3.3212,-3.3111,-3.3111,-3.3111,-3.3111,-3.3111,-3.3111,-3.3111,-3.3111,-3.3111,-3.3111,-3.3111,-3.2516,-3.2416,-3.2817,-3.1386,-3.0809,-3.1185,-3.0256,-2.9804,-2.9804,-2.9804,-2.9804,0.0,0.0,0.0,0.0,0.0,0.0,0.0,0.0,0.0,0.0,0.0,0.0,0.0,0.0,0.0,0.0,0.0,0.0,0.0,0.0,0.0,0.0,0.0,0.0,0.0,0.0,0.0,0.0,-2.8435,-2.8448,-2.8574,-2.8072,-2.7971,-2.8423,-2.8222,-2.8097,-2.8097,-2.8612,-2.8888,-2.8888,-2.9528,-2.9804,-2.9804,-2.9804,-2.9804,-2.9804,-2.9804,-2.9804,-2.9804,-2.9804,-2.9804,-2.9829,-3.0156,-3.0407,-3.0658,-3.0959,-3.121,-3.1386,-3.1386,-3.1763,-3.2215,-3.2215,-3.2591,-3.3187,-3.3445,-3.3345,-3.3187,-3.347,-3.3319,-3.3111,-3.3111,-3.3319,-3.347,-3.3144,-3.3111,-3.3144,-3.337,-3.3244,-3.3345,-3.4198,-3.4374,-3.4374,-3.4374,-3.4374,-3.4198,-3.3646,-3.3545,-3.3445,-3.3162,-3.3111,-3.3111,-3.3111,-3.3111,-3.3111,-3.3111,-3.3111,-3.3111,-3.3111,-3.3111,-3.3111,-3.3111,-3.2516,-3.2365,-3.2717,-3.1336,-3.0758,-3.106,-3.0206,-2.9804,-2.9804,-2.9804,-2.9804,0.0,0.0,0.0,0.0,0.0,0.0,-2.541,-2.5511,0.0,0.0,0.0,0.0,0.0,0.0,0.0,0.0,0.0,0.0,0.0,0.0,0.0,0.0,0.0,0.0,0.0,0.0,-2.7203,-2.6725,-2.6625,-2.7027,-2.7971,-2.7494,-2.7645,-2.8587,-2.8172,-2.7921,-2.7921,-2.8473,-2.8712,-2.8712,-2.9402,-2.9704,-2.9704,-2.9754,-2.9804,-2.9804,-2.9804,-2.9804,-2.9804,-2.9804,-2.9804,-2.9804,-2.9804,-3.008,-3.0532,-3.0532,-3.0809,-3.121,-3.121,-3.1562,-3.2039,-3.2039,-3.2416,-3.2893,-3.2968,-3.2993,-3.2993,-3.3068,-3.3111,-3.3111,-3.3111,-3.3111,-3.3111,-3.3111,-3.3111,-3.3219,-3.3696,-3.342,-3.3219,-3.3721,-3.3796,-3.3796,-3.3796,-3.3796,-3.3646,-3.3144,-3.3111,-3.3111,-3.3111,-3.3111,-3.3111,-3.3111,-3.3111,-3.3111,-3.3111,-3.3111,-3.3111,-3.3111,-3.3111,-3.3111,-3.3111,-3.2516,-3.224,-3.2315,-3.1311,-3.0758,-3.0708,-3.008,-2.9829,-2.988,-2.9829,-2.9804,0.0,0.0,0.0,0.0,0.0,0.0,-2.5034,-2.4951,0.0,0.0,0.0,0.0,0.0,0.0,0.0,0.0,0.0,0.0,0.0,0.0,0.0,0.0,0.0,0.0,0.0,0.0,-2.7896,-2.7795,-2.7369,-2.7253,-2.7419,-2.6952,-2.6751,-2.6977,-2.6876,-2.6826,-2.6826,-2.7318,-2.7595,-2.762,-2.8624,-2.9063,-2.9063,-2.9578,-2.9804,-2.9804,-2.9804,-2.9804,-2.9804,-2.9804,-2.9804,-2.9804,-2.9804,-2.9854,-2.9955,-2.9955,-3.0005,-3.0105,-3.0105,-3.0457,-3.0934,-3.0934,-3.1286,-3.1788,-3.224,-3.239,-3.2491,-3.2943,-3.3111,-3.3111,-3.3111,-3.3111,-3.3111,-3.3111,-3.3111,-3.3119,-3.3219,-3.3144,-3.3119,-3.3262,-3.3244,-3.3244,-3.3244,-3.3244,-3.3194,-3.3136,-3.3111,-3.3111,-3.3111,-3.3111,-3.3111,-3.3111,-3.3111,-3.3111,-3.3111,-3.3111,-3.3111,-3.3111,-3.3111,-3.3111,-3.3111,-3.2516,-3.2441,-3.2893,-3.224,-3.1687,-3.1235,-3.0256,-3.003,-3.0432,-3.0005,-2.9804,0.0,0.0,0.0,-2.6424,0.0,0.0,0.0,-2.5209,0.0,0.0,0.0,0.0,0.0,0.0,0.0,0.0,0.0,0.0,0.0,0.0,0.0,0.0,0.0,0.0,0.0,0.0,-2.7293,-2.7293,-2.7052,-2.7027,-2.7304,-2.6801,-2.6625,-2.6901,-2.6625,-2.6499,-2.6499,-2.7027,-2.7293,-2.7329,-2.8122,-2.8524,-2.8524,-2.9101,-2.9352,-2.9377,-2.9654,-2.9804,-2.9804,-2.9804,-2.9804,-2.9804,-2.9804,-2.9804,-2.9804,-2.9804,-2.9804,-2.9804,-2.9804,-3.0156,-3.0608,-3.0608,-3.0959,-3.1486,-3.2039,-3.2416,-3.2692,-3.2993,-3.3111,-3.3111,-3.3111,-3.3111,-3.3111,-3.3111,-3.3111,-3.3111,-3.3111,-3.3111,-3.3111,-3.3111,-3.3111,-3.3111,-3.3111,-3.3111,-3.3111,-3.3111,-3.3111,-3.3111,-3.3111,-3.3111,-3.3111,-3.3111,-3.3111,-3.3111,-3.3111,-3.3111,-3.3111,-3.3111,-3.3111,-3.3111,-3.3111,-3.2516,-3.2215,-3.224,-3.1938,-3.1662,-3.1386,-3.0583,-3.0357,-3.0608,-3.0055,-2.9804,0.0,0.0,0.0,0.0,0.0,-2.6348,0.0,0.0,0.0,-2.546,0.0,0.0,0.0,0.0,0.0,0.0,0.0,0.0,0.0,0.0,0.0,0.0,0.0,0.0,0.0,0.0,-2.6499,-2.6499,-2.6499,-2.67,-2.7128,-2.6725,-2.67,-2.7153,-2.6725,-2.6499,-2.6499,-2.6927,-2.7153,-2.7178,-2.7795,-2.8097,-2.8122,-2.88,-2.9063,-2.9088,-2.9578,-2.9804,-2.9804,-2.9804,-2.9804,-2.9804,-2.9804,-2.9804,-2.9804,-2.9804,-2.9804,-2.9804,-2.9804,-3.008,-3.0457,-3.0457,-3.0809,-3.1336,-3.1763,-3.2365,-3.2918,-3.2918,-3.2993,-3.3111,-3.3111,-3.3111,-3.3111,-3.3111,-3.3111,-3.3111,-3.3111,-3.3111,-3.3111,-3.3111,-3.3111,-3.3111,-3.3111,-3.3111,-3.3111,-3.3111,-3.3111,-3.3111,-3.3111,-3.3111,-3.3111,-3.3111,-3.3111,-3.3111,-3.3111,-3.3111,-3.3111,-3.3111,-3.3111,-3.3111,-3.3111,-3.2616,-3.2164,-3.1738,-3.1712,-3.1712,-3.1712,-3.1185,-3.0809,-3.0608,-3.0055,-2.9804,0.0,0.0,0.0,0.0,-2.6499,0.0,0.0,0.0,-2.546,-2.5008,0.0,0.0,0.0,0.0,0.0,0.0,0.0,0.0,0.0,0.0,0.0,0.0,0.0,0.0,0.0,0.0,0.0,-2.6499,-2.6499,-2.6524,-2.6575,-2.6524,-2.6524,-2.6575,-2.6524,-2.6499,-2.6499,-2.6549,-2.6575,-2.66,-2.762,-2.8097,-2.8147,-2.9202,-2.9704,-2.9704,-2.9754,-2.9804,-2.9804,-2.9804,-2.9804,-2.9804,-2.9804,-2.9804,-2.9804,-2.9804,-2.9804,-2.9804,-2.9804,-2.9829,-2.988,-2.988,-3.0256,-3.0708,-3.0783,-3.1512,-3.2315,-3.2315,-3.2692,-3.3111,-3.3111,-3.3111,-3.3111,-3.3111,-3.3111,-3.3111,-3.3111,-3.3111,-3.3111,-3.3111,-3.3111,-3.3111,-3.3111,-3.3111,-3.3111,-3.3111,-3.3111,-3.3111,-3.3111,-3.3111,-3.3111,-3.3111,-3.3111,-3.3111,-3.3111,-3.3111,-3.3111,-3.3111,-3.3111,-3.3111,-3.3111,-3.3018,-3.2943,-3.2935,-3.2935,-3.2935,-3.2935,-3.2315,-3.1537,-3.0608,-3.0055,-2.9804,0.0,0.0,0.0,0.0,0.0,0.0,0.0,0.0,-2.5636,0.0,0.0,0.0,0.0,0.0,0.0,0.0,0.0,0.0,0.0,0.0,0.0,0.0,0.0,0.0,0.0,0.0,0.0,0.0,0.0,-2.6499,-2.6499,-2.6499,-2.6499,-2.6499,-2.6499,-2.6499,-2.6499,-2.6499,-2.6499,-2.6499,-2.6977,-2.7178,-2.7228,-2.8298,-2.8825,-2.885,-2.9503,-2.9804,-2.9804,-2.9804,-2.9804,-2.9804,-2.9804,-2.9804,-2.9804,-2.9804,-2.9804,-2.9804,-2.9804,-2.9804,-2.9804,-2.9804,-3.0357,-3.106,-3.106,-3.1838,-3.2717,-3.2717,-3.2893,-3.3111,-3.3111,-3.3111,-3.3111,-3.3111,-3.3111,-3.3111,-3.3111,-3.3111,-3.3111,-3.3111,-3.3111,-3.3111,-3.3111,-3.3111,-3.3111,-3.3111,-3.3111,-3.3111,-3.3111,-3.3111,-3.3111,-3.3111,-3.3111,-3.3111,-3.3111,-3.3111,-3.3111,-3.3111,-3.3111,-3.3111,-3.3111,-3.3111,-3.3111,-3.3111,-3.3111,-3.2918,-3.2566,-3.234,-3.1813,-3.106,-3.0834,-3.0557,-2.6499,0.0,0.0,0.0,0.0,0.0,0.0,0.0,0.0,0.0,0.0,0.0,0.0,0.0,0.0,0.0,0.0,0.0,0.0,0.0,0.0,0.0,0.0,0.0,0.0,0.0,0.0,0.0,-2.6122,-2.6097,-2.6248,-2.6248,-2.6323,-2.6474,-2.6499,-2.6499,-2.6499,-2.6499,-2.6499,-2.6499,-2.665,-2.6725,-2.6751,-2.7821,-2.8323,-2.8373,-2.9377,-2.9804,-2.9804,-2.9804,-2.9804,-2.9804,-2.9804,-2.9804,-2.9804,-2.9804,-2.9804,-2.9804,-2.9804,-2.9804,-2.9804,-2.9804,-3.0432,-3.1185,-3.1185,-3.1964,-3.2842,-3.2842,-3.2943,-3.3111,-3.3111,-3.3111,-3.3111,-3.3111,-3.2943,-3.2893,-3.3043,-3.2943,-3.2893,-3.3086,-3.3111,-3.3111,-3.3111,-3.3111,-3.3111,-3.3111,-3.3111,-3.3111,-3.3111,-3.3111,-3.3111,-3.3111,-3.3111,-3.3111,-3.3111,-3.3111,-3.3111,-3.3111,-3.3111,-3.3111,-3.3111,-3.3111,-3.3111,-3.3111,-3.3111,-3.2867,-3.2441,-3.2441,-3.224,-3.1838,-3.1537,-3.1185,0.0,0.0,0.0,-2.6499,0.0,0.0,0.0,0.0,-2.6474,0.0,0.0,0.0,0.0,0.0,-2.6273,-2.5686,0.0,0.0,0.0,0.0,0.0,0.0,0.0,0.0,0.0,0.0,0.0,-2.5586,-2.5159,-2.5084,-2.5586,-2.5611,-2.5921,-2.6474,-2.6499,-2.6499,-2.6499,-2.6499,-2.6499,-2.6499,-2.7027,-2.7243,-2.7329,-2.8398,-2.8863,-2.8888,-2.9528,-2.9804,-2.9804,-2.9804,-2.9804,-2.9804,-2.9804,-2.9804,-2.9804,-2.9804,-2.9804,-2.9804,-2.9804,-2.9804,-2.9804,-2.9804,-3.0181,-3.0633,-3.0633,-3.1386,-3.224,-3.224,-3.2641,-3.3111,-3.3111,-3.3111,-3.3111,-3.3111,-3.2641,-3.239,-3.2943,-3.2641,-3.2416,-3.3011,-3.3111,-3.3111,-3.3111,-3.3111,-3.3111,-3.3111,-3.3111,-3.3111,-3.3111,-3.3111,-3.3111,-3.3111,-3.3111,-3.3111,-3.3111,-3.3111,-3.3111,-3.3111,-3.3111,-3.3111,-3.3111,-3.3111,-3.3111,-3.3111,-3.3111,-3.3111,-3.3043,-3.3043,-3.3043,-3.3036,-3.1888,-3.1386,0.0,0.0,-2.6499,-2.6499,0.0,0.0,0.0,0.0,0.0,0.0,0.0,0.0,0.0,0.0,-2.6424,-2.6223,-2.6197,0.0,0.0,0.0,0.0,0.0,0.0,0.0,0.0,0.0,0.0,-2.5084,-2.4901,-2.5034,0.0,-2.5586,-2.5862,-2.6474,-2.6499,-2.6499,-2.6499,-2.6499,-2.6499,-2.6499,-2.6675,-2.6776,-2.6801,-2.7871,-2.8373,-2.8423,-2.9377,-2.9804,-2.9804,-2.9804,-2.9804,-2.9804,-2.9804,-2.9804,-2.9804,-2.9804,-2.9804,-2.9804,-2.9804,-2.9804,-2.9804,-2.9804,-3.0156,-3.0683,-3.1009,-3.1637,-3.229,-3.2667,-3.2918,-3.3111,-3.3111,-3.3111,-3.2993,-3.2591,-3.2641,-3.2641,-3.2089,-3.239,-3.2616,-3.2064,-3.2566,-3.2943,-3.2566,-3.2817,-3.3111,-3.3111,-3.3111,-3.3111,-3.3111,-3.3111,-3.3111,-3.3111,-3.3111,-3.3111,-3.3111,-3.3111,-3.3111,-3.3111,-3.3111,-3.3111,-3.3111,-3.3111,-3.3111,-3.3111,-3.3111,-3.3111,-3.3111,-3.3111,-3.3111,-3.3111,-3.2692,-3.229,-2.6499,-2.6499,0.0,-2.6396,-2.6396,0.0,-2.6396,0.0,0.0,0.0,0.0,0.0,0.0,0.0,0.0,-2.6396,-2.6255,-2.5795,0.0,-2.4381,0.0,0.0,0.0,0.0,0.0,0.0,-2.4274,-2.4506,-2.4299,-2.4499,0.0,0.0,-2.5661,-2.6474,-2.6499,-2.6465,-2.6396,-2.6465,-2.6465,-2.6396,-2.6465,-2.6499,-2.6524,-2.7595,-2.8097,-2.8172,-2.9302,-2.9804,-2.9804,-2.9804,-2.9804,-2.9804,-2.9804,-2.9804,-2.9804,-2.9804,-2.9804,-2.9804,-2.9804,-2.9804,-2.9804,-2.9804,-3.0156,-3.0683,-3.1009,-3.1486,-3.2039,-3.2616,-3.2616,-3.2516,-3.2717,-3.2616,-3.239,-3.2014,-3.2064,-3.2039,-3.1512,-3.1813,-3.2089,-3.1763,-3.2265,-3.2717,-3.2541,-3.2817,-3.3111,-3.3111,-3.3111,-3.2993,-3.2792,-3.2943,-3.2993,-3.2792,-3.2943,-3.3111,-3.3111,-3.3111,-3.3111,-3.3111,-3.3111,-3.3111,-3.3111,-3.3111,-3.3212,-3.337,-3.3212,-3.3169,-3.337,-3.3169,-3.3111,-3.3111,-3.3111,-3.2867]}]]